<?xml version="1.0" encoding="UTF-8" standalone="no" ?>
<gpx xmlns="http://www.topografix.com/GPX/1/1" xmlns:xsi="http://www.w3.org/2001/XMLSchema-instance" xsi:schemaLocation="http://www.topografix.com/GPX/1/1 http://www.topografix.com/GPX/1/1/gpx.xsd" version="1.1" creator="VisuGPX - https://www.visugpx.com">
  <metadata>
    <name>Les Droites</name>
    <desc><![CDATA[[url]http://alpinisme.over-blog.net/[/url]

Attention, nous nous sommes trompés à la descente à la sortie du glacier de talèfre pour retrouver les Egralets, ça passe, mais terrain  à Chamois]]></desc>
  </metadata>
  <trk>
    <name><![CDATA[1 - Refuge du Couvercle depuis les Praz]]></name>
    <trkseg>
      <trkpt lat="45.93957" lon="6.89452">
        <ele>2392.8586426</ele>
        <time>2013-06-26T07:29:29Z</time>
      </trkpt>
      <trkpt lat="45.93951" lon="6.89487">
        <ele>2392.3781738</ele>
        <time>2013-06-26T07:30:32Z</time>
      </trkpt>
      <trkpt lat="45.93939" lon="6.89487">
        <ele>2394.3005371</ele>
        <time>2013-06-26T07:31:33Z</time>
      </trkpt>
      <trkpt lat="45.93738" lon="6.89605">
        <ele>2394.78125</ele>
        <time>2013-06-26T07:34:24Z</time>
      </trkpt>
      <trkpt lat="45.93821" lon="6.89678">
        <ele>2394.3005371</ele>
        <time>2013-06-26T07:35:39Z</time>
      </trkpt>
      <trkpt lat="45.93899" lon="6.89791">
        <ele>2401.9912109</ele>
        <time>2013-06-26T07:37:27Z</time>
      </trkpt>
      <trkpt lat="45.93956" lon="6.90033">
        <ele>2402.4719238</ele>
        <time>2013-06-26T07:39:49Z</time>
      </trkpt>
      <trkpt lat="45.9399" lon="6.90064">
        <ele>2405.355957</ele>
        <time>2013-06-26T07:40:16Z</time>
      </trkpt>
      <trkpt lat="45.94019" lon="6.90111">
        <ele>2409.2011719</ele>
        <time>2013-06-26T07:40:56Z</time>
      </trkpt>
      <trkpt lat="45.94048" lon="6.90151">
        <ele>2409.2011719</ele>
        <time>2013-06-26T07:41:28Z</time>
      </trkpt>
      <trkpt lat="45.94039" lon="6.90178">
        <ele>2411.6044922</ele>
        <time>2013-06-26T07:41:50Z</time>
      </trkpt>
      <trkpt lat="45.94023" lon="6.90146">
        <ele>2418.8144531</ele>
        <time>2013-06-26T07:42:29Z</time>
      </trkpt>
      <trkpt lat="45.93987" lon="6.90149">
        <ele>2422.659668</ele>
        <time>2013-06-26T07:43:06Z</time>
      </trkpt>
      <trkpt lat="45.93977" lon="6.90129">
        <ele>2430.3503418</ele>
        <time>2013-06-26T07:43:43Z</time>
      </trkpt>
      <trkpt lat="45.93961" lon="6.90145">
        <ele>2432.2729492</ele>
        <time>2013-06-26T07:43:58Z</time>
      </trkpt>
      <trkpt lat="45.93929" lon="6.9012">
        <ele>2441.4052734</ele>
        <time>2013-06-26T07:45:02Z</time>
      </trkpt>
      <trkpt lat="45.93912" lon="6.90106">
        <ele>2444.7700195</ele>
        <time>2013-06-26T07:45:34Z</time>
      </trkpt>
      <trkpt lat="45.93907" lon="6.90104">
        <ele>2440.9245605</ele>
        <time>2013-06-26T07:45:35Z</time>
      </trkpt>
      <trkpt lat="45.9387" lon="6.9002">
        <ele>1066.7199707</ele>
        <time>2013-06-26T07:47:16Z</time>
      </trkpt>
      <trkpt lat="45.93808" lon="6.89977">
        <ele>1086.4272461</ele>
        <time>2013-06-26T07:49:07Z</time>
      </trkpt>
      <trkpt lat="45.93753" lon="6.8991">
        <ele>1105.6535645</ele>
        <time>2013-06-26T07:51:07Z</time>
      </trkpt>
      <trkpt lat="45.93644" lon="6.89844">
        <ele>1136.4157715</ele>
        <time>2013-06-26T07:54:18Z</time>
      </trkpt>
      <trkpt lat="45.93633" lon="6.8983">
        <ele>1138.3383789</ele>
        <time>2013-06-26T07:54:39Z</time>
      </trkpt>
      <trkpt lat="45.93595" lon="6.89829">
        <ele>1149.8742676</ele>
        <time>2013-06-26T07:55:40Z</time>
      </trkpt>
      <trkpt lat="45.93537" lon="6.89813">
        <ele>1163.3325195</ele>
        <time>2013-06-26T07:57:15Z</time>
      </trkpt>
      <trkpt lat="45.936" lon="6.89889">
        <ele>1188.8076172</ele>
        <time>2013-06-26T07:59:48Z</time>
      </trkpt>
      <trkpt lat="45.93601" lon="6.89916">
        <ele>1195.5366211</ele>
        <time>2013-06-26T08:00:29Z</time>
      </trkpt>
      <trkpt lat="45.9361" lon="6.89939">
        <ele>1201.3046875</ele>
        <time>2013-06-26T08:01:02Z</time>
      </trkpt>
      <trkpt lat="45.93663" lon="6.9002">
        <ele>1219.5698242</ele>
        <time>2013-06-26T08:02:57Z</time>
      </trkpt>
      <trkpt lat="45.9366" lon="6.90057">
        <ele>1228.7023926</ele>
        <time>2013-06-26T08:03:48Z</time>
      </trkpt>
      <trkpt lat="45.9368" lon="6.90069">
        <ele>1233.0280762</ele>
        <time>2013-06-26T08:04:17Z</time>
      </trkpt>
      <trkpt lat="45.93694" lon="6.90122">
        <ele>1244.0834961</ele>
        <time>2013-06-26T08:05:17Z</time>
      </trkpt>
      <trkpt lat="45.93701" lon="6.90135">
        <ele>1246.9672852</ele>
        <time>2013-06-26T08:05:37Z</time>
      </trkpt>
      <trkpt lat="45.93714" lon="6.90236">
        <ele>1267.1550293</ele>
        <time>2013-06-26T08:07:34Z</time>
      </trkpt>
      <trkpt lat="45.93703" lon="6.90348">
        <ele>1289.7458496</ele>
        <time>2013-06-26T08:09:43Z</time>
      </trkpt>
      <trkpt lat="45.93735" lon="6.90439">
        <ele>1310.8950195</ele>
        <time>2013-06-26T08:11:53Z</time>
      </trkpt>
      <trkpt lat="45.93722" lon="6.90479">
        <ele>1317.1435547</ele>
        <time>2013-06-26T08:12:36Z</time>
      </trkpt>
      <trkpt lat="45.93741" lon="6.9049">
        <ele>1319.0661621</ele>
        <time>2013-06-26T08:12:47Z</time>
      </trkpt>
      <trkpt lat="45.93736" lon="6.90536">
        <ele>1328.6794434</ele>
        <time>2013-06-26T08:13:48Z</time>
      </trkpt>
      <trkpt lat="45.93721" lon="6.90546">
        <ele>1330.1213379</ele>
        <time>2013-06-26T08:14:06Z</time>
      </trkpt>
      <trkpt lat="45.93762" lon="6.90676">
        <ele>1357.0383301</ele>
        <time>2013-06-26T08:16:48Z</time>
      </trkpt>
      <trkpt lat="45.93773" lon="6.90687">
        <ele>1358.4802246</ele>
        <time>2013-06-26T08:17:06Z</time>
      </trkpt>
      <trkpt lat="45.93768" lon="6.90715">
        <ele>1362.8061523</ele>
        <time>2013-06-26T08:17:31Z</time>
      </trkpt>
      <trkpt lat="45.93781" lon="6.90719">
        <ele>1366.6513672</ele>
        <time>2013-06-26T08:17:47Z</time>
      </trkpt>
      <trkpt lat="45.93789" lon="6.90729">
        <ele>1368.0932617</ele>
        <time>2013-06-26T08:17:57Z</time>
      </trkpt>
      <trkpt lat="45.93789" lon="6.90808">
        <ele>1385.3969727</ele>
        <time>2013-06-26T08:19:39Z</time>
      </trkpt>
      <trkpt lat="45.93816" lon="6.90886">
        <ele>1399.3361816</ele>
        <time>2013-06-26T08:21:22Z</time>
      </trkpt>
      <trkpt lat="45.93785" lon="6.90839">
        <ele>1413.2753906</ele>
        <time>2013-06-26T08:22:42Z</time>
      </trkpt>
      <trkpt lat="45.93763" lon="6.90793">
        <ele>1421.4465332</ele>
        <time>2013-06-26T08:23:44Z</time>
      </trkpt>
      <trkpt lat="45.93702" lon="6.9073">
        <ele>1442.5957031</ele>
        <time>2013-06-26T08:27:34Z</time>
      </trkpt>
      <trkpt lat="45.93708" lon="6.90862">
        <ele>1448.8439941</ele>
        <time>2013-06-26T08:29:14Z</time>
      </trkpt>
      <trkpt lat="45.93731" lon="6.90877">
        <ele>1448.8439941</ele>
        <time>2013-06-26T08:29:28Z</time>
      </trkpt>
      <trkpt lat="45.9374" lon="6.90924">
        <ele>1451.7280273</ele>
        <time>2013-06-26T08:30:01Z</time>
      </trkpt>
      <trkpt lat="45.93755" lon="6.90938">
        <ele>1453.170166</ele>
        <time>2013-06-26T08:30:17Z</time>
      </trkpt>
      <trkpt lat="45.9374" lon="6.90997">
        <ele>1455.5734863</ele>
        <time>2013-06-26T08:30:57Z</time>
      </trkpt>
      <trkpt lat="45.93764" lon="6.91019">
        <ele>1458.4572754</ele>
        <time>2013-06-26T08:31:22Z</time>
      </trkpt>
      <trkpt lat="45.9376" lon="6.91036">
        <ele>1459.4187012</ele>
        <time>2013-06-26T08:31:31Z</time>
      </trkpt>
      <trkpt lat="45.93746" lon="6.91054">
        <ele>1459.4187012</ele>
        <time>2013-06-26T08:31:39Z</time>
      </trkpt>
      <trkpt lat="45.93771" lon="6.91061">
        <ele>1461.8220215</ele>
        <time>2013-06-26T08:31:54Z</time>
      </trkpt>
      <trkpt lat="45.93784" lon="6.91167">
        <ele>1470.473877</ele>
        <time>2013-06-26T08:33:13Z</time>
      </trkpt>
      <trkpt lat="45.93799" lon="6.91167">
        <ele>1471.9157715</ele>
        <time>2013-06-26T08:33:27Z</time>
      </trkpt>
      <trkpt lat="45.9379" lon="6.91212">
        <ele>1475.2802734</ele>
        <time>2013-06-26T08:34:03Z</time>
      </trkpt>
      <trkpt lat="45.93808" lon="6.9123">
        <ele>1480.0869141</ele>
        <time>2013-06-26T08:34:25Z</time>
      </trkpt>
      <trkpt lat="45.93802" lon="6.91252">
        <ele>1482.4902344</ele>
        <time>2013-06-26T08:34:41Z</time>
      </trkpt>
      <trkpt lat="45.93815" lon="6.91295">
        <ele>1481.5288086</ele>
        <time>2013-06-26T08:35:13Z</time>
      </trkpt>
      <trkpt lat="45.93807" lon="6.91314">
        <ele>1483.451416</ele>
        <time>2013-06-26T08:35:27Z</time>
      </trkpt>
      <trkpt lat="45.93819" lon="6.91348">
        <ele>1490.1809082</ele>
        <time>2013-06-26T08:36:09Z</time>
      </trkpt>
      <trkpt lat="45.93835" lon="6.91355">
        <ele>1494.026123</ele>
        <time>2013-06-26T08:36:32Z</time>
      </trkpt>
      <trkpt lat="45.93843" lon="6.9137">
        <ele>1495.9487305</ele>
        <time>2013-06-26T08:36:50Z</time>
      </trkpt>
      <trkpt lat="45.9391" lon="6.91399">
        <ele>1509.4072266</ele>
        <time>2013-06-26T08:38:28Z</time>
      </trkpt>
      <trkpt lat="45.93923" lon="6.91409">
        <ele>1508.9265137</ele>
        <time>2013-06-26T08:38:41Z</time>
      </trkpt>
      <trkpt lat="45.93921" lon="6.91429">
        <ele>1511.329834</ele>
        <time>2013-06-26T08:39:02Z</time>
      </trkpt>
      <trkpt lat="45.9393" lon="6.9145">
        <ele>1512.2910156</ele>
        <time>2013-06-26T08:39:25Z</time>
      </trkpt>
      <trkpt lat="45.93961" lon="6.91492">
        <ele>1523.3464355</ele>
        <time>2013-06-26T08:40:38Z</time>
      </trkpt>
      <trkpt lat="45.9392" lon="6.91468">
        <ele>1539.6887207</ele>
        <time>2013-06-26T08:42:46Z</time>
      </trkpt>
      <trkpt lat="45.93911" lon="6.91462">
        <ele>1538.2468262</ele>
        <time>2013-06-26T08:42:59Z</time>
      </trkpt>
      <trkpt lat="45.93854" lon="6.91467">
        <ele>1552.185791</ele>
        <time>2013-06-26T08:44:33Z</time>
      </trkpt>
      <trkpt lat="45.93836" lon="6.91484">
        <ele>1556.0310059</ele>
        <time>2013-06-26T08:45:00Z</time>
      </trkpt>
      <trkpt lat="45.93836" lon="6.91509">
        <ele>1561.7990723</ele>
        <time>2013-06-26T08:45:39Z</time>
      </trkpt>
      <trkpt lat="45.93831" lon="6.91521">
        <ele>1562.279541</ele>
        <time>2013-06-26T08:45:51Z</time>
      </trkpt>
      <trkpt lat="45.93912" lon="6.91562">
        <ele>1575.2573242</ele>
        <time>2013-06-26T08:47:53Z</time>
      </trkpt>
      <trkpt lat="45.93923" lon="6.91573">
        <ele>1581.0256348</ele>
        <time>2013-06-26T08:48:18Z</time>
      </trkpt>
      <trkpt lat="45.93932" lon="6.91588">
        <ele>1581.0256348</ele>
        <time>2013-06-26T08:48:37Z</time>
      </trkpt>
      <trkpt lat="45.93935" lon="6.91597">
        <ele>1584.3901367</ele>
        <time>2013-06-26T08:48:50Z</time>
      </trkpt>
      <trkpt lat="45.93933" lon="6.91613">
        <ele>1585.3513184</ele>
        <time>2013-06-26T08:49:14Z</time>
      </trkpt>
      <trkpt lat="45.9394" lon="6.91631">
        <ele>1587.7546387</ele>
        <time>2013-06-26T08:49:50Z</time>
      </trkpt>
      <trkpt lat="45.93968" lon="6.91656">
        <ele>1596.887207</ele>
        <time>2013-06-26T08:50:57Z</time>
      </trkpt>
      <trkpt lat="45.93982" lon="6.9165">
        <ele>1597.8486328</ele>
        <time>2013-06-26T08:51:07Z</time>
      </trkpt>
      <trkpt lat="45.93979" lon="6.91731">
        <ele>1612.7490234</ele>
        <time>2013-06-26T08:53:51Z</time>
      </trkpt>
      <trkpt lat="45.93975" lon="6.91753">
        <ele>1611.3068848</ele>
        <time>2013-06-26T08:54:42Z</time>
      </trkpt>
      <trkpt lat="45.9399" lon="6.91755">
        <ele>1613.7102051</ele>
        <time>2013-06-26T08:55:55Z</time>
      </trkpt>
      <trkpt lat="45.9399" lon="6.91754">
        <ele>1611.3068848</ele>
        <time>2013-06-26T08:55:56Z</time>
      </trkpt>
      <trkpt lat="45.93725" lon="6.9171">
        <ele>1695.9030762</ele>
        <time>2013-06-26T09:06:57Z</time>
      </trkpt>
      <trkpt lat="45.93709" lon="6.91696">
        <ele>1699.2675781</ele>
        <time>2013-06-26T09:07:26Z</time>
      </trkpt>
      <trkpt lat="45.9372" lon="6.91709">
        <ele>1701.6708984</ele>
        <time>2013-06-26T09:07:49Z</time>
      </trkpt>
      <trkpt lat="45.93707" lon="6.91714">
        <ele>1706.9580078</ele>
        <time>2013-06-26T09:08:18Z</time>
      </trkpt>
      <trkpt lat="45.93701" lon="6.91716">
        <ele>1708.4001465</ele>
        <time>2013-06-26T09:08:36Z</time>
      </trkpt>
      <trkpt lat="45.93655" lon="6.9173">
        <ele>1719.4553223</ele>
        <time>2013-06-26T09:10:23Z</time>
      </trkpt>
      <trkpt lat="45.93646" lon="6.91748">
        <ele>1724.7426758</ele>
        <time>2013-06-26T09:11:05Z</time>
      </trkpt>
      <trkpt lat="45.93615" lon="6.91759">
        <ele>1730.9912109</ele>
        <time>2013-06-26T09:12:01Z</time>
      </trkpt>
      <trkpt lat="45.93602" lon="6.91787">
        <ele>1739.6428223</ele>
        <time>2013-06-26T09:13:13Z</time>
      </trkpt>
      <trkpt lat="45.93463" lon="6.91815">
        <ele>1798.2832031</ele>
        <time>2013-06-26T09:20:06Z</time>
      </trkpt>
      <trkpt lat="45.93401" lon="6.91812">
        <ele>1813.6643066</ele>
        <time>2013-06-26T09:22:01Z</time>
      </trkpt>
      <trkpt lat="45.93382" lon="6.91835">
        <ele>1819.9128418</ele>
        <time>2013-06-26T09:22:43Z</time>
      </trkpt>
      <trkpt lat="45.93272" lon="6.91828">
        <ele>1832.890625</ele>
        <time>2013-06-26T09:25:05Z</time>
      </trkpt>
      <trkpt lat="45.9324" lon="6.91854">
        <ele>1836.2556152</ele>
        <time>2013-06-26T09:25:46Z</time>
      </trkpt>
      <trkpt lat="45.93236" lon="6.91848">
        <ele>1839.1394043</ele>
        <time>2013-06-26T09:26:01Z</time>
      </trkpt>
      <trkpt lat="45.93186" lon="6.91859">
        <ele>1847.7912598</ele>
        <time>2013-06-26T09:27:32Z</time>
      </trkpt>
      <trkpt lat="45.93125" lon="6.9185">
        <ele>1851.1557617</ele>
        <time>2013-06-26T09:28:35Z</time>
      </trkpt>
      <trkpt lat="45.931" lon="6.91839">
        <ele>1846.829834</ele>
        <time>2013-06-26T09:29:16Z</time>
      </trkpt>
      <trkpt lat="45.92965" lon="6.91857">
        <ele>1854.5205078</ele>
        <time>2013-06-26T09:31:41Z</time>
      </trkpt>
      <trkpt lat="45.9288" lon="6.91926">
        <ele>1842.5041504</ele>
        <time>2013-06-26T09:33:31Z</time>
      </trkpt>
      <trkpt lat="45.92858" lon="6.91922">
        <ele>1849.7138672</ele>
        <time>2013-06-26T09:36:54Z</time>
      </trkpt>
      <trkpt lat="45.92827" lon="6.9191">
        <ele>1845.3879395</ele>
        <time>2013-06-26T09:41:13Z</time>
      </trkpt>
      <trkpt lat="45.92806" lon="6.91925">
        <ele>1840.5812988</ele>
        <time>2013-06-26T09:41:48Z</time>
      </trkpt>
      <trkpt lat="45.92786" lon="6.91911">
        <ele>1844.4265137</ele>
        <time>2013-06-26T09:42:18Z</time>
      </trkpt>
      <trkpt lat="45.92753" lon="6.91911">
        <ele>1846.3493652</ele>
        <time>2013-06-26T09:45:00Z</time>
      </trkpt>
      <trkpt lat="45.92748" lon="6.91919">
        <ele>1842.0234375</ele>
        <time>2013-06-26T09:45:42Z</time>
      </trkpt>
      <trkpt lat="45.92742" lon="6.91918">
        <ele>1835.7746582</ele>
        <time>2013-06-26T09:46:10Z</time>
      </trkpt>
      <trkpt lat="45.92742" lon="6.91918">
        <ele>1831.9294434</ele>
        <time>2013-06-26T09:46:41Z</time>
      </trkpt>
      <trkpt lat="45.92742" lon="6.91918">
        <ele>1835.7746582</ele>
        <time>2013-06-26T09:46:42Z</time>
      </trkpt>
      <trkpt lat="45.92742" lon="6.91918">
        <ele>1831.9294434</ele>
        <time>2013-06-26T09:46:46Z</time>
      </trkpt>
      <trkpt lat="45.92742" lon="6.91919">
        <ele>1832.4101563</ele>
        <time>2013-06-26T09:46:59Z</time>
      </trkpt>
      <trkpt lat="45.92742" lon="6.9192">
        <ele>1826.642334</ele>
        <time>2013-06-26T09:47:01Z</time>
      </trkpt>
      <trkpt lat="45.92742" lon="6.9192">
        <ele>1831.4487305</ele>
        <time>2013-06-26T09:47:02Z</time>
      </trkpt>
      <trkpt lat="45.92743" lon="6.9192">
        <ele>1830.9682617</ele>
        <time>2013-06-26T09:47:04Z</time>
      </trkpt>
      <trkpt lat="45.92742" lon="6.9192">
        <ele>1824.2390137</ele>
        <time>2013-06-26T09:47:11Z</time>
      </trkpt>
      <trkpt lat="45.92742" lon="6.9192">
        <ele>1830.0068359</ele>
        <time>2013-06-26T09:47:12Z</time>
      </trkpt>
      <trkpt lat="45.92743" lon="6.9192">
        <ele>1822.3164063</ele>
        <time>2013-06-26T09:47:17Z</time>
      </trkpt>
      <trkpt lat="45.92743" lon="6.9192">
        <ele>1828.5649414</ele>
        <time>2013-06-26T09:47:18Z</time>
      </trkpt>
      <trkpt lat="45.92745" lon="6.91923">
        <ele>1825.2001953</ele>
        <time>2013-06-26T09:47:26Z</time>
      </trkpt>
      <trkpt lat="45.92744" lon="6.91923">
        <ele>1827.6035156</ele>
        <time>2013-06-26T09:47:28Z</time>
      </trkpt>
      <trkpt lat="45.92746" lon="6.91926">
        <ele>1822.7971191</ele>
        <time>2013-06-26T09:47:32Z</time>
      </trkpt>
      <trkpt lat="45.92747" lon="6.91926">
        <ele>1825.6809082</ele>
        <time>2013-06-26T09:47:35Z</time>
      </trkpt>
      <trkpt lat="45.92732" lon="6.91944">
        <ele>1819.432373</ele>
        <time>2013-06-26T09:48:27Z</time>
      </trkpt>
      <trkpt lat="45.92732" lon="6.91946">
        <ele>1814.1450195</ele>
        <time>2013-06-26T09:48:39Z</time>
      </trkpt>
      <trkpt lat="45.92721" lon="6.91949">
        <ele>1813.1838379</ele>
        <time>2013-06-26T09:48:58Z</time>
      </trkpt>
      <trkpt lat="45.92719" lon="6.91967">
        <ele>1807.8967285</ele>
        <time>2013-06-26T09:49:31Z</time>
      </trkpt>
      <trkpt lat="45.92723" lon="6.91969">
        <ele>1804.0515137</ele>
        <time>2013-06-26T09:49:37Z</time>
      </trkpt>
      <trkpt lat="45.9272" lon="6.91968">
        <ele>1809.338623</ele>
        <time>2013-06-26T09:49:42Z</time>
      </trkpt>
      <trkpt lat="45.92719" lon="6.91968">
        <ele>1806.9353027</ele>
        <time>2013-06-26T09:49:43Z</time>
      </trkpt>
      <trkpt lat="45.92719" lon="6.91968">
        <ele>1804.5319824</ele>
        <time>2013-06-26T09:49:45Z</time>
      </trkpt>
      <trkpt lat="45.92718" lon="6.91967">
        <ele>1801.6479492</ele>
        <time>2013-06-26T09:49:50Z</time>
      </trkpt>
      <trkpt lat="45.92711" lon="6.91969">
        <ele>1803.5705566</ele>
        <time>2013-06-26T09:50:06Z</time>
      </trkpt>
      <trkpt lat="45.92709" lon="6.91968">
        <ele>1809.338623</ele>
        <time>2013-06-26T09:50:09Z</time>
      </trkpt>
      <trkpt lat="45.92708" lon="6.91967">
        <ele>1807.4160156</ele>
        <time>2013-06-26T09:50:10Z</time>
      </trkpt>
      <trkpt lat="45.92708" lon="6.91966">
        <ele>1804.0515137</ele>
        <time>2013-06-26T09:50:12Z</time>
      </trkpt>
      <trkpt lat="45.92706" lon="6.91965">
        <ele>1798.763916</ele>
        <time>2013-06-26T09:50:25Z</time>
      </trkpt>
      <trkpt lat="45.92706" lon="6.91964">
        <ele>1804.0515137</ele>
        <time>2013-06-26T09:50:26Z</time>
      </trkpt>
      <trkpt lat="45.92704" lon="6.91962">
        <ele>1805.973877</ele>
        <time>2013-06-26T09:50:28Z</time>
      </trkpt>
      <trkpt lat="45.92693" lon="6.91956">
        <ele>1808.3771973</ele>
        <time>2013-06-26T09:50:45Z</time>
      </trkpt>
      <trkpt lat="45.92683" lon="6.91957">
        <ele>1813.1838379</ele>
        <time>2013-06-26T09:51:09Z</time>
      </trkpt>
      <trkpt lat="45.92679" lon="6.91954">
        <ele>1813.1838379</ele>
        <time>2013-06-26T09:51:18Z</time>
      </trkpt>
      <trkpt lat="45.9267" lon="6.91956">
        <ele>1815.1064453</ele>
        <time>2013-06-26T09:51:40Z</time>
      </trkpt>
      <trkpt lat="45.9264" lon="6.91952">
        <ele>1816.067627</ele>
        <time>2013-06-26T09:52:28Z</time>
      </trkpt>
      <trkpt lat="45.92623" lon="6.91945">
        <ele>1814.1450195</ele>
        <time>2013-06-26T09:53:01Z</time>
      </trkpt>
      <trkpt lat="45.92606" lon="6.91945">
        <ele>1808.8579102</ele>
        <time>2013-06-26T09:53:38Z</time>
      </trkpt>
      <trkpt lat="45.92604" lon="6.91957">
        <ele>1806.9353027</ele>
        <time>2013-06-26T09:53:58Z</time>
      </trkpt>
      <trkpt lat="45.92605" lon="6.91956">
        <ele>1806.4545898</ele>
        <time>2013-06-26T09:54:05Z</time>
      </trkpt>
      <trkpt lat="45.92605" lon="6.91957">
        <ele>1803.5705566</ele>
        <time>2013-06-26T09:54:11Z</time>
      </trkpt>
      <trkpt lat="45.92606" lon="6.91958">
        <ele>1801.6479492</ele>
        <time>2013-06-26T09:54:26Z</time>
      </trkpt>
      <trkpt lat="45.92604" lon="6.91959">
        <ele>1798.2832031</ele>
        <time>2013-06-26T09:54:27Z</time>
      </trkpt>
      <trkpt lat="45.92612" lon="6.91963">
        <ele>1799.7253418</ele>
        <time>2013-06-26T09:55:00Z</time>
      </trkpt>
      <trkpt lat="45.92613" lon="6.91962">
        <ele>1794.9187012</ele>
        <time>2013-06-26T09:55:08Z</time>
      </trkpt>
      <trkpt lat="45.9261" lon="6.9197">
        <ele>1792.0349121</ele>
        <time>2013-06-26T09:55:37Z</time>
      </trkpt>
      <trkpt lat="45.92613" lon="6.91989">
        <ele>1780.4990234</ele>
        <time>2013-06-26T09:56:40Z</time>
      </trkpt>
      <trkpt lat="45.92615" lon="6.91992">
        <ele>1774.7312012</ele>
        <time>2013-06-26T09:57:08Z</time>
      </trkpt>
      <trkpt lat="45.92608" lon="6.92004">
        <ele>1773.2893066</ele>
        <time>2013-06-26T09:57:38Z</time>
      </trkpt>
      <trkpt lat="45.92606" lon="6.92008">
        <ele>1769.9243164</ele>
        <time>2013-06-26T09:57:50Z</time>
      </trkpt>
      <trkpt lat="45.92607" lon="6.92009">
        <ele>1768.9631348</ele>
        <time>2013-06-26T09:58:04Z</time>
      </trkpt>
      <trkpt lat="45.926" lon="6.92015">
        <ele>1764.637207</ele>
        <time>2013-06-26T09:58:32Z</time>
      </trkpt>
      <trkpt lat="45.92593" lon="6.92027">
        <ele>1758.3886719</ele>
        <time>2013-06-26T09:58:59Z</time>
      </trkpt>
      <trkpt lat="45.92585" lon="6.92057">
        <ele>1748.7753906</ele>
        <time>2013-06-26T10:01:02Z</time>
      </trkpt>
      <trkpt lat="45.92547" lon="6.92079">
        <ele>1747.3334961</ele>
        <time>2013-06-26T10:02:55Z</time>
      </trkpt>
      <trkpt lat="45.9248" lon="6.92179">
        <ele>1774.7312012</ele>
        <time>2013-06-26T10:08:33Z</time>
      </trkpt>
      <trkpt lat="45.92478" lon="6.9219">
        <ele>1772.8085938</ele>
        <time>2013-06-26T10:14:28Z</time>
      </trkpt>
      <trkpt lat="45.92489" lon="6.92186">
        <ele>1768.001709</ele>
        <time>2013-06-26T10:15:18Z</time>
      </trkpt>
      <trkpt lat="45.92479" lon="6.92187">
        <ele>1775.6923828</ele>
        <time>2013-06-26T10:15:46Z</time>
      </trkpt>
      <trkpt lat="45.92493" lon="6.92183">
        <ele>1771.8469238</ele>
        <time>2013-06-26T10:16:25Z</time>
      </trkpt>
      <trkpt lat="45.92494" lon="6.92185">
        <ele>1768.4824219</ele>
        <time>2013-06-26T10:16:35Z</time>
      </trkpt>
      <trkpt lat="45.92487" lon="6.9219">
        <ele>1774.7312012</ele>
        <time>2013-06-26T10:24:51Z</time>
      </trkpt>
      <trkpt lat="45.92472" lon="6.92191">
        <ele>1772.3278809</ele>
        <time>2013-06-26T10:26:36Z</time>
      </trkpt>
      <trkpt lat="45.9243" lon="6.92229">
        <ele>1771.8469238</ele>
        <time>2013-06-26T10:29:26Z</time>
      </trkpt>
      <trkpt lat="45.92399" lon="6.92285">
        <ele>1775.6923828</ele>
        <time>2013-06-26T10:36:24Z</time>
      </trkpt>
      <trkpt lat="45.9224" lon="6.92384">
        <ele>1805.4934082</ele>
        <time>2013-06-26T10:40:40Z</time>
      </trkpt>
      <trkpt lat="45.92202" lon="6.92434">
        <ele>1813.1838379</ele>
        <time>2013-06-26T10:41:54Z</time>
      </trkpt>
      <trkpt lat="45.92074" lon="6.92657">
        <ele>1840.1008301</ele>
        <time>2013-06-26T10:46:32Z</time>
      </trkpt>
      <trkpt lat="45.92053" lon="6.92728">
        <ele>1847.7912598</ele>
        <time>2013-06-26T10:47:45Z</time>
      </trkpt>
      <trkpt lat="45.91884" lon="6.92914">
        <ele>1864.1335449</ele>
        <time>2013-06-26T10:52:10Z</time>
      </trkpt>
      <trkpt lat="45.91793" lon="6.93091">
        <ele>1879.9953613</ele>
        <time>2013-06-26T10:55:24Z</time>
      </trkpt>
      <trkpt lat="45.91756" lon="6.93144">
        <ele>1884.8022461</ele>
        <time>2013-06-26T10:56:28Z</time>
      </trkpt>
      <trkpt lat="45.91722" lon="6.93163">
        <ele>1887.2053223</ele>
        <time>2013-06-26T10:57:12Z</time>
      </trkpt>
      <trkpt lat="45.9168" lon="6.93221">
        <ele>1892.0119629</ele>
        <time>2013-06-26T10:58:22Z</time>
      </trkpt>
      <trkpt lat="45.91641" lon="6.93263">
        <ele>1895.3764648</ele>
        <time>2013-06-26T10:59:18Z</time>
      </trkpt>
      <trkpt lat="45.91571" lon="6.93375">
        <ele>1908.8349609</ele>
        <time>2013-06-26T11:01:32Z</time>
      </trkpt>
      <trkpt lat="45.91526" lon="6.93482">
        <ele>1924.6967773</ele>
        <time>2013-06-26T11:04:42Z</time>
      </trkpt>
      <trkpt lat="45.91429" lon="6.93568">
        <ele>1944.4035645</ele>
        <time>2013-06-26T11:08:47Z</time>
      </trkpt>
      <trkpt lat="45.91338" lon="6.93691">
        <ele>1957.8623047</ele>
        <time>2013-06-26T11:11:40Z</time>
      </trkpt>
      <trkpt lat="45.91315" lon="6.93704">
        <ele>1961.7075195</ele>
        <time>2013-06-26T11:12:14Z</time>
      </trkpt>
      <trkpt lat="45.91254" lon="6.93757">
        <ele>1968.4367676</ele>
        <time>2013-06-26T11:14:01Z</time>
      </trkpt>
      <trkpt lat="45.91137" lon="6.9389">
        <ele>1976.6079102</ele>
        <time>2013-06-26T11:16:59Z</time>
      </trkpt>
      <trkpt lat="45.90839" lon="6.9405">
        <ele>2001.121582</ele>
        <time>2013-06-26T11:23:27Z</time>
      </trkpt>
      <trkpt lat="45.90786" lon="6.94187">
        <ele>2011.6960449</ele>
        <time>2013-06-26T11:28:04Z</time>
      </trkpt>
      <trkpt lat="45.90726" lon="6.94272">
        <ele>2023.2319336</ele>
        <time>2013-06-26T11:30:17Z</time>
      </trkpt>
      <trkpt lat="45.90668" lon="6.94386">
        <ele>2032.364502</ele>
        <time>2013-06-26T11:32:26Z</time>
      </trkpt>
      <trkpt lat="45.90676" lon="6.94485">
        <ele>2045.822998</ele>
        <time>2013-06-26T11:34:43Z</time>
      </trkpt>
      <trkpt lat="45.90678" lon="6.94522">
        <ele>2047.2648926</ele>
        <time>2013-06-26T11:35:20Z</time>
      </trkpt>
      <trkpt lat="45.90668" lon="6.94579">
        <ele>2052.0712891</ele>
        <time>2013-06-26T11:36:28Z</time>
      </trkpt>
      <trkpt lat="45.90669" lon="6.94618">
        <ele>2047.2648926</ele>
        <time>2013-06-26T11:37:33Z</time>
      </trkpt>
      <trkpt lat="45.90692" lon="6.94654">
        <ele>2048.2260742</ele>
        <time>2013-06-26T11:38:28Z</time>
      </trkpt>
      <trkpt lat="45.90683" lon="6.94694">
        <ele>2050.6293945</ele>
        <time>2013-06-26T11:39:31Z</time>
      </trkpt>
      <trkpt lat="45.90659" lon="6.94713">
        <ele>2053.5134277</ele>
        <time>2013-06-26T11:40:17Z</time>
      </trkpt>
      <trkpt lat="45.90592" lon="6.94833">
        <ele>2072.2590332</ele>
        <time>2013-06-26T11:43:52Z</time>
      </trkpt>
      <trkpt lat="45.90497" lon="6.94945">
        <ele>2085.2368164</ele>
        <time>2013-06-26T11:46:55Z</time>
      </trkpt>
      <trkpt lat="45.90441" lon="6.94999">
        <ele>2091.0046387</ele>
        <time>2013-06-26T11:48:33Z</time>
      </trkpt>
      <trkpt lat="45.9042" lon="6.95023">
        <ele>2092.4470215</ele>
        <time>2013-06-26T11:49:06Z</time>
      </trkpt>
      <trkpt lat="45.90373" lon="6.95115">
        <ele>2102.5405273</ele>
        <time>2013-06-26T11:51:19Z</time>
      </trkpt>
      <trkpt lat="45.90341" lon="6.95311">
        <ele>2117.9216309</ele>
        <time>2013-06-26T11:59:24Z</time>
      </trkpt>
      <trkpt lat="45.90316" lon="6.95372">
        <ele>2121.2861328</ele>
        <time>2013-06-26T12:00:52Z</time>
      </trkpt>
      <trkpt lat="45.90282" lon="6.95417">
        <ele>2118.4023438</ele>
        <time>2013-06-26T12:02:13Z</time>
      </trkpt>
      <trkpt lat="45.90282" lon="6.95458">
        <ele>2123.6894531</ele>
        <time>2013-06-26T12:03:15Z</time>
      </trkpt>
      <trkpt lat="45.90265" lon="6.95492">
        <ele>2125.1315918</ele>
        <time>2013-06-26T12:04:05Z</time>
      </trkpt>
      <trkpt lat="45.90272" lon="6.95538">
        <ele>2135.7060547</ele>
        <time>2013-06-26T12:05:35Z</time>
      </trkpt>
      <trkpt lat="45.9031" lon="6.95554">
        <ele>2155.4130859</ele>
        <time>2013-06-26T12:08:31Z</time>
      </trkpt>
      <trkpt lat="45.90331" lon="6.95565">
        <ele>2161.6618652</ele>
        <time>2013-06-26T12:09:23Z</time>
      </trkpt>
      <trkpt lat="45.90337" lon="6.95617">
        <ele>2165.0263672</ele>
        <time>2013-06-26T12:11:09Z</time>
      </trkpt>
      <trkpt lat="45.90317" lon="6.95655">
        <ele>2173.1977539</ele>
        <time>2013-06-26T12:14:17Z</time>
      </trkpt>
      <trkpt lat="45.90321" lon="6.95658">
        <ele>2169.8327637</ele>
        <time>2013-06-26T12:14:44Z</time>
      </trkpt>
      <trkpt lat="45.90316" lon="6.95653">
        <ele>2170.3134766</ele>
        <time>2013-06-26T12:17:40Z</time>
      </trkpt>
      <trkpt lat="45.90331" lon="6.95651">
        <ele>2174.1589355</ele>
        <time>2013-06-26T12:22:09Z</time>
      </trkpt>
      <trkpt lat="45.90277" lon="6.9566">
        <ele>2253.9484863</ele>
        <time>2013-06-26T12:35:09Z</time>
      </trkpt>
      <trkpt lat="45.9029" lon="6.95668">
        <ele>2255.8708496</ele>
        <time>2013-06-26T12:35:19Z</time>
      </trkpt>
      <trkpt lat="45.90301" lon="6.95617">
        <ele>2262.6000977</ele>
        <time>2013-06-26T12:36:01Z</time>
      </trkpt>
      <trkpt lat="45.90322" lon="6.95628">
        <ele>2266.9260254</ele>
        <time>2013-06-26T12:36:29Z</time>
      </trkpt>
      <trkpt lat="45.90376" lon="6.95603">
        <ele>2295.2849121</ele>
        <time>2013-06-26T12:39:31Z</time>
      </trkpt>
      <trkpt lat="45.90382" lon="6.95747">
        <ele>2343.831543</ele>
        <time>2013-06-26T12:45:04Z</time>
      </trkpt>
      <trkpt lat="45.9039" lon="6.95809">
        <ele>2363.0578613</ele>
        <time>2013-06-26T12:47:52Z</time>
      </trkpt>
      <trkpt lat="45.90411" lon="6.95811">
        <ele>2371.7097168</ele>
        <time>2013-06-26T12:49:49Z</time>
      </trkpt>
      <trkpt lat="45.90404" lon="6.95833">
        <ele>2378.4389648</ele>
        <time>2013-06-26T12:50:31Z</time>
      </trkpt>
      <trkpt lat="45.90391" lon="6.95859">
        <ele>2379.8808594</ele>
        <time>2013-06-26T12:51:01Z</time>
      </trkpt>
      <trkpt lat="45.90408" lon="6.95938">
        <ele>2405.8364258</ele>
        <time>2013-06-26T12:54:18Z</time>
      </trkpt>
      <trkpt lat="45.90408" lon="6.9596">
        <ele>2409.2011719</ele>
        <time>2013-06-26T12:54:51Z</time>
      </trkpt>
      <trkpt lat="45.90419" lon="6.95976">
        <ele>2415.9304199</ele>
        <time>2013-06-26T12:55:47Z</time>
      </trkpt>
      <trkpt lat="45.90432" lon="6.96014">
        <ele>2421.2175293</ele>
        <time>2013-06-26T12:56:34Z</time>
      </trkpt>
      <trkpt lat="45.90442" lon="6.95973">
        <ele>2427.9467773</ele>
        <time>2013-06-26T12:57:36Z</time>
      </trkpt>
      <trkpt lat="45.90448" lon="6.95977">
        <ele>2430.8310547</ele>
        <time>2013-06-26T12:57:54Z</time>
      </trkpt>
      <trkpt lat="45.90475" lon="6.96018">
        <ele>2447.6540527</ele>
        <time>2013-06-26T13:00:02Z</time>
      </trkpt>
      <trkpt lat="45.90488" lon="6.96058">
        <ele>2455.3444824</ele>
        <time>2013-06-26T13:01:04Z</time>
      </trkpt>
      <trkpt lat="45.90545" lon="6.96136">
        <ele>2477.9355469</ele>
        <time>2013-06-26T13:04:16Z</time>
      </trkpt>
      <trkpt lat="45.90549" lon="6.96143">
        <ele>2478.8967285</ele>
        <time>2013-06-26T13:04:30Z</time>
      </trkpt>
      <trkpt lat="45.90592" lon="6.96246">
        <ele>2503.4104004</ele>
        <time>2013-06-26T13:07:55Z</time>
      </trkpt>
      <trkpt lat="45.90615" lon="6.963">
        <ele>2514.4655762</ele>
        <time>2013-06-26T13:09:32Z</time>
      </trkpt>
      <trkpt lat="45.90638" lon="6.96317">
        <ele>2524.0788574</ele>
        <time>2013-06-26T13:10:52Z</time>
      </trkpt>
      <trkpt lat="45.90687" lon="6.96367">
        <ele>2537.0563965</ele>
        <time>2013-06-26T13:13:02Z</time>
      </trkpt>
      <trkpt lat="45.90697" lon="6.96403">
        <ele>2543.7858887</ele>
        <time>2013-06-26T13:14:07Z</time>
      </trkpt>
      <trkpt lat="45.90725" lon="6.96429">
        <ele>2550.9956055</ele>
        <time>2013-06-26T13:15:14Z</time>
      </trkpt>
      <trkpt lat="45.90732" lon="6.96467">
        <ele>2560.1281738</ele>
        <time>2013-06-26T13:16:35Z</time>
      </trkpt>
      <trkpt lat="45.90762" lon="6.96495">
        <ele>2575.0285645</ele>
        <time>2013-06-26T13:18:34Z</time>
      </trkpt>
      <trkpt lat="45.90804" lon="6.96539">
        <ele>2588.4873047</ele>
        <time>2013-06-26T13:21:02Z</time>
      </trkpt>
      <trkpt lat="45.90826" lon="6.96545">
        <ele>2590.409668</ele>
        <time>2013-06-26T13:21:40Z</time>
      </trkpt>
      <trkpt lat="45.9086" lon="6.96588">
        <ele>2600.0229492</ele>
        <time>2013-06-26T13:23:20Z</time>
      </trkpt>
      <trkpt lat="45.9089" lon="6.96593">
        <ele>2612.5200195</ele>
        <time>2013-06-26T13:25:07Z</time>
      </trkpt>
      <trkpt lat="45.90932" lon="6.96642">
        <ele>2628.3818359</ele>
        <time>2013-06-26T13:27:24Z</time>
      </trkpt>
      <trkpt lat="45.91017" lon="6.9667">
        <ele>2653.8569336</ele>
        <time>2013-06-26T13:31:59Z</time>
      </trkpt>
      <trkpt lat="45.91027" lon="6.96625">
        <ele>2670.1992188</ele>
        <time>2013-06-26T13:34:02Z</time>
      </trkpt>
      <trkpt lat="45.91034" lon="6.96588">
        <ele>2679.3320313</ele>
        <time>2013-06-26T13:35:16Z</time>
      </trkpt>
      <trkpt lat="45.91023" lon="6.96548">
        <ele>2685.0996094</ele>
        <time>2013-06-26T13:37:37Z</time>
      </trkpt>
      <trkpt lat="45.91029" lon="6.96533">
        <ele>2686.5415039</ele>
        <time>2013-06-26T13:38:10Z</time>
      </trkpt>
      <trkpt lat="45.91022" lon="6.9655">
        <ele>2669.7182617</ele>
        <time>2013-06-27T01:01:22Z</time>
      </trkpt>
      <trkpt lat="45.91039" lon="6.96555">
        <ele>2673.0830078</ele>
        <time>2013-06-27T01:03:23Z</time>
      </trkpt>
      <trkpt lat="45.91048" lon="6.96563">
        <ele>2672.6020508</ele>
        <time>2013-06-27T01:03:37Z</time>
      </trkpt>
      <trkpt lat="45.91057" lon="6.9657">
        <ele>2668.2763672</ele>
        <time>2013-06-27T01:03:53Z</time>
      </trkpt>
      <trkpt lat="45.91074" lon="6.96624">
        <ele>2672.121582</ele>
        <time>2013-06-27T01:04:50Z</time>
      </trkpt>
      <trkpt lat="45.91084" lon="6.96592">
        <ele>2677.8901367</ele>
        <time>2013-06-27T01:05:39Z</time>
      </trkpt>
      <trkpt lat="45.9111" lon="6.96613">
        <ele>2686.5415039</ele>
        <time>2013-06-27T01:06:48Z</time>
      </trkpt>
      <trkpt lat="45.91172" lon="6.96664">
        <ele>2710.0942383</ele>
        <time>2013-06-27T01:09:51Z</time>
      </trkpt>
      <trkpt lat="45.91204" lon="6.96685">
        <ele>2720.1875</ele>
        <time>2013-06-27T01:11:07Z</time>
      </trkpt>
      <trkpt lat="45.91206" lon="6.96699">
        <ele>2723.0717773</ele>
        <time>2013-06-27T01:11:30Z</time>
      </trkpt>
      <trkpt lat="45.91213" lon="6.96715">
        <ele>2725.9555664</ele>
        <time>2013-06-27T01:11:53Z</time>
      </trkpt>
      <trkpt lat="45.91219" lon="6.96757">
        <ele>2731.2426758</ele>
        <time>2013-06-27T01:12:31Z</time>
      </trkpt>
      <trkpt lat="45.91274" lon="6.96666">
        <ele>2737.9716797</ele>
        <time>2013-06-27T01:13:30Z</time>
      </trkpt>
      <trkpt lat="45.91286" lon="6.96739">
        <ele>2751.4306641</ele>
        <time>2013-06-27T01:15:22Z</time>
      </trkpt>
      <trkpt lat="45.91278" lon="6.9668">
        <ele>2754.7954102</ele>
        <time>2013-06-27T01:15:45Z</time>
      </trkpt>
      <trkpt lat="45.91295" lon="6.9663">
        <ele>2758.6401367</ele>
        <time>2013-06-27T01:16:40Z</time>
      </trkpt>
      <trkpt lat="45.91298" lon="6.96636">
        <ele>2762.9663086</ele>
        <time>2013-06-27T01:16:58Z</time>
      </trkpt>
      <trkpt lat="45.9133" lon="6.96631">
        <ele>2765.3696289</ele>
        <time>2013-06-27T01:17:26Z</time>
      </trkpt>
      <trkpt lat="45.91333" lon="6.9661">
        <ele>2770.1762695</ele>
        <time>2013-06-27T01:18:05Z</time>
      </trkpt>
      <trkpt lat="45.9133" lon="6.96631">
        <ele>2776.4248047</ele>
        <time>2013-06-27T01:18:52Z</time>
      </trkpt>
      <trkpt lat="45.91326" lon="6.96647">
        <ele>2778.3476563</ele>
        <time>2013-06-27T01:19:10Z</time>
      </trkpt>
      <trkpt lat="45.91346" lon="6.96646">
        <ele>2787.9604492</ele>
        <time>2013-06-27T01:20:06Z</time>
      </trkpt>
      <trkpt lat="45.91429" lon="6.96647">
        <ele>2803.3413086</ele>
        <time>2013-06-27T01:22:48Z</time>
      </trkpt>
      <trkpt lat="45.91444" lon="6.96688">
        <ele>2810.5517578</ele>
        <time>2013-06-27T01:23:38Z</time>
      </trkpt>
      <trkpt lat="45.9148" lon="6.967">
        <ele>2818.2421875</ele>
        <time>2013-06-27T01:24:54Z</time>
      </trkpt>
      <trkpt lat="45.91492" lon="6.96708">
        <ele>2819.2036133</ele>
        <time>2013-06-27T01:25:16Z</time>
      </trkpt>
      <trkpt lat="45.91556" lon="6.96691">
        <ele>2838.4301758</ele>
        <time>2013-06-27T01:28:07Z</time>
      </trkpt>
      <trkpt lat="45.91581" lon="6.96658">
        <ele>2843.2363281</ele>
        <time>2013-06-27T01:28:52Z</time>
      </trkpt>
      <trkpt lat="45.91585" lon="6.9668">
        <ele>2846.6010742</ele>
        <time>2013-06-27T01:29:20Z</time>
      </trkpt>
      <trkpt lat="45.91607" lon="6.96685">
        <ele>2856.2143555</ele>
        <time>2013-06-27T01:30:19Z</time>
      </trkpt>
      <trkpt lat="45.91706" lon="6.96689">
        <ele>2870.1538086</ele>
        <time>2013-06-27T01:32:57Z</time>
      </trkpt>
      <trkpt lat="45.91718" lon="6.96713">
        <ele>2875.9213867</ele>
        <time>2013-06-27T01:33:45Z</time>
      </trkpt>
      <trkpt lat="45.91729" lon="6.96709">
        <ele>2878.8051758</ele>
        <time>2013-06-27T01:34:08Z</time>
      </trkpt>
      <trkpt lat="45.9176" lon="6.96721">
        <ele>2878.324707</ele>
        <time>2013-06-27T01:34:47Z</time>
      </trkpt>
      <trkpt lat="45.91771" lon="6.96725">
        <ele>2874.9599609</ele>
        <time>2013-06-27T01:34:58Z</time>
      </trkpt>
      <trkpt lat="45.91776" lon="6.96722">
        <ele>2873.5180664</ele>
        <time>2013-06-27T01:35:02Z</time>
      </trkpt>
      <trkpt lat="45.91773" lon="6.96745">
        <ele>2873.5180664</ele>
        <time>2013-06-27T01:35:23Z</time>
      </trkpt>
      <trkpt lat="45.918" lon="6.96693">
        <ele>2875.9213867</ele>
        <time>2013-06-27T01:36:02Z</time>
      </trkpt>
      <trkpt lat="45.91825" lon="6.96694">
        <ele>2877.3632813</ele>
        <time>2013-06-27T01:36:35Z</time>
      </trkpt>
      <trkpt lat="45.91922" lon="6.96858">
        <ele>2891.7827148</ele>
        <time>2013-06-27T01:40:48Z</time>
      </trkpt>
      <trkpt lat="45.91955" lon="6.96928">
        <ele>2892.7441406</ele>
        <time>2013-06-27T01:41:56Z</time>
      </trkpt>
      <trkpt lat="45.91973" lon="6.96946">
        <ele>2895.1474609</ele>
        <time>2013-06-27T01:42:25Z</time>
      </trkpt>
      <trkpt lat="45.92013" lon="6.97035">
        <ele>2910.5288086</ele>
        <time>2013-06-27T01:44:55Z</time>
      </trkpt>
      <trkpt lat="45.92055" lon="6.97214">
        <ele>2938.8876953</ele>
        <time>2013-06-27T01:49:22Z</time>
      </trkpt>
      <trkpt lat="45.92105" lon="6.97308">
        <ele>2960.0366211</ele>
        <time>2013-06-27T01:52:15Z</time>
      </trkpt>
      <trkpt lat="45.92166" lon="6.97456">
        <ele>2990.3178711</ele>
        <time>2013-06-27T01:56:52Z</time>
      </trkpt>
      <trkpt lat="45.92174" lon="6.97533">
        <ele>3007.1411133</ele>
        <time>2013-06-27T01:59:06Z</time>
      </trkpt>
      <trkpt lat="45.92193" lon="6.97613">
        <ele>3019.6381836</ele>
        <time>2013-06-27T02:01:07Z</time>
      </trkpt>
      <trkpt lat="45.92235" lon="6.97669">
        <ele>3035.980957</ele>
        <time>2013-06-27T02:03:26Z</time>
      </trkpt>
      <trkpt lat="45.92246" lon="6.97687">
        <ele>3036.9423828</ele>
        <time>2013-06-27T02:03:58Z</time>
      </trkpt>
      <trkpt lat="45.92245" lon="6.97684">
        <ele>3040.3066406</ele>
        <time>2013-06-27T02:04:08Z</time>
      </trkpt>
      <trkpt lat="45.92261" lon="6.97724">
        <ele>3043.1904297</ele>
        <time>2013-06-27T02:04:49Z</time>
      </trkpt>
      <trkpt lat="45.9227" lon="6.97759">
        <ele>3049.9199219</ele>
        <time>2013-06-27T02:05:51Z</time>
      </trkpt>
      <trkpt lat="45.92275" lon="6.97801">
        <ele>3058.5712891</ele>
        <time>2013-06-27T02:07:02Z</time>
      </trkpt>
      <trkpt lat="45.92302" lon="6.9787">
        <ele>3074.9140625</ele>
        <time>2013-06-27T02:09:18Z</time>
      </trkpt>
      <trkpt lat="45.92308" lon="6.97913">
        <ele>3086.9306641</ele>
        <time>2013-06-27T02:10:54Z</time>
      </trkpt>
      <trkpt lat="45.92336" lon="6.97965">
        <ele>3109.5214844</ele>
        <time>2013-06-27T02:13:41Z</time>
      </trkpt>
      <trkpt lat="45.92376" lon="6.98151">
        <ele>3163.3554688</ele>
        <time>2013-06-27T02:20:27Z</time>
      </trkpt>
      <trkpt lat="45.92376" lon="6.98201">
        <ele>3175.8525391</ele>
        <time>2013-06-27T02:22:10Z</time>
      </trkpt>
      <trkpt lat="45.92384" lon="6.98217">
        <ele>3179.6977539</ele>
        <time>2013-06-27T02:22:37Z</time>
      </trkpt>
      <trkpt lat="45.9242" lon="6.98217">
        <ele>3198.4438477</ele>
        <time>2013-06-27T02:25:26Z</time>
      </trkpt>
      <trkpt lat="45.92467" lon="6.98214">
        <ele>3220.0732422</ele>
        <time>2013-06-27T02:28:25Z</time>
      </trkpt>
      <trkpt lat="45.92483" lon="6.98217">
        <ele>3225.8413086</ele>
        <time>2013-06-27T02:29:14Z</time>
      </trkpt>
      <trkpt lat="45.92485" lon="6.98222">
        <ele>3229.6865234</ele>
        <time>2013-06-27T02:29:36Z</time>
      </trkpt>
      <trkpt lat="45.92481" lon="6.98239">
        <ele>3233.0512695</ele>
        <time>2013-06-27T02:30:04Z</time>
      </trkpt>
      <trkpt lat="45.92483" lon="6.98272">
        <ele>3239.7802734</ele>
        <time>2013-06-27T02:30:58Z</time>
      </trkpt>
      <trkpt lat="45.92513" lon="6.98357">
        <ele>3257.5649414</ele>
        <time>2013-06-27T02:33:19Z</time>
      </trkpt>
      <trkpt lat="45.92522" lon="6.98442">
        <ele>3270.5424805</ele>
        <time>2013-06-27T02:35:35Z</time>
      </trkpt>
      <trkpt lat="45.92543" lon="6.98453">
        <ele>3273.4262695</ele>
        <time>2013-06-27T02:36:12Z</time>
      </trkpt>
      <trkpt lat="45.92545" lon="6.98468">
        <ele>3276.3100586</ele>
        <time>2013-06-27T02:36:34Z</time>
      </trkpt>
      <trkpt lat="45.92582" lon="6.98526">
        <ele>3284.4819336</ele>
        <time>2013-06-27T02:37:58Z</time>
      </trkpt>
      <trkpt lat="45.92612" lon="6.98593">
        <ele>3294.5756836</ele>
        <time>2013-06-27T02:39:54Z</time>
      </trkpt>
      <trkpt lat="45.92612" lon="6.98647">
        <ele>3297.9399414</ele>
        <time>2013-06-27T02:40:27Z</time>
      </trkpt>
      <trkpt lat="45.9264" lon="6.98659">
        <ele>3311.8789063</ele>
        <time>2013-06-27T02:42:39Z</time>
      </trkpt>
      <trkpt lat="45.92637" lon="6.98669">
        <ele>3324.3764648</ele>
        <time>2013-06-27T02:44:17Z</time>
      </trkpt>
      <trkpt lat="45.92634" lon="6.98683">
        <ele>3331.1054688</ele>
        <time>2013-06-27T02:45:18Z</time>
      </trkpt>
      <trkpt lat="45.92644" lon="6.98691">
        <ele>3337.3540039</ele>
        <time>2013-06-27T02:46:12Z</time>
      </trkpt>
      <trkpt lat="45.92704" lon="6.98736">
        <ele>3345.0444336</ele>
        <time>2013-06-27T02:47:54Z</time>
      </trkpt>
      <trkpt lat="45.9266" lon="6.98716">
        <ele>3348.8901367</ele>
        <time>2013-06-27T02:48:58Z</time>
      </trkpt>
      <trkpt lat="45.92665" lon="6.98752">
        <ele>3355.1386719</ele>
        <time>2013-06-27T02:50:02Z</time>
      </trkpt>
      <trkpt lat="45.92667" lon="6.98752">
        <ele>3358.5029297</ele>
        <time>2013-06-27T02:50:31Z</time>
      </trkpt>
      <trkpt lat="45.92678" lon="6.98754">
        <ele>3361.387207</ele>
        <time>2013-06-27T02:51:10Z</time>
      </trkpt>
      <trkpt lat="45.92654" lon="6.98727">
        <ele>3364.7514648</ele>
        <time>2013-06-27T02:51:45Z</time>
      </trkpt>
      <trkpt lat="45.92647" lon="6.98768">
        <ele>3376.7680664</ele>
        <time>2013-06-27T02:54:02Z</time>
      </trkpt>
      <trkpt lat="45.92643" lon="6.98746">
        <ele>3377.7294922</ele>
        <time>2013-06-27T02:56:46Z</time>
      </trkpt>
      <trkpt lat="45.92662" lon="6.98755">
        <ele>3380.1328125</ele>
        <time>2013-06-27T03:01:14Z</time>
      </trkpt>
      <trkpt lat="45.92651" lon="6.98752">
        <ele>3379.6518555</ele>
        <time>2013-06-27T03:01:52Z</time>
      </trkpt>
      <trkpt lat="45.92673" lon="6.98752">
        <ele>3380.6137695</ele>
        <time>2013-06-27T03:04:00Z</time>
      </trkpt>
      <trkpt lat="45.92649" lon="6.9874">
        <ele>3383.4975586</ele>
        <time>2013-06-27T03:07:52Z</time>
      </trkpt>
      <trkpt lat="45.92672" lon="6.98763">
        <ele>3399.3588867</ele>
        <time>2013-06-27T03:11:46Z</time>
      </trkpt>
      <trkpt lat="45.92679" lon="6.98746">
        <ele>3403.2041016</ele>
        <time>2013-06-27T03:12:59Z</time>
      </trkpt>
      <trkpt lat="45.92676" lon="6.98754">
        <ele>3411.855957</ele>
        <time>2013-06-27T03:14:53Z</time>
      </trkpt>
      <trkpt lat="45.92681" lon="6.98801">
        <ele>3444.5415039</ele>
        <time>2013-06-27T03:21:22Z</time>
      </trkpt>
      <trkpt lat="45.92698" lon="6.98844">
        <ele>3487.3198242</ele>
        <time>2013-06-27T03:29:22Z</time>
      </trkpt>
      <trkpt lat="45.92712" lon="6.98858">
        <ele>3504.1425781</ele>
        <time>2013-06-27T03:33:08Z</time>
      </trkpt>
      <trkpt lat="45.92719" lon="6.98874">
        <ele>3507.5073242</ele>
        <time>2013-06-27T03:34:23Z</time>
      </trkpt>
      <trkpt lat="45.92724" lon="6.98854">
        <ele>3509.9111328</ele>
        <time>2013-06-27T03:35:15Z</time>
      </trkpt>
      <trkpt lat="45.92733" lon="6.98858">
        <ele>3511.8334961</ele>
        <time>2013-06-27T03:35:48Z</time>
      </trkpt>
      <trkpt lat="45.92736" lon="6.98867">
        <ele>3531.0595703</ele>
        <time>2013-06-27T03:40:06Z</time>
      </trkpt>
      <trkpt lat="45.9276" lon="6.98909">
        <ele>3578.6450195</ele>
        <time>2013-06-27T03:52:04Z</time>
      </trkpt>
      <trkpt lat="45.9276" lon="6.98913">
        <ele>3579.6064453</ele>
        <time>2013-06-27T03:52:33Z</time>
      </trkpt>
      <trkpt lat="45.92792" lon="6.98924">
        <ele>3615.6557617</ele>
        <time>2013-06-27T04:01:14Z</time>
      </trkpt>
      <trkpt lat="45.92811" lon="6.9893">
        <ele>3625.7495117</ele>
        <time>2013-06-27T04:02:50Z</time>
      </trkpt>
      <trkpt lat="45.92823" lon="6.98931">
        <ele>3627.671875</ele>
        <time>2013-06-27T04:03:46Z</time>
      </trkpt>
      <trkpt lat="45.92826" lon="6.99006">
        <ele>3644.0146484</ele>
        <time>2013-06-27T04:13:03Z</time>
      </trkpt>
      <trkpt lat="45.92848" lon="6.99012">
        <ele>3656.03125</ele>
        <time>2013-06-27T04:15:46Z</time>
      </trkpt>
      <trkpt lat="45.92853" lon="6.98996">
        <ele>3689.6772461</ele>
        <time>2013-06-27T04:23:53Z</time>
      </trkpt>
      <trkpt lat="45.92847" lon="6.9899">
        <ele>3693.5224609</ele>
        <time>2013-06-27T04:26:03Z</time>
      </trkpt>
      <trkpt lat="45.92851" lon="6.98984">
        <ele>3698.8095703</ele>
        <time>2013-06-27T04:26:41Z</time>
      </trkpt>
      <trkpt lat="45.92871" lon="6.98978">
        <ele>3698.8095703</ele>
        <time>2013-06-27T04:27:08Z</time>
      </trkpt>
      <trkpt lat="45.92878" lon="6.98984">
        <ele>3701.2133789</ele>
        <time>2013-06-27T04:27:48Z</time>
      </trkpt>
      <trkpt lat="45.92882" lon="6.98966">
        <ele>3707.4619141</ele>
        <time>2013-06-27T04:29:39Z</time>
      </trkpt>
      <trkpt lat="45.92885" lon="6.98963">
        <ele>3706.980957</ele>
        <time>2013-06-27T04:30:03Z</time>
      </trkpt>
      <trkpt lat="45.92876" lon="6.98974">
        <ele>3723.3232422</ele>
        <time>2013-06-27T04:34:31Z</time>
      </trkpt>
      <trkpt lat="45.92888" lon="6.9897">
        <ele>3738.7045898</ele>
        <time>2013-06-27T04:45:06Z</time>
      </trkpt>
      <trkpt lat="45.92895" lon="6.98975">
        <ele>3742.0693359</ele>
        <time>2013-06-27T04:52:17Z</time>
      </trkpt>
      <trkpt lat="45.92903" lon="6.98977">
        <ele>3742.0693359</ele>
        <time>2013-06-27T04:54:15Z</time>
      </trkpt>
      <trkpt lat="45.92904" lon="6.98977">
        <ele>3738.2241211</ele>
        <time>2013-06-27T04:54:23Z</time>
      </trkpt>
      <trkpt lat="45.92899" lon="6.98983">
        <ele>3743.5112305</ele>
        <time>2013-06-27T04:55:53Z</time>
      </trkpt>
      <trkpt lat="45.92899" lon="6.98984">
        <ele>3738.2241211</ele>
        <time>2013-06-27T04:56:03Z</time>
      </trkpt>
      <trkpt lat="45.92885" lon="6.9897">
        <ele>3745.4335938</ele>
        <time>2013-06-27T05:13:48Z</time>
      </trkpt>
      <trkpt lat="45.92896" lon="6.98963">
        <ele>3746.3950195</ele>
        <time>2013-06-27T05:15:54Z</time>
      </trkpt>
      <trkpt lat="45.92897" lon="6.98963">
        <ele>3739.6660156</ele>
        <time>2013-06-27T05:16:08Z</time>
      </trkpt>
      <trkpt lat="45.92897" lon="6.98963">
        <ele>3745.9145508</ele>
        <time>2013-06-27T05:16:09Z</time>
      </trkpt>
      <trkpt lat="45.92897" lon="6.98963">
        <ele>3744.953125</ele>
        <time>2013-06-27T05:16:10Z</time>
      </trkpt>
      <trkpt lat="45.92897" lon="6.98963">
        <ele>3743.0302734</ele>
        <time>2013-06-27T05:16:12Z</time>
      </trkpt>
      <trkpt lat="45.92882" lon="6.98974">
        <ele>3743.0302734</ele>
        <time>2013-06-27T05:16:54Z</time>
      </trkpt>
      <trkpt lat="45.92896" lon="6.98967">
        <ele>3747.3564453</ele>
        <time>2013-06-27T05:18:32Z</time>
      </trkpt>
      <trkpt lat="45.92887" lon="6.98981">
        <ele>3747.3564453</ele>
        <time>2013-06-27T05:19:16Z</time>
      </trkpt>
      <trkpt lat="45.92912" lon="6.98951">
        <ele>3752.6435547</ele>
        <time>2013-06-27T05:20:55Z</time>
      </trkpt>
      <trkpt lat="45.92898" lon="6.98981">
        <ele>3763.6987305</ele>
        <time>2013-06-27T05:23:07Z</time>
      </trkpt>
      <trkpt lat="45.92894" lon="6.9899">
        <ele>3763.6987305</ele>
        <time>2013-06-27T05:23:53Z</time>
      </trkpt>
      <trkpt lat="45.92887" lon="6.98997">
        <ele>3766.1020508</ele>
        <time>2013-06-27T05:24:15Z</time>
      </trkpt>
      <trkpt lat="45.92889" lon="6.98995">
        <ele>3768.9863281</ele>
        <time>2013-06-27T05:24:52Z</time>
      </trkpt>
      <trkpt lat="45.92906" lon="6.9899">
        <ele>3770.9086914</ele>
        <time>2013-06-27T05:25:18Z</time>
      </trkpt>
      <trkpt lat="45.929" lon="6.99001">
        <ele>3770.9086914</ele>
        <time>2013-06-27T05:26:06Z</time>
      </trkpt>
      <trkpt lat="45.92938" lon="6.98963">
        <ele>3781.4829102</ele>
        <time>2013-06-27T05:31:20Z</time>
      </trkpt>
      <trkpt lat="45.92939" lon="6.98962">
        <ele>3779.0800781</ele>
        <time>2013-06-27T05:31:36Z</time>
      </trkpt>
      <trkpt lat="45.92937" lon="6.98962">
        <ele>3789.1733398</ele>
        <time>2013-06-27T05:34:38Z</time>
      </trkpt>
      <trkpt lat="45.9294" lon="6.98954">
        <ele>3791.5766602</ele>
        <time>2013-06-27T05:35:35Z</time>
      </trkpt>
      <trkpt lat="45.92931" lon="6.98956">
        <ele>3793.9799805</ele>
        <time>2013-06-27T05:37:03Z</time>
      </trkpt>
      <trkpt lat="45.92917" lon="6.98971">
        <ele>3794.9414063</ele>
        <time>2013-06-27T05:40:16Z</time>
      </trkpt>
      <trkpt lat="45.92926" lon="6.98958">
        <ele>3801.1904297</ele>
        <time>2013-06-27T05:50:59Z</time>
      </trkpt>
      <trkpt lat="45.92925" lon="6.98948">
        <ele>3802.1518555</ele>
        <time>2013-06-27T05:51:13Z</time>
      </trkpt>
      <trkpt lat="45.92928" lon="6.9895">
        <ele>3809.8422852</ele>
        <time>2013-06-27T05:59:25Z</time>
      </trkpt>
      <trkpt lat="45.92936" lon="6.98953">
        <ele>3814.6484375</ele>
        <time>2013-06-27T06:04:27Z</time>
      </trkpt>
      <trkpt lat="45.92936" lon="6.98967">
        <ele>3815.6098633</ele>
        <time>2013-06-27T06:05:05Z</time>
      </trkpt>
      <trkpt lat="45.92932" lon="6.98957">
        <ele>3815.6098633</ele>
        <time>2013-06-27T06:05:32Z</time>
      </trkpt>
      <trkpt lat="45.9295" lon="6.98948">
        <ele>3858.3881836</ele>
        <time>2013-06-27T06:16:23Z</time>
      </trkpt>
      <trkpt lat="45.92976" lon="6.98919">
        <ele>3899.2446289</ele>
        <time>2013-06-27T06:24:44Z</time>
      </trkpt>
      <trkpt lat="45.92996" lon="6.989">
        <ele>3920.3935547</ele>
        <time>2013-06-27T06:28:54Z</time>
      </trkpt>
      <trkpt lat="45.93028" lon="6.989">
        <ele>3931.9296875</ele>
        <time>2013-06-27T06:31:36Z</time>
      </trkpt>
      <trkpt lat="45.93059" lon="6.9893">
        <ele>3963.1723633</ele>
        <time>2013-06-27T06:38:39Z</time>
      </trkpt>
      <trkpt lat="45.93066" lon="6.98926">
        <ele>3982.3984375</ele>
        <time>2013-06-27T06:46:54Z</time>
      </trkpt>
      <trkpt lat="45.93072" lon="6.98905">
        <ele>3992.4926758</ele>
        <time>2013-06-27T06:49:47Z</time>
      </trkpt>
      <trkpt lat="45.93075" lon="6.9891">
        <ele>3993.9345703</ele>
        <time>2013-06-27T06:50:46Z</time>
      </trkpt>
      <trkpt lat="45.93081" lon="6.98909">
        <ele>3989.6088867</ele>
        <time>2013-06-27T06:53:18Z</time>
      </trkpt>
      <trkpt lat="45.93063" lon="6.98907">
        <ele>3992.012207</ele>
        <time>2013-06-27T06:55:36Z</time>
      </trkpt>
      <trkpt lat="45.9307" lon="6.98897">
        <ele>3995.8574219</ele>
        <time>2013-06-27T06:58:09Z</time>
      </trkpt>
      <trkpt lat="45.93081" lon="6.98902">
        <ele>3990.5703125</ele>
        <time>2013-06-27T07:02:53Z</time>
      </trkpt>
      <trkpt lat="45.93075" lon="6.98924">
        <ele>3996.3378906</ele>
        <time>2013-06-27T07:05:36Z</time>
      </trkpt>
      <trkpt lat="45.93076" lon="6.98923">
        <ele>3996.3378906</ele>
        <time>2013-06-27T07:05:44Z</time>
      </trkpt>
      <trkpt lat="45.93078" lon="6.98923">
        <ele>3995.3764648</ele>
        <time>2013-06-27T07:05:56Z</time>
      </trkpt>
      <trkpt lat="45.93064" lon="6.98934">
        <ele>3992.4926758</ele>
        <time>2013-06-27T07:07:23Z</time>
      </trkpt>
      <trkpt lat="45.93081" lon="6.98896">
        <ele>3992.4926758</ele>
        <time>2013-06-27T07:12:39Z</time>
      </trkpt>
      <trkpt lat="45.93069" lon="6.98908">
        <ele>3992.9736328</ele>
        <time>2013-06-27T07:13:18Z</time>
      </trkpt>
      <trkpt lat="45.93064" lon="6.98938">
        <ele>3980.4760742</ele>
        <time>2013-06-27T07:21:09Z</time>
      </trkpt>
      <trkpt lat="45.93056" lon="6.98926">
        <ele>3982.3984375</ele>
        <time>2013-06-27T07:22:20Z</time>
      </trkpt>
      <trkpt lat="45.93057" lon="6.98924">
        <ele>3984.3212891</ele>
        <time>2013-06-27T07:22:32Z</time>
      </trkpt>
      <trkpt lat="45.93058" lon="6.98923">
        <ele>3981.4370117</ele>
        <time>2013-06-27T07:22:43Z</time>
      </trkpt>
      <trkpt lat="45.9306" lon="6.98925">
        <ele>3982.3984375</ele>
        <time>2013-06-27T07:23:06Z</time>
      </trkpt>
      <trkpt lat="45.93064" lon="6.98931">
        <ele>3975.6694336</ele>
        <time>2013-06-27T07:24:15Z</time>
      </trkpt>
      <trkpt lat="45.93064" lon="6.98924">
        <ele>3973.2661133</ele>
        <time>2013-06-27T07:26:03Z</time>
      </trkpt>
      <trkpt lat="45.93063" lon="6.98925">
        <ele>3975.1889648</ele>
        <time>2013-06-27T07:27:43Z</time>
      </trkpt>
      <trkpt lat="45.93072" lon="6.98937">
        <ele>3973.746582</ele>
        <time>2013-06-27T07:28:19Z</time>
      </trkpt>
      <trkpt lat="45.93074" lon="6.98939">
        <ele>3968.9404297</ele>
        <time>2013-06-27T07:28:57Z</time>
      </trkpt>
      <trkpt lat="45.93074" lon="6.98938">
        <ele>3972.3046875</ele>
        <time>2013-06-27T07:28:58Z</time>
      </trkpt>
      <trkpt lat="45.93075" lon="6.98936">
        <ele>3971.8242188</ele>
        <time>2013-06-27T07:29:20Z</time>
      </trkpt>
      <trkpt lat="45.93073" lon="6.9893">
        <ele>3971.8242188</ele>
        <time>2013-06-27T07:30:09Z</time>
      </trkpt>
      <trkpt lat="45.93061" lon="6.9893">
        <ele>3975.1889648</ele>
        <time>2013-06-27T07:46:12Z</time>
      </trkpt>
      <trkpt lat="45.93052" lon="6.98943">
        <ele>3967.4985352</ele>
        <time>2013-06-27T07:48:07Z</time>
      </trkpt>
      <trkpt lat="45.93052" lon="6.98948">
        <ele>3961.7304688</ele>
        <time>2013-06-27T07:48:30Z</time>
      </trkpt>
      <trkpt lat="45.93053" lon="6.98948">
        <ele>3960.2885742</ele>
        <time>2013-06-27T07:48:36Z</time>
      </trkpt>
      <trkpt lat="45.93053" lon="6.98948">
        <ele>3950.6748047</ele>
        <time>2013-06-27T07:48:37Z</time>
      </trkpt>
      <trkpt lat="45.93053" lon="6.98948">
        <ele>3957.8852539</ele>
        <time>2013-06-27T07:48:38Z</time>
      </trkpt>
      <trkpt lat="45.93053" lon="6.98948">
        <ele>3952.1171875</ele>
        <time>2013-06-27T07:48:41Z</time>
      </trkpt>
      <trkpt lat="45.93053" lon="6.98948">
        <ele>3957.4047852</ele>
        <time>2013-06-27T07:48:42Z</time>
      </trkpt>
      <trkpt lat="45.93053" lon="6.98948">
        <ele>3952.5976563</ele>
        <time>2013-06-27T07:48:44Z</time>
      </trkpt>
      <trkpt lat="45.93052" lon="6.98948">
        <ele>3954.5205078</ele>
        <time>2013-06-27T07:48:47Z</time>
      </trkpt>
      <trkpt lat="45.93047" lon="6.98947">
        <ele>3951.1557617</ele>
        <time>2013-06-27T07:48:50Z</time>
      </trkpt>
      <trkpt lat="45.93044" lon="6.98949">
        <ele>3953.559082</ele>
        <time>2013-06-27T07:48:54Z</time>
      </trkpt>
      <trkpt lat="45.93041" lon="6.98949">
        <ele>3949.7138672</ele>
        <time>2013-06-27T07:49:00Z</time>
      </trkpt>
      <trkpt lat="45.93047" lon="6.9895">
        <ele>3950.1943359</ele>
        <time>2013-06-27T07:50:01Z</time>
      </trkpt>
      <trkpt lat="45.93048" lon="6.98958">
        <ele>3949.2329102</ele>
        <time>2013-06-27T07:50:40Z</time>
      </trkpt>
      <trkpt lat="45.93061" lon="6.98929">
        <ele>3949.7138672</ele>
        <time>2013-06-27T07:52:43Z</time>
      </trkpt>
      <trkpt lat="45.93056" lon="6.98941">
        <ele>3949.7138672</ele>
        <time>2013-06-27T07:53:21Z</time>
      </trkpt>
      <trkpt lat="45.93062" lon="6.98945">
        <ele>3947.7910156</ele>
        <time>2013-06-27T07:53:53Z</time>
      </trkpt>
      <trkpt lat="45.93077" lon="6.98933">
        <ele>3947.7910156</ele>
        <time>2013-06-27T07:54:46Z</time>
      </trkpt>
      <trkpt lat="45.93073" lon="6.98919">
        <ele>3947.7910156</ele>
        <time>2013-06-27T07:55:26Z</time>
      </trkpt>
      <trkpt lat="45.93091" lon="6.98937">
        <ele>3946.8300781</ele>
        <time>2013-06-27T07:57:17Z</time>
      </trkpt>
      <trkpt lat="45.93085" lon="6.98921">
        <ele>3947.3105469</ele>
        <time>2013-06-27T07:58:01Z</time>
      </trkpt>
      <trkpt lat="45.93076" lon="6.98938">
        <ele>3945.8686523</ele>
        <time>2013-06-27T07:58:41Z</time>
      </trkpt>
      <trkpt lat="45.93085" lon="6.98924">
        <ele>3947.7910156</ele>
        <time>2013-06-27T08:01:15Z</time>
      </trkpt>
      <trkpt lat="45.93076" lon="6.98924">
        <ele>3946.8300781</ele>
        <time>2013-06-27T08:03:19Z</time>
      </trkpt>
      <trkpt lat="45.9309" lon="6.98962">
        <ele>3947.7910156</ele>
        <time>2013-06-27T08:04:02Z</time>
      </trkpt>
      <trkpt lat="45.9307" lon="6.98944">
        <ele>3946.3491211</ele>
        <time>2013-06-27T08:04:49Z</time>
      </trkpt>
      <trkpt lat="45.93074" lon="6.98925">
        <ele>3946.8300781</ele>
        <time>2013-06-27T08:05:26Z</time>
      </trkpt>
      <trkpt lat="45.93047" lon="6.98962">
        <ele>3946.8300781</ele>
        <time>2013-06-27T08:05:58Z</time>
      </trkpt>
      <trkpt lat="45.93069" lon="6.98932">
        <ele>3947.7910156</ele>
        <time>2013-06-27T08:07:25Z</time>
      </trkpt>
      <trkpt lat="45.93045" lon="6.98962">
        <ele>3932.4101563</ele>
        <time>2013-06-27T08:08:11Z</time>
      </trkpt>
      <trkpt lat="45.93047" lon="6.98958">
        <ele>3931.4492188</ele>
        <time>2013-06-27T08:08:17Z</time>
      </trkpt>
      <trkpt lat="45.93045" lon="6.98964">
        <ele>3925.2006836</ele>
        <time>2013-06-27T08:08:29Z</time>
      </trkpt>
      <trkpt lat="45.93041" lon="6.98969">
        <ele>3926.6425781</ele>
        <time>2013-06-27T08:08:35Z</time>
      </trkpt>
      <trkpt lat="45.93051" lon="6.98986">
        <ele>3925.6811523</ele>
        <time>2013-06-27T08:09:55Z</time>
      </trkpt>
      <trkpt lat="45.93061" lon="6.98976">
        <ele>3924.7197266</ele>
        <time>2013-06-27T08:11:38Z</time>
      </trkpt>
      <trkpt lat="45.93046" lon="6.98979">
        <ele>3926.1616211</ele>
        <time>2013-06-27T08:12:41Z</time>
      </trkpt>
      <trkpt lat="45.93051" lon="6.9896">
        <ele>3930.487793</ele>
        <time>2013-06-27T08:14:55Z</time>
      </trkpt>
      <trkpt lat="45.93047" lon="6.9895">
        <ele>3931.4492188</ele>
        <time>2013-06-27T08:15:32Z</time>
      </trkpt>
      <trkpt lat="45.93048" lon="6.9897">
        <ele>3936.2553711</ele>
        <time>2013-06-27T08:25:58Z</time>
      </trkpt>
      <trkpt lat="45.93054" lon="6.98957">
        <ele>3932.4101563</ele>
        <time>2013-06-27T08:32:36Z</time>
      </trkpt>
      <trkpt lat="45.93023" lon="6.9898">
        <ele>3912.703125</ele>
        <time>2013-06-27T08:34:07Z</time>
      </trkpt>
      <trkpt lat="45.93031" lon="6.98997">
        <ele>3911.7416992</ele>
        <time>2013-06-27T08:35:43Z</time>
      </trkpt>
      <trkpt lat="45.93008" lon="6.98966">
        <ele>3911.2612305</ele>
        <time>2013-06-27T08:38:31Z</time>
      </trkpt>
      <trkpt lat="45.93039" lon="6.98978">
        <ele>3912.222168</ele>
        <time>2013-06-27T08:42:05Z</time>
      </trkpt>
      <trkpt lat="45.93045" lon="6.98965">
        <ele>3910.7802734</ele>
        <time>2013-06-27T08:48:51Z</time>
      </trkpt>
      <trkpt lat="45.93061" lon="6.98983">
        <ele>3911.2612305</ele>
        <time>2013-06-27T08:50:15Z</time>
      </trkpt>
      <trkpt lat="45.93055" lon="6.98969">
        <ele>3911.7416992</ele>
        <time>2013-06-27T08:50:31Z</time>
      </trkpt>
      <trkpt lat="45.93058" lon="6.99021">
        <ele>3888.1894531</ele>
        <time>2013-06-27T08:51:47Z</time>
      </trkpt>
      <trkpt lat="45.92992" lon="6.98969">
        <ele>3889.1503906</ele>
        <time>2013-06-27T08:52:43Z</time>
      </trkpt>
      <trkpt lat="45.93025" lon="6.98989">
        <ele>3888.1894531</ele>
        <time>2013-06-27T08:55:42Z</time>
      </trkpt>
      <trkpt lat="45.93033" lon="6.99">
        <ele>3882.4213867</ele>
        <time>2013-06-27T08:57:23Z</time>
      </trkpt>
      <trkpt lat="45.93013" lon="6.99005">
        <ele>3878.5761719</ele>
        <time>2013-06-27T09:00:23Z</time>
      </trkpt>
      <trkpt lat="45.9303" lon="6.99043">
        <ele>3877.1342773</ele>
        <time>2013-06-27T09:06:46Z</time>
      </trkpt>
      <trkpt lat="45.93076" lon="6.99062">
        <ele>3876.6538086</ele>
        <time>2013-06-27T09:08:38Z</time>
      </trkpt>
      <trkpt lat="45.9302" lon="6.99017">
        <ele>3880.0180664</ele>
        <time>2013-06-27T09:11:08Z</time>
      </trkpt>
      <trkpt lat="45.92992" lon="6.99022">
        <ele>3861.2729492</ele>
        <time>2013-06-27T09:12:42Z</time>
      </trkpt>
      <trkpt lat="45.93013" lon="6.99015">
        <ele>3860.7919922</ele>
        <time>2013-06-27T09:17:57Z</time>
      </trkpt>
      <trkpt lat="45.93002" lon="6.99023">
        <ele>3860.3115234</ele>
        <time>2013-06-27T09:21:04Z</time>
      </trkpt>
      <trkpt lat="45.93" lon="6.99023">
        <ele>3856.9462891</ele>
        <time>2013-06-27T09:21:09Z</time>
      </trkpt>
      <trkpt lat="45.92997" lon="6.9903">
        <ele>3856.4658203</ele>
        <time>2013-06-27T09:21:23Z</time>
      </trkpt>
      <trkpt lat="45.92988" lon="6.99039">
        <ele>3848.2949219</ele>
        <time>2013-06-27T09:21:59Z</time>
      </trkpt>
      <trkpt lat="45.92988" lon="6.99039">
        <ele>3844.9301758</ele>
        <time>2013-06-27T09:22:00Z</time>
      </trkpt>
      <trkpt lat="45.93008" lon="6.99044">
        <ele>3843.96875</ele>
        <time>2013-06-27T09:25:32Z</time>
      </trkpt>
      <trkpt lat="45.93013" lon="6.99025">
        <ele>3843.96875</ele>
        <time>2013-06-27T09:26:04Z</time>
      </trkpt>
      <trkpt lat="45.93005" lon="6.99043">
        <ele>3844.449707</ele>
        <time>2013-06-27T09:26:58Z</time>
      </trkpt>
      <trkpt lat="45.93015" lon="6.9903">
        <ele>3842.5268555</ele>
        <time>2013-06-27T09:28:23Z</time>
      </trkpt>
      <trkpt lat="45.93017" lon="6.99037">
        <ele>3842.0463867</ele>
        <time>2013-06-27T09:30:36Z</time>
      </trkpt>
      <trkpt lat="45.93021" lon="6.99033">
        <ele>3839.1625977</ele>
        <time>2013-06-27T09:31:11Z</time>
      </trkpt>
      <trkpt lat="45.93021" lon="6.99031">
        <ele>3841.0849609</ele>
        <time>2013-06-27T09:31:17Z</time>
      </trkpt>
      <trkpt lat="45.93022" lon="6.99029">
        <ele>3835.3168945</ele>
        <time>2013-06-27T09:31:24Z</time>
      </trkpt>
      <trkpt lat="45.93022" lon="6.99029">
        <ele>3840.6044922</ele>
        <time>2013-06-27T09:31:25Z</time>
      </trkpt>
      <trkpt lat="45.93022" lon="6.99029">
        <ele>3840.1235352</ele>
        <time>2013-06-27T09:31:26Z</time>
      </trkpt>
      <trkpt lat="45.93022" lon="6.99028">
        <ele>3839.6430664</ele>
        <time>2013-06-27T09:31:31Z</time>
      </trkpt>
      <trkpt lat="45.93016" lon="6.9903">
        <ele>3832.9140625</ele>
        <time>2013-06-27T09:31:50Z</time>
      </trkpt>
      <trkpt lat="45.93015" lon="6.9903">
        <ele>3828.1074219</ele>
        <time>2013-06-27T09:31:52Z</time>
      </trkpt>
      <trkpt lat="45.93015" lon="6.99031">
        <ele>3832.4331055</ele>
        <time>2013-06-27T09:31:53Z</time>
      </trkpt>
      <trkpt lat="45.93015" lon="6.99031">
        <ele>3831.472168</ele>
        <time>2013-06-27T09:31:54Z</time>
      </trkpt>
      <trkpt lat="45.93015" lon="6.99032">
        <ele>3828.5878906</ele>
        <time>2013-06-27T09:31:56Z</time>
      </trkpt>
      <trkpt lat="45.93013" lon="6.99034">
        <ele>3830.0297852</ele>
        <time>2013-06-27T09:32:00Z</time>
      </trkpt>
      <trkpt lat="45.93011" lon="6.99044">
        <ele>3828.1074219</ele>
        <time>2013-06-27T09:32:06Z</time>
      </trkpt>
      <trkpt lat="45.93009" lon="6.99045">
        <ele>3830.0297852</ele>
        <time>2013-06-27T09:32:09Z</time>
      </trkpt>
      <trkpt lat="45.93009" lon="6.99046">
        <ele>3826.6650391</ele>
        <time>2013-06-27T09:32:10Z</time>
      </trkpt>
      <trkpt lat="45.93002" lon="6.99047">
        <ele>3822.3388672</ele>
        <time>2013-06-27T09:32:20Z</time>
      </trkpt>
      <trkpt lat="45.93001" lon="6.9905">
        <ele>3823.78125</ele>
        <time>2013-06-27T09:32:24Z</time>
      </trkpt>
      <trkpt lat="45.93" lon="6.99051">
        <ele>3821.8583984</ele>
        <time>2013-06-27T09:32:28Z</time>
      </trkpt>
      <trkpt lat="45.92997" lon="6.99051">
        <ele>3818.0131836</ele>
        <time>2013-06-27T09:32:36Z</time>
      </trkpt>
      <trkpt lat="45.92998" lon="6.99056">
        <ele>3824.2617188</ele>
        <time>2013-06-27T09:32:44Z</time>
      </trkpt>
      <trkpt lat="45.92997" lon="6.99041">
        <ele>3813.206543</ele>
        <time>2013-06-27T09:34:08Z</time>
      </trkpt>
      <trkpt lat="45.93003" lon="6.99041">
        <ele>3817.5327148</ele>
        <time>2013-06-27T09:34:50Z</time>
      </trkpt>
      <trkpt lat="45.92991" lon="6.99056">
        <ele>3812.7260742</ele>
        <time>2013-06-27T09:40:40Z</time>
      </trkpt>
      <trkpt lat="45.92988" lon="6.99051">
        <ele>3815.1293945</ele>
        <time>2013-06-27T09:41:23Z</time>
      </trkpt>
      <trkpt lat="45.92979" lon="6.99055">
        <ele>3813.6875</ele>
        <time>2013-06-27T09:45:16Z</time>
      </trkpt>
      <trkpt lat="45.92978" lon="6.99055">
        <ele>3811.2841797</ele>
        <time>2013-06-27T09:45:19Z</time>
      </trkpt>
      <trkpt lat="45.92995" lon="6.99053">
        <ele>3817.0517578</ele>
        <time>2013-06-27T09:47:31Z</time>
      </trkpt>
      <trkpt lat="45.92995" lon="6.99053">
        <ele>3809.8422852</ele>
        <time>2013-06-27T09:47:35Z</time>
      </trkpt>
      <trkpt lat="45.92994" lon="6.99051">
        <ele>3813.206543</ele>
        <time>2013-06-27T09:49:39Z</time>
      </trkpt>
      <trkpt lat="45.92994" lon="6.99048">
        <ele>3812.2451172</ele>
        <time>2013-06-27T09:50:15Z</time>
      </trkpt>
      <trkpt lat="45.92997" lon="6.99063">
        <ele>3810.8032227</ele>
        <time>2013-06-27T09:52:43Z</time>
      </trkpt>
      <trkpt lat="45.92985" lon="6.9906">
        <ele>3810.3227539</ele>
        <time>2013-06-27T09:53:57Z</time>
      </trkpt>
      <trkpt lat="45.92995" lon="6.99056">
        <ele>3811.7646484</ele>
        <time>2013-06-27T09:54:55Z</time>
      </trkpt>
      <trkpt lat="45.93" lon="6.99059">
        <ele>3809.3613281</ele>
        <time>2013-06-27T09:55:06Z</time>
      </trkpt>
      <trkpt lat="45.92981" lon="6.99071">
        <ele>3789.6542969</ele>
        <time>2013-06-27T09:56:10Z</time>
      </trkpt>
      <trkpt lat="45.92993" lon="6.99073">
        <ele>3785.3286133</ele>
        <time>2013-06-27T09:57:11Z</time>
      </trkpt>
      <trkpt lat="45.92973" lon="6.99007">
        <ele>3785.3286133</ele>
        <time>2013-06-27T09:59:22Z</time>
      </trkpt>
      <trkpt lat="45.92955" lon="6.99061">
        <ele>3783.4057617</ele>
        <time>2013-06-27T09:59:59Z</time>
      </trkpt>
      <trkpt lat="45.92992" lon="6.99064">
        <ele>3783.8862305</ele>
        <time>2013-06-27T10:00:26Z</time>
      </trkpt>
      <trkpt lat="45.9301" lon="6.99056">
        <ele>3783.4057617</ele>
        <time>2013-06-27T10:00:45Z</time>
      </trkpt>
      <trkpt lat="45.92976" lon="6.9908">
        <ele>3784.8476563</ele>
        <time>2013-06-27T10:04:36Z</time>
      </trkpt>
      <trkpt lat="45.92983" lon="6.99076">
        <ele>3783.4057617</ele>
        <time>2013-06-27T10:05:08Z</time>
      </trkpt>
      <trkpt lat="45.92982" lon="6.99087">
        <ele>3784.3671875</ele>
        <time>2013-06-27T10:06:01Z</time>
      </trkpt>
      <trkpt lat="45.92993" lon="6.99068">
        <ele>3783.4057617</ele>
        <time>2013-06-27T10:08:57Z</time>
      </trkpt>
      <trkpt lat="45.92984" lon="6.99077">
        <ele>3784.3671875</ele>
        <time>2013-06-27T10:14:20Z</time>
      </trkpt>
      <trkpt lat="45.92988" lon="6.99074">
        <ele>3776.6767578</ele>
        <time>2013-06-27T10:14:51Z</time>
      </trkpt>
      <trkpt lat="45.92992" lon="6.99076">
        <ele>3769.9477539</ele>
        <time>2013-06-27T10:15:08Z</time>
      </trkpt>
      <trkpt lat="45.9299" lon="6.99086">
        <ele>3766.1020508</ele>
        <time>2013-06-27T10:15:19Z</time>
      </trkpt>
      <trkpt lat="45.9299" lon="6.99086">
        <ele>3762.7373047</ele>
        <time>2013-06-27T10:15:20Z</time>
      </trkpt>
      <trkpt lat="45.92986" lon="6.9909">
        <ele>3761.7758789</ele>
        <time>2013-06-27T10:15:28Z</time>
      </trkpt>
      <trkpt lat="45.92987" lon="6.99088">
        <ele>3760.8144531</ele>
        <time>2013-06-27T10:15:33Z</time>
      </trkpt>
      <trkpt lat="45.92986" lon="6.9909">
        <ele>3758.8920898</ele>
        <time>2013-06-27T10:15:47Z</time>
      </trkpt>
      <trkpt lat="45.92986" lon="6.9909">
        <ele>3755.046875</ele>
        <time>2013-06-27T10:15:57Z</time>
      </trkpt>
      <trkpt lat="45.92974" lon="6.99093">
        <ele>3755.5273438</ele>
        <time>2013-06-27T10:17:00Z</time>
      </trkpt>
      <trkpt lat="45.92987" lon="6.99094">
        <ele>3757.4501953</ele>
        <time>2013-06-27T10:19:45Z</time>
      </trkpt>
      <trkpt lat="45.92984" lon="6.99099">
        <ele>3756.4887695</ele>
        <time>2013-06-27T10:21:16Z</time>
      </trkpt>
      <trkpt lat="45.92986" lon="6.99097">
        <ele>3756.0083008</ele>
        <time>2013-06-27T10:22:13Z</time>
      </trkpt>
      <trkpt lat="45.92981" lon="6.99097">
        <ele>3749.2788086</ele>
        <time>2013-06-27T10:23:04Z</time>
      </trkpt>
      <trkpt lat="45.92981" lon="6.99097">
        <ele>3752.6435547</ele>
        <time>2013-06-27T10:23:05Z</time>
      </trkpt>
      <trkpt lat="45.92981" lon="6.99097">
        <ele>3749.2788086</ele>
        <time>2013-06-27T10:23:08Z</time>
      </trkpt>
      <trkpt lat="45.92981" lon="6.99103">
        <ele>3746.3950195</ele>
        <time>2013-06-27T10:24:16Z</time>
      </trkpt>
      <trkpt lat="45.92978" lon="6.99105">
        <ele>3745.4335938</ele>
        <time>2013-06-27T10:25:00Z</time>
      </trkpt>
      <trkpt lat="45.92981" lon="6.99102">
        <ele>3737.7431641</ele>
        <time>2013-06-27T10:26:14Z</time>
      </trkpt>
      <trkpt lat="45.92981" lon="6.99106">
        <ele>3736.7822266</ele>
        <time>2013-06-27T10:27:10Z</time>
      </trkpt>
      <trkpt lat="45.92983" lon="6.99096">
        <ele>3734.3789063</ele>
        <time>2013-06-27T10:27:52Z</time>
      </trkpt>
      <trkpt lat="45.9298" lon="6.99107">
        <ele>3733.4174805</ele>
        <time>2013-06-27T10:28:40Z</time>
      </trkpt>
      <trkpt lat="45.92977" lon="6.99103">
        <ele>3731.0136719</ele>
        <time>2013-06-27T10:29:22Z</time>
      </trkpt>
      <trkpt lat="45.92983" lon="6.99109">
        <ele>3730.0522461</ele>
        <time>2013-06-27T10:30:12Z</time>
      </trkpt>
      <trkpt lat="45.92977" lon="6.99112">
        <ele>3726.6879883</ele>
        <time>2013-06-27T10:31:31Z</time>
      </trkpt>
      <trkpt lat="45.92977" lon="6.99112">
        <ele>3724.7651367</ele>
        <time>2013-06-27T10:31:37Z</time>
      </trkpt>
      <trkpt lat="45.92984" lon="6.99109">
        <ele>3725.7265625</ele>
        <time>2013-06-27T10:32:02Z</time>
      </trkpt>
      <trkpt lat="45.92922" lon="6.99087">
        <ele>3715.1523438</ele>
        <time>2013-06-27T10:34:41Z</time>
      </trkpt>
      <trkpt lat="45.92921" lon="6.99104">
        <ele>3710.3457031</ele>
        <time>2013-06-27T10:36:14Z</time>
      </trkpt>
      <trkpt lat="45.92917" lon="6.99077">
        <ele>3710.8261719</ele>
        <time>2013-06-27T10:36:20Z</time>
      </trkpt>
      <trkpt lat="45.92953" lon="6.99113">
        <ele>3706.980957</ele>
        <time>2013-06-27T10:36:52Z</time>
      </trkpt>
      <trkpt lat="45.92926" lon="6.99115">
        <ele>3706.0200195</ele>
        <time>2013-06-27T10:37:27Z</time>
      </trkpt>
      <trkpt lat="45.92911" lon="6.99116">
        <ele>3702.6552734</ele>
        <time>2013-06-27T10:38:50Z</time>
      </trkpt>
      <trkpt lat="45.92966" lon="6.99161">
        <ele>3696.8867188</ele>
        <time>2013-06-27T10:41:13Z</time>
      </trkpt>
      <trkpt lat="45.92947" lon="6.9919">
        <ele>3685.8320313</ele>
        <time>2013-06-27T10:44:12Z</time>
      </trkpt>
      <trkpt lat="45.92937" lon="6.992">
        <ele>3674.7768555</ele>
        <time>2013-06-27T10:46:39Z</time>
      </trkpt>
      <trkpt lat="45.92945" lon="6.99206">
        <ele>3676.21875</ele>
        <time>2013-06-27T10:46:54Z</time>
      </trkpt>
      <trkpt lat="45.92919" lon="6.99221">
        <ele>3659.3955078</ele>
        <time>2013-06-27T10:52:34Z</time>
      </trkpt>
      <trkpt lat="45.92917" lon="6.9924">
        <ele>3643.5341797</ele>
        <time>2013-06-27T10:56:22Z</time>
      </trkpt>
      <trkpt lat="45.92918" lon="6.99241">
        <ele>3640.1694336</ele>
        <time>2013-06-27T10:56:43Z</time>
      </trkpt>
      <trkpt lat="45.92918" lon="6.99241">
        <ele>3644.0146484</ele>
        <time>2013-06-27T10:56:44Z</time>
      </trkpt>
      <trkpt lat="45.92917" lon="6.99241">
        <ele>3640.1694336</ele>
        <time>2013-06-27T10:56:53Z</time>
      </trkpt>
      <trkpt lat="45.92918" lon="6.99241">
        <ele>3641.6113281</ele>
        <time>2013-06-27T10:56:56Z</time>
      </trkpt>
      <trkpt lat="45.92917" lon="6.9924">
        <ele>3638.2470703</ele>
        <time>2013-06-27T10:57:19Z</time>
      </trkpt>
      <trkpt lat="45.92906" lon="6.99254">
        <ele>3629.1142578</ele>
        <time>2013-06-27T10:59:51Z</time>
      </trkpt>
      <trkpt lat="45.92901" lon="6.99259">
        <ele>3618.5395508</ele>
        <time>2013-06-27T11:02:28Z</time>
      </trkpt>
      <trkpt lat="45.92891" lon="6.99277">
        <ele>3610.8491211</ele>
        <time>2013-06-27T11:05:06Z</time>
      </trkpt>
      <trkpt lat="45.92877" lon="6.99298">
        <ele>3597.8710938</ele>
        <time>2013-06-27T11:08:37Z</time>
      </trkpt>
      <trkpt lat="45.92878" lon="6.99298">
        <ele>3595.9487305</ele>
        <time>2013-06-27T11:09:00Z</time>
      </trkpt>
      <trkpt lat="45.92838" lon="6.99295">
        <ele>3571.9155273</ele>
        <time>2013-06-27T11:12:10Z</time>
      </trkpt>
      <trkpt lat="45.92791" lon="6.99319">
        <ele>3512.3139648</ele>
        <time>2013-06-27T11:20:42Z</time>
      </trkpt>
      <trkpt lat="45.92795" lon="6.99319">
        <ele>3499.3359375</ele>
        <time>2013-06-27T11:22:06Z</time>
      </trkpt>
      <trkpt lat="45.92793" lon="6.99322">
        <ele>3492.6069336</ele>
        <time>2013-06-27T11:22:37Z</time>
      </trkpt>
      <trkpt lat="45.92764" lon="6.993">
        <ele>3483.9550781</ele>
        <time>2013-06-27T11:23:54Z</time>
      </trkpt>
      <trkpt lat="45.92757" lon="6.99285">
        <ele>3473.8608398</ele>
        <time>2013-06-27T11:25:32Z</time>
      </trkpt>
      <trkpt lat="45.92736" lon="6.99273">
        <ele>3466.6513672</ele>
        <time>2013-06-27T11:26:11Z</time>
      </trkpt>
      <trkpt lat="45.92731" lon="6.99272">
        <ele>3463.7675781</ele>
        <time>2013-06-27T11:26:26Z</time>
      </trkpt>
      <trkpt lat="45.92728" lon="6.99273">
        <ele>3458.9609375</ele>
        <time>2013-06-27T11:26:45Z</time>
      </trkpt>
      <trkpt lat="45.92691" lon="6.99239">
        <ele>3442.1376953</ele>
        <time>2013-06-27T11:28:41Z</time>
      </trkpt>
      <trkpt lat="45.92656" lon="6.99228">
        <ele>3420.5083008</ele>
        <time>2013-06-27T11:30:02Z</time>
      </trkpt>
      <trkpt lat="45.9257" lon="6.99149">
        <ele>3350.8125</ele>
        <time>2013-06-27T11:35:04Z</time>
      </trkpt>
      <trkpt lat="45.92476" lon="6.99098">
        <ele>3291.6914063</ele>
        <time>2013-06-27T11:38:27Z</time>
      </trkpt>
      <trkpt lat="45.92467" lon="6.99078">
        <ele>3278.7133789</ele>
        <time>2013-06-27T11:39:12Z</time>
      </trkpt>
      <trkpt lat="45.92404" lon="6.99062">
        <ele>3242.6640625</ele>
        <time>2013-06-27T11:42:42Z</time>
      </trkpt>
      <trkpt lat="45.92322" lon="6.99073">
        <ele>3193.637207</ele>
        <time>2013-06-27T11:45:07Z</time>
      </trkpt>
      <trkpt lat="45.92288" lon="6.9913">
        <ele>3170.0849609</ele>
        <time>2013-06-27T11:46:14Z</time>
      </trkpt>
      <trkpt lat="45.9228" lon="6.99095">
        <ele>3166.2392578</ele>
        <time>2013-06-27T11:46:27Z</time>
      </trkpt>
      <trkpt lat="45.9226" lon="6.99073">
        <ele>3162.3945313</ele>
        <time>2013-06-27T11:46:46Z</time>
      </trkpt>
      <trkpt lat="45.92237" lon="6.9906">
        <ele>3152.7807617</ele>
        <time>2013-06-27T11:47:31Z</time>
      </trkpt>
      <trkpt lat="45.92222" lon="6.99051">
        <ele>3143.1674805</ele>
        <time>2013-06-27T11:47:59Z</time>
      </trkpt>
      <trkpt lat="45.922" lon="6.99068">
        <ele>3127.7866211</ele>
        <time>2013-06-27T11:48:39Z</time>
      </trkpt>
      <trkpt lat="45.92144" lon="6.99057">
        <ele>3103.2729492</ele>
        <time>2013-06-27T11:49:51Z</time>
      </trkpt>
      <trkpt lat="45.92106" lon="6.99035">
        <ele>3088.8530273</ele>
        <time>2013-06-27T11:50:33Z</time>
      </trkpt>
      <trkpt lat="45.92096" lon="6.99013">
        <ele>3088.8530273</ele>
        <time>2013-06-27T11:50:34Z</time>
      </trkpt>
      <trkpt lat="45.92122" lon="6.99036">
        <ele>3085.4887695</ele>
        <time>2013-06-27T11:50:44Z</time>
      </trkpt>
      <trkpt lat="45.92138" lon="6.99086">
        <ele>3078.2788086</ele>
        <time>2013-06-27T11:51:07Z</time>
      </trkpt>
      <trkpt lat="45.92134" lon="6.99064">
        <ele>3076.8369141</ele>
        <time>2013-06-27T11:51:18Z</time>
      </trkpt>
      <trkpt lat="45.92108" lon="6.99003">
        <ele>3060.4946289</ele>
        <time>2013-06-27T11:52:32Z</time>
      </trkpt>
      <trkpt lat="45.92112" lon="6.98995">
        <ele>3059.0522461</ele>
        <time>2013-06-27T11:54:24Z</time>
      </trkpt>
      <trkpt lat="45.92108" lon="6.9901">
        <ele>3061.4560547</ele>
        <time>2013-06-27T12:10:03Z</time>
      </trkpt>
      <trkpt lat="45.92102" lon="6.99013">
        <ele>3059.5327148</ele>
        <time>2013-06-27T12:12:58Z</time>
      </trkpt>
      <trkpt lat="45.92115" lon="6.989">
        <ele>3043.1904297</ele>
        <time>2013-06-27T12:14:49Z</time>
      </trkpt>
      <trkpt lat="45.92093" lon="6.98854">
        <ele>3034.0581055</ele>
        <time>2013-06-27T12:15:43Z</time>
      </trkpt>
      <trkpt lat="45.92062" lon="6.98843">
        <ele>3022.5219727</ele>
        <time>2013-06-27T12:16:38Z</time>
      </trkpt>
      <trkpt lat="45.92044" lon="6.98827">
        <ele>3008.1025391</ele>
        <time>2013-06-27T12:17:40Z</time>
      </trkpt>
      <trkpt lat="45.92039" lon="6.98826">
        <ele>3004.737793</ele>
        <time>2013-06-27T12:17:53Z</time>
      </trkpt>
      <trkpt lat="45.92037" lon="6.9883">
        <ele>3001.3735352</ele>
        <time>2013-06-27T12:18:07Z</time>
      </trkpt>
      <trkpt lat="45.92015" lon="6.988">
        <ele>2986.4726563</ele>
        <time>2013-06-27T12:19:14Z</time>
      </trkpt>
      <trkpt lat="45.91999" lon="6.98788">
        <ele>2973.9755859</ele>
        <time>2013-06-27T12:19:45Z</time>
      </trkpt>
      <trkpt lat="45.919" lon="6.98788">
        <ele>2916.7773438</ele>
        <time>2013-06-27T12:22:00Z</time>
      </trkpt>
      <trkpt lat="45.91707" lon="6.98701">
        <ele>2843.7172852</ele>
        <time>2013-06-27T12:25:02Z</time>
      </trkpt>
      <trkpt lat="45.91693" lon="6.98694">
        <ele>2836.9882813</ele>
        <time>2013-06-27T12:25:18Z</time>
      </trkpt>
      <trkpt lat="45.91617" lon="6.98722">
        <ele>2810.0712891</ele>
        <time>2013-06-27T12:26:32Z</time>
      </trkpt>
      <trkpt lat="45.91567" lon="6.98715">
        <ele>2794.2089844</ele>
        <time>2013-06-27T12:27:09Z</time>
      </trkpt>
      <trkpt lat="45.91487" lon="6.98655">
        <ele>2778.3476563</ele>
        <time>2013-06-27T12:28:09Z</time>
      </trkpt>
      <trkpt lat="45.91422" lon="6.98579">
        <ele>2767.7729492</ele>
        <time>2013-06-27T12:29:04Z</time>
      </trkpt>
      <trkpt lat="45.91389" lon="6.985">
        <ele>2763.4467773</ele>
        <time>2013-06-27T12:29:54Z</time>
      </trkpt>
      <trkpt lat="45.91362" lon="6.98399">
        <ele>2753.8339844</ele>
        <time>2013-06-27T12:30:57Z</time>
      </trkpt>
      <trkpt lat="45.91344" lon="6.98376">
        <ele>2753.3530273</ele>
        <time>2013-06-27T12:31:18Z</time>
      </trkpt>
      <trkpt lat="45.91313" lon="6.98327">
        <ele>2746.1435547</ele>
        <time>2013-06-27T12:31:52Z</time>
      </trkpt>
      <trkpt lat="45.91308" lon="6.9828">
        <ele>2742.7788086</ele>
        <time>2013-06-27T12:32:14Z</time>
      </trkpt>
      <trkpt lat="45.91237" lon="6.98384">
        <ele>2739.8945313</ele>
        <time>2013-06-27T12:32:27Z</time>
      </trkpt>
      <trkpt lat="45.91215" lon="6.98382">
        <ele>2737.0107422</ele>
        <time>2013-06-27T12:32:46Z</time>
      </trkpt>
      <trkpt lat="45.91178" lon="6.98338">
        <ele>2733.6459961</ele>
        <time>2013-06-27T12:33:29Z</time>
      </trkpt>
      <trkpt lat="45.91164" lon="6.98294">
        <ele>2732.2041016</ele>
        <time>2013-06-27T12:34:24Z</time>
      </trkpt>
      <trkpt lat="45.91175" lon="6.98269">
        <ele>2728.8393555</ele>
        <time>2013-06-27T12:36:16Z</time>
      </trkpt>
      <trkpt lat="45.9117" lon="6.98232">
        <ele>2724.0332031</ele>
        <time>2013-06-27T12:36:51Z</time>
      </trkpt>
      <trkpt lat="45.9115" lon="6.98166">
        <ele>2707.6904297</ele>
        <time>2013-06-27T12:37:46Z</time>
      </trkpt>
      <trkpt lat="45.91131" lon="6.98129">
        <ele>2695.6738281</ele>
        <time>2013-06-27T12:38:24Z</time>
      </trkpt>
      <trkpt lat="45.91135" lon="6.98098">
        <ele>2691.8286133</ele>
        <time>2013-06-27T12:38:40Z</time>
      </trkpt>
      <trkpt lat="45.91198" lon="6.97999">
        <ele>2688.4643555</ele>
        <time>2013-06-27T12:38:57Z</time>
      </trkpt>
      <trkpt lat="45.91194" lon="6.97966">
        <ele>2684.6191406</ele>
        <time>2013-06-27T12:39:16Z</time>
      </trkpt>
      <trkpt lat="45.91141" lon="6.97837">
        <ele>2668.7568359</ele>
        <time>2013-06-27T12:40:42Z</time>
      </trkpt>
      <trkpt lat="45.91082" lon="6.97755">
        <ele>2658.1826172</ele>
        <time>2013-06-27T12:41:51Z</time>
      </trkpt>
      <trkpt lat="45.90974" lon="6.97372">
        <ele>2631.746582</ele>
        <time>2013-06-27T12:45:44Z</time>
      </trkpt>
      <trkpt lat="45.9092" lon="6.97271">
        <ele>2625.4980469</ele>
        <time>2013-06-27T12:46:50Z</time>
      </trkpt>
      <trkpt lat="45.90849" lon="6.97179">
        <ele>2620.2104492</ele>
        <time>2013-06-27T12:48:06Z</time>
      </trkpt>
      <trkpt lat="45.90745" lon="6.97006">
        <ele>2596.6582031</ele>
        <time>2013-06-27T12:50:14Z</time>
      </trkpt>
      <trkpt lat="45.90726" lon="6.9694">
        <ele>2587.5256348</ele>
        <time>2013-06-27T12:51:11Z</time>
      </trkpt>
      <trkpt lat="45.90647" lon="6.96793">
        <ele>2575.0285645</ele>
        <time>2013-06-27T12:53:00Z</time>
      </trkpt>
      <trkpt lat="45.90541" lon="6.96589">
        <ele>2552.4375</ele>
        <time>2013-06-27T12:55:22Z</time>
      </trkpt>
      <trkpt lat="45.90658" lon="6.96528">
        <ele>2524.5595703</ele>
        <time>2013-06-27T13:14:26Z</time>
      </trkpt>
      <trkpt lat="45.90668" lon="6.96522">
        <ele>2521.1945801</ele>
        <time>2013-06-27T13:14:52Z</time>
      </trkpt>
      <trkpt lat="45.90669" lon="6.9652">
        <ele>2517.8300781</ele>
        <time>2013-06-27T13:15:11Z</time>
      </trkpt>
      <trkpt lat="45.90666" lon="6.96516">
        <ele>2515.427002</ele>
        <time>2013-06-27T13:16:40Z</time>
      </trkpt>
      <trkpt lat="45.90663" lon="6.96517">
        <ele>2515.427002</ele>
        <time>2013-06-27T13:17:24Z</time>
      </trkpt>
      <trkpt lat="45.90661" lon="6.96519">
        <ele>2519.2722168</ele>
        <time>2013-06-27T13:19:27Z</time>
      </trkpt>
      <trkpt lat="45.90666" lon="6.96521">
        <ele>2519.7526855</ele>
        <time>2013-06-27T13:20:17Z</time>
      </trkpt>
      <trkpt lat="45.90665" lon="6.96521">
        <ele>2516.8688965</ele>
        <time>2013-06-27T13:21:23Z</time>
      </trkpt>
      <trkpt lat="45.90662" lon="6.96519">
        <ele>2513.5041504</ele>
        <time>2013-06-27T13:21:39Z</time>
      </trkpt>
      <trkpt lat="45.90658" lon="6.96513">
        <ele>2511.5817871</ele>
        <time>2013-06-27T13:21:49Z</time>
      </trkpt>
      <trkpt lat="45.90656" lon="6.96508">
        <ele>2509.6589355</ele>
        <time>2013-06-27T13:22:05Z</time>
      </trkpt>
      <trkpt lat="45.90652" lon="6.96507">
        <ele>2506.2941895</ele>
        <time>2013-06-27T13:22:35Z</time>
      </trkpt>
      <trkpt lat="45.90646" lon="6.96503">
        <ele>2503.4104004</ele>
        <time>2013-06-27T13:22:47Z</time>
      </trkpt>
      <trkpt lat="45.90641" lon="6.96498">
        <ele>2500.0458984</ele>
        <time>2013-06-27T13:23:04Z</time>
      </trkpt>
      <trkpt lat="45.90634" lon="6.96495">
        <ele>2497.1618652</ele>
        <time>2013-06-27T13:23:23Z</time>
      </trkpt>
      <trkpt lat="45.90624" lon="6.96484">
        <ele>2496.6811523</ele>
        <time>2013-06-27T13:23:46Z</time>
      </trkpt>
      <trkpt lat="45.90621" lon="6.96478">
        <ele>2498.1230469</ele>
        <time>2013-06-27T13:24:08Z</time>
      </trkpt>
      <trkpt lat="45.90631" lon="6.96474">
        <ele>2500.5263672</ele>
        <time>2013-06-27T13:24:43Z</time>
      </trkpt>
      <trkpt lat="45.90639" lon="6.9647">
        <ele>2502.9296875</ele>
        <time>2013-06-27T13:25:01Z</time>
      </trkpt>
      <trkpt lat="45.90643" lon="6.96463">
        <ele>2504.8522949</ele>
        <time>2013-06-27T13:25:21Z</time>
      </trkpt>
      <trkpt lat="45.90644" lon="6.96452">
        <ele>2505.8134766</ele>
        <time>2013-06-27T13:25:39Z</time>
      </trkpt>
      <trkpt lat="45.90643" lon="6.96446">
        <ele>2506.2941895</ele>
        <time>2013-06-27T13:26:00Z</time>
      </trkpt>
      <trkpt lat="45.90642" lon="6.96439">
        <ele>2506.2941895</ele>
        <time>2013-06-27T13:26:36Z</time>
      </trkpt>
      <trkpt lat="45.90649" lon="6.96428">
        <ele>2508.6977539</ele>
        <time>2013-06-27T13:26:58Z</time>
      </trkpt>
      <trkpt lat="45.9065" lon="6.96425">
        <ele>2512.0622559</ele>
        <time>2013-06-27T13:27:25Z</time>
      </trkpt>
      <trkpt lat="45.90651" lon="6.96409">
        <ele>2513.9848633</ele>
        <time>2013-06-27T13:27:56Z</time>
      </trkpt>
      <trkpt lat="45.90654" lon="6.964">
        <ele>2516.8688965</ele>
        <time>2013-06-27T13:28:17Z</time>
      </trkpt>
      <trkpt lat="45.9065" lon="6.96396">
        <ele>2516.8688965</ele>
        <time>2013-06-27T13:28:41Z</time>
      </trkpt>
      <trkpt lat="45.9065" lon="6.96388">
        <ele>2519.7526855</ele>
        <time>2013-06-27T13:29:08Z</time>
      </trkpt>
      <trkpt lat="45.90651" lon="6.96376">
        <ele>2523.1174316</ele>
        <time>2013-06-27T13:29:27Z</time>
      </trkpt>
      <trkpt lat="45.90657" lon="6.9637">
        <ele>2526.4821777</ele>
        <time>2013-06-27T13:29:51Z</time>
      </trkpt>
      <trkpt lat="45.90655" lon="6.96343">
        <ele>2527.9240723</ele>
        <time>2013-06-27T13:30:23Z</time>
      </trkpt>
      <trkpt lat="45.9065" lon="6.96325">
        <ele>2527.9240723</ele>
        <time>2013-06-27T13:30:43Z</time>
      </trkpt>
      <trkpt lat="45.9065" lon="6.96325">
        <ele>2528.4047852</ele>
        <time>2013-06-27T13:31:16Z</time>
      </trkpt>
      <trkpt lat="45.90645" lon="6.96322">
        <ele>2526.9628906</ele>
        <time>2013-06-27T13:32:25Z</time>
      </trkpt>
      <trkpt lat="45.90637" lon="6.96311">
        <ele>2524.5595703</ele>
        <time>2013-06-27T13:32:40Z</time>
      </trkpt>
      <trkpt lat="45.90631" lon="6.9631">
        <ele>2523.1174316</ele>
        <time>2013-06-27T13:32:45Z</time>
      </trkpt>
      <trkpt lat="45.90623" lon="6.96302">
        <ele>2520.2333984</ele>
        <time>2013-06-27T13:33:00Z</time>
      </trkpt>
      <trkpt lat="45.90616" lon="6.96299">
        <ele>2517.8300781</ele>
        <time>2013-06-27T13:33:12Z</time>
      </trkpt>
      <trkpt lat="45.90615" lon="6.96299">
        <ele>2516.3881836</ele>
        <time>2013-06-27T13:33:15Z</time>
      </trkpt>
      <trkpt lat="45.90613" lon="6.9629">
        <ele>2513.9848633</ele>
        <time>2013-06-27T13:33:23Z</time>
      </trkpt>
      <trkpt lat="45.90606" lon="6.96275">
        <ele>2511.5817871</ele>
        <time>2013-06-27T13:33:37Z</time>
      </trkpt>
      <trkpt lat="45.90602" lon="6.96269">
        <ele>2510.1396484</ele>
        <time>2013-06-27T13:33:45Z</time>
      </trkpt>
      <trkpt lat="45.906" lon="6.96268">
        <ele>2509.6589355</ele>
        <time>2013-06-27T13:33:48Z</time>
      </trkpt>
      <trkpt lat="45.90598" lon="6.96261">
        <ele>2506.7749023</ele>
        <time>2013-06-27T13:33:56Z</time>
      </trkpt>
      <trkpt lat="45.90596" lon="6.96253">
        <ele>2505.3330078</ele>
        <time>2013-06-27T13:34:02Z</time>
      </trkpt>
      <trkpt lat="45.90591" lon="6.9624">
        <ele>2502.9296875</ele>
        <time>2013-06-27T13:34:13Z</time>
      </trkpt>
      <trkpt lat="45.90587" lon="6.96228">
        <ele>2499.5651855</ele>
        <time>2013-06-27T13:34:28Z</time>
      </trkpt>
      <trkpt lat="45.90585" lon="6.96215">
        <ele>2496.2006836</ele>
        <time>2013-06-27T13:34:41Z</time>
      </trkpt>
      <trkpt lat="45.90581" lon="6.96204">
        <ele>2492.8359375</ele>
        <time>2013-06-27T13:34:53Z</time>
      </trkpt>
      <trkpt lat="45.90581" lon="6.962">
        <ele>2491.8745117</ele>
        <time>2013-06-27T13:34:55Z</time>
      </trkpt>
      <trkpt lat="45.9058" lon="6.96197">
        <ele>2490.432373</ele>
        <time>2013-06-27T13:34:58Z</time>
      </trkpt>
      <trkpt lat="45.90569" lon="6.96186">
        <ele>2488.0292969</ele>
        <time>2013-06-27T13:35:14Z</time>
      </trkpt>
      <trkpt lat="45.9056" lon="6.96171">
        <ele>2484.6647949</ele>
        <time>2013-06-27T13:35:29Z</time>
      </trkpt>
      <trkpt lat="45.90558" lon="6.96166">
        <ele>2484.6647949</ele>
        <time>2013-06-27T13:35:32Z</time>
      </trkpt>
      <trkpt lat="45.90557" lon="6.96159">
        <ele>2482.7419434</ele>
        <time>2013-06-27T13:35:38Z</time>
      </trkpt>
      <trkpt lat="45.90552" lon="6.96152">
        <ele>2481.3000488</ele>
        <time>2013-06-27T13:35:45Z</time>
      </trkpt>
      <trkpt lat="45.90546" lon="6.9614">
        <ele>2477.9355469</ele>
        <time>2013-06-27T13:35:59Z</time>
      </trkpt>
      <trkpt lat="45.9054" lon="6.96132">
        <ele>2475.0512695</ele>
        <time>2013-06-27T13:36:12Z</time>
      </trkpt>
      <trkpt lat="45.90534" lon="6.96115">
        <ele>2471.6867676</ele>
        <time>2013-06-27T13:36:27Z</time>
      </trkpt>
      <trkpt lat="45.90527" lon="6.96106">
        <ele>2468.8029785</ele>
        <time>2013-06-27T13:36:42Z</time>
      </trkpt>
      <trkpt lat="45.90523" lon="6.96106">
        <ele>2466.8803711</ele>
        <time>2013-06-27T13:36:53Z</time>
      </trkpt>
      <trkpt lat="45.90515" lon="6.96103">
        <ele>2464.4770508</ele>
        <time>2013-06-27T13:37:09Z</time>
      </trkpt>
      <trkpt lat="45.90514" lon="6.961">
        <ele>2462.5544434</ele>
        <time>2013-06-27T13:37:12Z</time>
      </trkpt>
      <trkpt lat="45.90511" lon="6.96094">
        <ele>2462.0737305</ele>
        <time>2013-06-27T13:37:16Z</time>
      </trkpt>
      <trkpt lat="45.90508" lon="6.96085">
        <ele>2460.151123</ele>
        <time>2013-06-27T13:37:25Z</time>
      </trkpt>
      <trkpt lat="45.90505" lon="6.96083">
        <ele>2459.670166</ele>
        <time>2013-06-27T13:37:29Z</time>
      </trkpt>
      <trkpt lat="45.90503" lon="6.96071">
        <ele>2458.7089844</ele>
        <time>2013-06-27T13:37:36Z</time>
      </trkpt>
      <trkpt lat="45.905" lon="6.96059">
        <ele>2456.3056641</ele>
        <time>2013-06-27T13:37:49Z</time>
      </trkpt>
      <trkpt lat="45.90497" lon="6.96061">
        <ele>2455.8249512</ele>
        <time>2013-06-27T13:37:52Z</time>
      </trkpt>
      <trkpt lat="45.90491" lon="6.96058">
        <ele>2453.421875</ele>
        <time>2013-06-27T13:38:02Z</time>
      </trkpt>
      <trkpt lat="45.90488" lon="6.9604">
        <ele>2450.057373</ele>
        <time>2013-06-27T13:38:16Z</time>
      </trkpt>
      <trkpt lat="45.90483" lon="6.96037">
        <ele>2448.1345215</ele>
        <time>2013-06-27T13:38:23Z</time>
      </trkpt>
      <trkpt lat="45.90482" lon="6.96034">
        <ele>2448.1345215</ele>
        <time>2013-06-27T13:38:26Z</time>
      </trkpt>
      <trkpt lat="45.9048" lon="6.96032">
        <ele>2447.6540527</ele>
        <time>2013-06-27T13:38:28Z</time>
      </trkpt>
      <trkpt lat="45.90475" lon="6.96017">
        <ele>2445.7314453</ele>
        <time>2013-06-27T13:38:42Z</time>
      </trkpt>
      <trkpt lat="45.90472" lon="6.96011">
        <ele>2443.8085938</ele>
        <time>2013-06-27T13:38:52Z</time>
      </trkpt>
      <trkpt lat="45.90468" lon="6.96007">
        <ele>2441.4052734</ele>
        <time>2013-06-27T13:39:03Z</time>
      </trkpt>
      <trkpt lat="45.90465" lon="6.96">
        <ele>2438.5214844</ele>
        <time>2013-06-27T13:39:15Z</time>
      </trkpt>
      <trkpt lat="45.90462" lon="6.95996">
        <ele>2437.0793457</ele>
        <time>2013-06-27T13:39:26Z</time>
      </trkpt>
      <trkpt lat="45.90457" lon="6.95987">
        <ele>2433.7148438</ele>
        <time>2013-06-27T13:39:39Z</time>
      </trkpt>
      <trkpt lat="45.90452" lon="6.95979">
        <ele>2431.3115234</ele>
        <time>2013-06-27T13:39:51Z</time>
      </trkpt>
      <trkpt lat="45.90446" lon="6.95969">
        <ele>2427.9467773</ele>
        <time>2013-06-27T13:40:06Z</time>
      </trkpt>
      <trkpt lat="45.90441" lon="6.95977">
        <ele>2426.0241699</ele>
        <time>2013-06-27T13:40:19Z</time>
      </trkpt>
      <trkpt lat="45.90434" lon="6.96002">
        <ele>2423.1403809</ele>
        <time>2013-06-27T13:40:36Z</time>
      </trkpt>
      <trkpt lat="45.90433" lon="6.96007">
        <ele>2422.1789551</ele>
        <time>2013-06-27T13:40:43Z</time>
      </trkpt>
      <trkpt lat="45.90432" lon="6.96012">
        <ele>2420.7370605</ele>
        <time>2013-06-27T13:40:50Z</time>
      </trkpt>
      <trkpt lat="45.90428" lon="6.96004">
        <ele>2419.7756348</ele>
        <time>2013-06-27T13:40:57Z</time>
      </trkpt>
      <trkpt lat="45.90425" lon="6.96002">
        <ele>2418.8144531</ele>
        <time>2013-06-27T13:41:00Z</time>
      </trkpt>
      <trkpt lat="45.90422" lon="6.95993">
        <ele>2417.8530273</ele>
        <time>2013-06-27T13:41:07Z</time>
      </trkpt>
      <trkpt lat="45.90419" lon="6.95975">
        <ele>2415.4499512</ele>
        <time>2013-06-27T13:41:21Z</time>
      </trkpt>
      <trkpt lat="45.90413" lon="6.9598">
        <ele>2413.5270996</ele>
        <time>2013-06-27T13:41:33Z</time>
      </trkpt>
      <trkpt lat="45.90412" lon="6.95966">
        <ele>2411.1237793</ele>
        <time>2013-06-27T13:41:46Z</time>
      </trkpt>
      <trkpt lat="45.90406" lon="6.95956">
        <ele>2408.720459</ele>
        <time>2013-06-27T13:41:58Z</time>
      </trkpt>
      <trkpt lat="45.90409" lon="6.95948">
        <ele>2406.7978516</ele>
        <time>2013-06-27T13:42:04Z</time>
      </trkpt>
      <trkpt lat="45.90408" lon="6.95946">
        <ele>2407.2785645</ele>
        <time>2013-06-27T13:42:06Z</time>
      </trkpt>
      <trkpt lat="45.90406" lon="6.95935">
        <ele>2404.8752441</ele>
        <time>2013-06-27T13:42:23Z</time>
      </trkpt>
      <trkpt lat="45.90403" lon="6.95931">
        <ele>2401.9912109</ele>
        <time>2013-06-27T13:42:37Z</time>
      </trkpt>
      <trkpt lat="45.90403" lon="6.9593">
        <ele>2400.5493164</ele>
        <time>2013-06-27T13:42:39Z</time>
      </trkpt>
      <trkpt lat="45.90402" lon="6.95925">
        <ele>2398.626709</ele>
        <time>2013-06-27T13:42:54Z</time>
      </trkpt>
      <trkpt lat="45.90406" lon="6.95914">
        <ele>2396.2236328</ele>
        <time>2013-06-27T13:43:09Z</time>
      </trkpt>
      <trkpt lat="45.90404" lon="6.95908">
        <ele>2392.8586426</ele>
        <time>2013-06-27T13:43:23Z</time>
      </trkpt>
      <trkpt lat="45.90398" lon="6.95906">
        <ele>2390.4553223</ele>
        <time>2013-06-27T13:43:37Z</time>
      </trkpt>
      <trkpt lat="45.904" lon="6.95897">
        <ele>2387.5715332</ele>
        <time>2013-06-27T13:43:50Z</time>
      </trkpt>
      <trkpt lat="45.90394" lon="6.95888">
        <ele>2384.2070313</ele>
        <time>2013-06-27T13:44:07Z</time>
      </trkpt>
      <trkpt lat="45.90392" lon="6.9587">
        <ele>2381.8037109</ele>
        <time>2013-06-27T13:44:20Z</time>
      </trkpt>
      <trkpt lat="45.90389" lon="6.95861">
        <ele>2379.8808594</ele>
        <time>2013-06-27T13:44:27Z</time>
      </trkpt>
      <trkpt lat="45.90389" lon="6.9586">
        <ele>2379.8808594</ele>
        <time>2013-06-27T13:44:28Z</time>
      </trkpt>
      <trkpt lat="45.90398" lon="6.95839">
        <ele>2378.4389648</ele>
        <time>2013-06-27T13:44:44Z</time>
      </trkpt>
      <trkpt lat="45.90398" lon="6.95836">
        <ele>2377.958252</ele>
        <time>2013-06-27T13:44:46Z</time>
      </trkpt>
      <trkpt lat="45.90403" lon="6.95825">
        <ele>2376.9970703</ele>
        <time>2013-06-27T13:45:01Z</time>
      </trkpt>
      <trkpt lat="45.90405" lon="6.95811">
        <ele>2373.6323242</ele>
        <time>2013-06-27T13:45:18Z</time>
      </trkpt>
      <trkpt lat="45.90404" lon="6.95803">
        <ele>2370.2678223</ele>
        <time>2013-06-27T13:45:33Z</time>
      </trkpt>
      <trkpt lat="45.90402" lon="6.95802">
        <ele>2367.864502</ele>
        <time>2013-06-27T13:45:46Z</time>
      </trkpt>
      <trkpt lat="45.90396" lon="6.95803">
        <ele>2365.9418945</ele>
        <time>2013-06-27T13:45:56Z</time>
      </trkpt>
      <trkpt lat="45.90392" lon="6.95807">
        <ele>2365.4614258</ele>
        <time>2013-06-27T13:46:01Z</time>
      </trkpt>
      <trkpt lat="45.90385" lon="6.95804">
        <ele>2362.5771484</ele>
        <time>2013-06-27T13:46:14Z</time>
      </trkpt>
      <trkpt lat="45.90388" lon="6.95794">
        <ele>2360.1738281</ele>
        <time>2013-06-27T13:46:25Z</time>
      </trkpt>
      <trkpt lat="45.90394" lon="6.95788">
        <ele>2357.770752</ele>
        <time>2013-06-27T13:46:38Z</time>
      </trkpt>
      <trkpt lat="45.90392" lon="6.95785">
        <ele>2355.3674316</ele>
        <time>2013-06-27T13:46:51Z</time>
      </trkpt>
      <trkpt lat="45.90392" lon="6.95778">
        <ele>2353.4448242</ele>
        <time>2013-06-27T13:47:04Z</time>
      </trkpt>
      <trkpt lat="45.9039" lon="6.95775">
        <ele>2350.0803223</ele>
        <time>2013-06-27T13:47:16Z</time>
      </trkpt>
      <trkpt lat="45.90388" lon="6.9577">
        <ele>2348.1574707</ele>
        <time>2013-06-27T13:47:23Z</time>
      </trkpt>
      <trkpt lat="45.90383" lon="6.95761">
        <ele>2346.2348633</ele>
        <time>2013-06-27T13:47:39Z</time>
      </trkpt>
      <trkpt lat="45.90381" lon="6.95754">
        <ele>2344.3120117</ele>
        <time>2013-06-27T13:47:53Z</time>
      </trkpt>
      <trkpt lat="45.90383" lon="6.95745">
        <ele>2342.3896484</ele>
        <time>2013-06-27T13:48:05Z</time>
      </trkpt>
      <trkpt lat="45.90384" lon="6.95744">
        <ele>2339.0249023</ele>
        <time>2013-06-27T13:48:18Z</time>
      </trkpt>
      <trkpt lat="45.90381" lon="6.95739">
        <ele>2336.1411133</ele>
        <time>2013-06-27T13:48:40Z</time>
      </trkpt>
      <trkpt lat="45.90374" lon="6.95736">
        <ele>2333.2570801</ele>
        <time>2013-06-27T13:48:55Z</time>
      </trkpt>
      <trkpt lat="45.90372" lon="6.95726">
        <ele>2332.7763672</ele>
        <time>2013-06-27T13:49:04Z</time>
      </trkpt>
      <trkpt lat="45.90372" lon="6.95725">
        <ele>2332.7763672</ele>
        <time>2013-06-27T13:49:27Z</time>
      </trkpt>
      <trkpt lat="45.90373" lon="6.95723">
        <ele>2332.2958984</ele>
        <time>2013-06-27T13:49:55Z</time>
      </trkpt>
      <trkpt lat="45.90371" lon="6.95717">
        <ele>2328.9309082</ele>
        <time>2013-06-27T13:50:46Z</time>
      </trkpt>
      <trkpt lat="45.90376" lon="6.95702">
        <ele>2326.0471191</ele>
        <time>2013-06-27T13:51:03Z</time>
      </trkpt>
      <trkpt lat="45.90378" lon="6.95697">
        <ele>2322.6826172</ele>
        <time>2013-06-27T13:51:15Z</time>
      </trkpt>
      <trkpt lat="45.90381" lon="6.95687">
        <ele>2322.2019043</ele>
        <time>2013-06-27T13:51:31Z</time>
      </trkpt>
      <trkpt lat="45.90383" lon="6.95676">
        <ele>2318.8374023</ele>
        <time>2013-06-27T13:51:46Z</time>
      </trkpt>
      <trkpt lat="45.90381" lon="6.95664">
        <ele>2316.434082</ele>
        <time>2013-06-27T13:52:05Z</time>
      </trkpt>
      <trkpt lat="45.9038" lon="6.95662">
        <ele>2313.5498047</ele>
        <time>2013-06-27T13:52:25Z</time>
      </trkpt>
      <trkpt lat="45.90379" lon="6.95662">
        <ele>2310.1853027</ele>
        <time>2013-06-27T13:52:41Z</time>
      </trkpt>
      <trkpt lat="45.90373" lon="6.95652">
        <ele>2307.7822266</ele>
        <time>2013-06-27T13:52:57Z</time>
      </trkpt>
      <trkpt lat="45.90372" lon="6.95629">
        <ele>2304.8981934</ele>
        <time>2013-06-27T13:53:16Z</time>
      </trkpt>
      <trkpt lat="45.90378" lon="6.95614">
        <ele>2302.494873</ele>
        <time>2013-06-27T13:53:34Z</time>
      </trkpt>
      <trkpt lat="45.90375" lon="6.95608">
        <ele>2299.6108398</ele>
        <time>2013-06-27T13:53:47Z</time>
      </trkpt>
      <trkpt lat="45.90376" lon="6.95604">
        <ele>2296.7268066</ele>
        <time>2013-06-27T13:54:03Z</time>
      </trkpt>
      <trkpt lat="45.90377" lon="6.95602">
        <ele>2293.8430176</ele>
        <time>2013-06-27T13:54:18Z</time>
      </trkpt>
      <trkpt lat="45.90375" lon="6.956">
        <ele>2290.4782715</ele>
        <time>2013-06-27T13:54:38Z</time>
      </trkpt>
      <trkpt lat="45.9037" lon="6.95599">
        <ele>2287.1137695</ele>
        <time>2013-06-27T13:54:55Z</time>
      </trkpt>
      <trkpt lat="45.90353" lon="6.95598">
        <ele>2284.2299805</ele>
        <time>2013-06-27T13:55:16Z</time>
      </trkpt>
      <trkpt lat="45.90352" lon="6.95597">
        <ele>2280.8652344</ele>
        <time>2013-06-27T13:55:36Z</time>
      </trkpt>
      <trkpt lat="45.90353" lon="6.95599">
        <ele>2277.9812012</ele>
        <time>2013-06-27T13:55:59Z</time>
      </trkpt>
      <trkpt lat="45.90353" lon="6.95598">
        <ele>2274.6166992</ele>
        <time>2013-06-27T13:56:15Z</time>
      </trkpt>
      <trkpt lat="45.90349" lon="6.95607">
        <ele>2271.732666</ele>
        <time>2013-06-27T13:56:38Z</time>
      </trkpt>
      <trkpt lat="45.90346" lon="6.95615">
        <ele>2268.3681641</ele>
        <time>2013-06-27T13:56:58Z</time>
      </trkpt>
      <trkpt lat="45.90341" lon="6.95619">
        <ele>2265.003418</ele>
        <time>2013-06-27T13:57:18Z</time>
      </trkpt>
      <trkpt lat="45.90339" lon="6.9562">
        <ele>2262.1193848</ele>
        <time>2013-06-27T13:57:39Z</time>
      </trkpt>
      <trkpt lat="45.90338" lon="6.95622">
        <ele>2259.2355957</ele>
        <time>2013-06-27T13:58:00Z</time>
      </trkpt>
      <trkpt lat="45.90337" lon="6.95621">
        <ele>2255.8708496</ele>
        <time>2013-06-27T13:58:17Z</time>
      </trkpt>
      <trkpt lat="45.90337" lon="6.95611">
        <ele>2252.9870605</ele>
        <time>2013-06-27T13:58:37Z</time>
      </trkpt>
      <trkpt lat="45.90339" lon="6.95602">
        <ele>2249.6223145</ele>
        <time>2013-06-27T13:58:57Z</time>
      </trkpt>
      <trkpt lat="45.90338" lon="6.95594">
        <ele>2246.7382813</ele>
        <time>2013-06-27T13:59:17Z</time>
      </trkpt>
      <trkpt lat="45.90336" lon="6.95591">
        <ele>2243.3737793</ele>
        <time>2013-06-27T13:59:36Z</time>
      </trkpt>
      <trkpt lat="45.90324" lon="6.956">
        <ele>2241.4511719</ele>
        <time>2013-06-27T14:00:10Z</time>
      </trkpt>
      <trkpt lat="45.90324" lon="6.9562">
        <ele>2238.0866699</ele>
        <time>2013-06-27T14:00:30Z</time>
      </trkpt>
      <trkpt lat="45.90309" lon="6.95635">
        <ele>2234.7219238</ele>
        <time>2013-06-27T14:01:02Z</time>
      </trkpt>
      <trkpt lat="45.90313" lon="6.95634">
        <ele>2231.3571777</ele>
        <time>2013-06-27T14:01:19Z</time>
      </trkpt>
      <trkpt lat="45.90326" lon="6.95621">
        <ele>2227.9926758</ele>
        <time>2013-06-27T14:01:38Z</time>
      </trkpt>
      <trkpt lat="45.90329" lon="6.95629">
        <ele>2224.6281738</ele>
        <time>2013-06-27T14:02:07Z</time>
      </trkpt>
      <trkpt lat="45.9033" lon="6.95624">
        <ele>2221.2634277</ele>
        <time>2013-06-27T14:02:26Z</time>
      </trkpt>
      <trkpt lat="45.90322" lon="6.95632">
        <ele>2218.3793945</ele>
        <time>2013-06-27T14:03:00Z</time>
      </trkpt>
      <trkpt lat="45.90314" lon="6.95636">
        <ele>2215.4956055</ele>
        <time>2013-06-27T14:03:18Z</time>
      </trkpt>
      <trkpt lat="45.90302" lon="6.95658">
        <ele>2213.5727539</ele>
        <time>2013-06-27T14:03:52Z</time>
      </trkpt>
      <trkpt lat="45.9031" lon="6.95667">
        <ele>2211.1696777</ele>
        <time>2013-06-27T14:04:39Z</time>
      </trkpt>
      <trkpt lat="45.9031" lon="6.95664">
        <ele>2210.6889648</ele>
        <time>2013-06-27T14:04:43Z</time>
      </trkpt>
      <trkpt lat="45.90269" lon="6.9564">
        <ele>2210.6889648</ele>
        <time>2013-06-27T14:04:59Z</time>
      </trkpt>
      <trkpt lat="45.90301" lon="6.95638">
        <ele>2210.6889648</ele>
        <time>2013-06-27T14:05:15Z</time>
      </trkpt>
      <trkpt lat="45.90312" lon="6.95625">
        <ele>2209.2470703</ele>
        <time>2013-06-27T14:05:32Z</time>
      </trkpt>
      <trkpt lat="45.90317" lon="6.95613">
        <ele>2207.8051758</ele>
        <time>2013-06-27T14:05:47Z</time>
      </trkpt>
      <trkpt lat="45.90311" lon="6.95623">
        <ele>2205.8823242</ele>
        <time>2013-06-27T14:06:07Z</time>
      </trkpt>
      <trkpt lat="45.90299" lon="6.95624">
        <ele>2203.4790039</ele>
        <time>2013-06-27T14:06:20Z</time>
      </trkpt>
      <trkpt lat="45.90298" lon="6.95625">
        <ele>2200.114502</ele>
        <time>2013-06-27T14:06:35Z</time>
      </trkpt>
      <trkpt lat="45.90302" lon="6.95626">
        <ele>2197.2304688</ele>
        <time>2013-06-27T14:07:33Z</time>
      </trkpt>
      <trkpt lat="45.90278" lon="6.95626">
        <ele>2193.8659668</ele>
        <time>2013-06-27T14:07:48Z</time>
      </trkpt>
      <trkpt lat="45.9022" lon="6.95597">
        <ele>2190.9819336</ele>
        <time>2013-06-27T14:08:04Z</time>
      </trkpt>
      <trkpt lat="45.90136" lon="6.95567">
        <ele>2189.5400391</ele>
        <time>2013-06-27T14:08:31Z</time>
      </trkpt>
      <trkpt lat="45.90099" lon="6.95563">
        <ele>2186.175293</ele>
        <time>2013-06-27T14:08:48Z</time>
      </trkpt>
      <trkpt lat="45.90087" lon="6.95564">
        <ele>2182.8105469</ele>
        <time>2013-06-27T14:09:15Z</time>
      </trkpt>
      <trkpt lat="45.901" lon="6.95562">
        <ele>2181.3686523</ele>
        <time>2013-06-27T14:09:23Z</time>
      </trkpt>
      <trkpt lat="45.901" lon="6.95562">
        <ele>2178.4848633</ele>
        <time>2013-06-27T14:09:41Z</time>
      </trkpt>
      <trkpt lat="45.901" lon="6.95562">
        <ele>2175.1201172</ele>
        <time>2013-06-27T14:10:33Z</time>
      </trkpt>
      <trkpt lat="45.901" lon="6.95562">
        <ele>2176.5622559</ele>
        <time>2013-06-27T14:16:56Z</time>
      </trkpt>
      <trkpt lat="45.901" lon="6.95562">
        <ele>2173.1977539</ele>
        <time>2013-06-27T14:18:22Z</time>
      </trkpt>
      <trkpt lat="45.901" lon="6.95562">
        <ele>2170.3134766</ele>
        <time>2013-06-27T14:18:57Z</time>
      </trkpt>
      <trkpt lat="45.901" lon="6.95562">
        <ele>2168.3908691</ele>
        <time>2013-06-27T14:19:25Z</time>
      </trkpt>
      <trkpt lat="45.90845" lon="6.94428">
        <ele>2167.9101563</ele>
        <time>2013-06-27T14:19:27Z</time>
      </trkpt>
      <trkpt lat="45.90869" lon="6.94396">
        <ele>2167.4294434</ele>
        <time>2013-06-27T14:19:41Z</time>
      </trkpt>
      <trkpt lat="45.90887" lon="6.94373">
        <ele>2168.3908691</ele>
        <time>2013-06-27T14:19:48Z</time>
      </trkpt>
      <trkpt lat="45.9091" lon="6.94341">
        <ele>2168.3908691</ele>
        <time>2013-06-27T14:20:01Z</time>
      </trkpt>
      <trkpt lat="45.90909" lon="6.94327">
        <ele>2166.9489746</ele>
        <time>2013-06-27T14:20:16Z</time>
      </trkpt>
      <trkpt lat="45.9092" lon="6.9431">
        <ele>2167.4294434</ele>
        <time>2013-06-27T14:20:31Z</time>
      </trkpt>
      <trkpt lat="45.90921" lon="6.94294">
        <ele>2165.5070801</ele>
        <time>2013-06-27T14:20:46Z</time>
      </trkpt>
      <trkpt lat="45.90947" lon="6.94253">
        <ele>2162.142334</ele>
        <time>2013-06-27T14:21:07Z</time>
      </trkpt>
      <trkpt lat="45.90948" lon="6.94246">
        <ele>2161.6618652</ele>
        <time>2013-06-27T14:21:09Z</time>
      </trkpt>
      <trkpt lat="45.9096" lon="6.94222">
        <ele>2161.1811523</ele>
        <time>2013-06-27T14:21:21Z</time>
      </trkpt>
      <trkpt lat="45.90962" lon="6.94215">
        <ele>2159.2585449</ele>
        <time>2013-06-27T14:21:36Z</time>
      </trkpt>
      <trkpt lat="45.90961" lon="6.94216">
        <ele>2156.8552246</ele>
        <time>2013-06-27T14:21:50Z</time>
      </trkpt>
      <trkpt lat="45.90957" lon="6.94219">
        <ele>2154.4516602</ele>
        <time>2013-06-27T14:22:08Z</time>
      </trkpt>
      <trkpt lat="45.90962" lon="6.94219">
        <ele>2152.0483398</ele>
        <time>2013-06-27T14:22:26Z</time>
      </trkpt>
      <trkpt lat="45.90959" lon="6.94218">
        <ele>2150.6064453</ele>
        <time>2013-06-27T14:22:29Z</time>
      </trkpt>
      <trkpt lat="45.90952" lon="6.94215">
        <ele>2147.7226563</ele>
        <time>2013-06-27T14:22:41Z</time>
      </trkpt>
      <trkpt lat="45.90955" lon="6.94202">
        <ele>2144.838623</ele>
        <time>2013-06-27T14:22:59Z</time>
      </trkpt>
      <trkpt lat="45.90973" lon="6.94182">
        <ele>2142.4355469</ele>
        <time>2013-06-27T14:23:17Z</time>
      </trkpt>
      <trkpt lat="45.91047" lon="6.94098">
        <ele>2141.954834</ele>
        <time>2013-06-27T14:23:29Z</time>
      </trkpt>
      <trkpt lat="45.91079" lon="6.94041">
        <ele>2139.5512695</ele>
        <time>2013-06-27T14:23:47Z</time>
      </trkpt>
      <trkpt lat="45.91094" lon="6.94001">
        <ele>2136.6672363</ele>
        <time>2013-06-27T14:24:06Z</time>
      </trkpt>
      <trkpt lat="45.91093" lon="6.94">
        <ele>2136.1867676</ele>
        <time>2013-06-27T14:24:07Z</time>
      </trkpt>
      <trkpt lat="45.91118" lon="6.93956">
        <ele>2133.3027344</ele>
        <time>2013-06-27T14:24:24Z</time>
      </trkpt>
      <trkpt lat="45.91135" lon="6.9393">
        <ele>2131.380127</ele>
        <time>2013-06-27T14:24:35Z</time>
      </trkpt>
      <trkpt lat="45.91148" lon="6.93916">
        <ele>2130.4189453</ele>
        <time>2013-06-27T14:24:41Z</time>
      </trkpt>
      <trkpt lat="45.91163" lon="6.93898">
        <ele>2129.4575195</ele>
        <time>2013-06-27T14:24:46Z</time>
      </trkpt>
      <trkpt lat="45.91187" lon="6.93877">
        <ele>2127.0544434</ele>
        <time>2013-06-27T14:24:58Z</time>
      </trkpt>
      <trkpt lat="45.91212" lon="6.93843">
        <ele>2125.6123047</ele>
        <time>2013-06-27T14:25:12Z</time>
      </trkpt>
      <trkpt lat="45.91212" lon="6.93842">
        <ele>2125.1315918</ele>
        <time>2013-06-27T14:25:14Z</time>
      </trkpt>
      <trkpt lat="45.91214" lon="6.93839">
        <ele>2124.651123</ele>
        <time>2013-06-27T14:25:16Z</time>
      </trkpt>
      <trkpt lat="45.9122" lon="6.93818">
        <ele>2121.7668457</ele>
        <time>2013-06-27T14:25:34Z</time>
      </trkpt>
      <trkpt lat="45.91236" lon="6.93812">
        <ele>2121.7668457</ele>
        <time>2013-06-27T14:25:57Z</time>
      </trkpt>
      <trkpt lat="45.91272" lon="6.93795">
        <ele>2121.7668457</ele>
        <time>2013-06-27T14:26:20Z</time>
      </trkpt>
      <trkpt lat="45.91294" lon="6.93771">
        <ele>2121.7668457</ele>
        <time>2013-06-27T14:26:49Z</time>
      </trkpt>
      <trkpt lat="45.9131" lon="6.93732">
        <ele>2121.7668457</ele>
        <time>2013-06-27T14:27:16Z</time>
      </trkpt>
      <trkpt lat="45.91333" lon="6.93716">
        <ele>2121.7668457</ele>
        <time>2013-06-27T14:27:33Z</time>
      </trkpt>
      <trkpt lat="45.9137" lon="6.93689">
        <ele>2122.2475586</ele>
        <time>2013-06-27T14:27:49Z</time>
      </trkpt>
      <trkpt lat="45.91438" lon="6.93604">
        <ele>2122.2475586</ele>
        <time>2013-06-27T14:28:17Z</time>
      </trkpt>
      <trkpt lat="45.91448" lon="6.93582">
        <ele>2122.2475586</ele>
        <time>2013-06-27T14:28:32Z</time>
      </trkpt>
      <trkpt lat="45.91465" lon="6.9358">
        <ele>2116.4797363</ele>
        <time>2013-06-27T14:28:36Z</time>
      </trkpt>
      <trkpt lat="45.91462" lon="6.93577">
        <ele>2126.0930176</ele>
        <time>2013-06-27T14:28:37Z</time>
      </trkpt>
      <trkpt lat="45.91459" lon="6.93577">
        <ele>2123.2089844</ele>
        <time>2013-06-27T14:28:38Z</time>
      </trkpt>
      <trkpt lat="45.91455" lon="6.93569">
        <ele>2122.2475586</ele>
        <time>2013-06-27T14:28:40Z</time>
      </trkpt>
      <trkpt lat="45.91509" lon="6.93533">
        <ele>2122.2475586</ele>
        <time>2013-06-27T14:29:03Z</time>
      </trkpt>
      <trkpt lat="45.91515" lon="6.93524">
        <ele>2044.3808594</ele>
        <time>2013-06-27T14:29:08Z</time>
      </trkpt>
      <trkpt lat="45.91526" lon="6.93517">
        <ele>2044.3808594</ele>
        <time>2013-06-27T14:29:09Z</time>
      </trkpt>
      <trkpt lat="45.91599" lon="6.93437">
        <ele>2043.9001465</ele>
        <time>2013-06-27T14:29:42Z</time>
      </trkpt>
      <trkpt lat="45.91606" lon="6.93432">
        <ele>2043.9001465</ele>
        <time>2013-06-27T14:29:44Z</time>
      </trkpt>
      <trkpt lat="45.92582" lon="6.92022">
        <ele>1784.3442383</ele>
        <time>2013-06-27T15:43:56Z</time>
      </trkpt>
      <trkpt lat="45.92531" lon="6.92026">
        <ele>1785.3054199</ele>
        <time>2013-06-27T15:44:08Z</time>
      </trkpt>
      <trkpt lat="45.92529" lon="6.92032">
        <ele>1787.7087402</ele>
        <time>2013-06-27T15:44:26Z</time>
      </trkpt>
      <trkpt lat="45.92535" lon="6.92026">
        <ele>1790.1123047</ele>
        <time>2013-06-27T15:44:46Z</time>
      </trkpt>
      <trkpt lat="45.92542" lon="6.92019">
        <ele>1792.515625</ele>
        <time>2013-06-27T15:45:05Z</time>
      </trkpt>
      <trkpt lat="45.92544" lon="6.92012">
        <ele>1795.880127</ele>
        <time>2013-06-27T15:45:29Z</time>
      </trkpt>
      <trkpt lat="45.92548" lon="6.92007">
        <ele>1798.2832031</ele>
        <time>2013-06-27T15:45:47Z</time>
      </trkpt>
      <trkpt lat="45.92553" lon="6.92008">
        <ele>1800.2060547</ele>
        <time>2013-06-27T15:46:01Z</time>
      </trkpt>
      <trkpt lat="45.92554" lon="6.91999">
        <ele>1802.6091309</ele>
        <time>2013-06-27T15:46:19Z</time>
      </trkpt>
      <trkpt lat="45.92558" lon="6.91995">
        <ele>1804.0515137</ele>
        <time>2013-06-27T15:46:34Z</time>
      </trkpt>
      <trkpt lat="45.92563" lon="6.91992">
        <ele>1805.973877</ele>
        <time>2013-06-27T15:46:48Z</time>
      </trkpt>
      <trkpt lat="45.92564" lon="6.91991">
        <ele>1805.973877</ele>
        <time>2013-06-27T15:47:14Z</time>
      </trkpt>
      <trkpt lat="45.92568" lon="6.9199">
        <ele>1806.4545898</ele>
        <time>2013-06-27T15:47:37Z</time>
      </trkpt>
      <trkpt lat="45.92567" lon="6.91986">
        <ele>1808.8579102</ele>
        <time>2013-06-27T15:47:58Z</time>
      </trkpt>
      <trkpt lat="45.92569" lon="6.91984">
        <ele>1811.2612305</ele>
        <time>2013-06-27T15:48:16Z</time>
      </trkpt>
      <trkpt lat="45.9257" lon="6.91981">
        <ele>1814.1450195</ele>
        <time>2013-06-27T15:48:38Z</time>
      </trkpt>
      <trkpt lat="45.92572" lon="6.91977">
        <ele>1816.5483398</ele>
        <time>2013-06-27T15:48:52Z</time>
      </trkpt>
      <trkpt lat="45.92572" lon="6.91973">
        <ele>1819.432373</ele>
        <time>2013-06-27T15:49:11Z</time>
      </trkpt>
      <trkpt lat="45.92574" lon="6.91966">
        <ele>1822.7971191</ele>
        <time>2013-06-27T15:49:35Z</time>
      </trkpt>
      <trkpt lat="45.92572" lon="6.91969">
        <ele>1825.6809082</ele>
        <time>2013-06-27T15:49:54Z</time>
      </trkpt>
      <trkpt lat="45.92576" lon="6.91966">
        <ele>1828.0842285</ele>
        <time>2013-06-27T15:50:10Z</time>
      </trkpt>
      <trkpt lat="45.92575" lon="6.91966">
        <ele>1831.4487305</ele>
        <time>2013-06-27T15:50:31Z</time>
      </trkpt>
      <trkpt lat="45.92579" lon="6.91965">
        <ele>1833.3713379</ele>
        <time>2013-06-27T15:51:10Z</time>
      </trkpt>
      <trkpt lat="45.92577" lon="6.91956">
        <ele>1834.8134766</ele>
        <time>2013-06-27T15:51:47Z</time>
      </trkpt>
      <trkpt lat="45.92577" lon="6.91954">
        <ele>1838.1782227</ele>
        <time>2013-06-27T15:52:05Z</time>
      </trkpt>
      <trkpt lat="45.92579" lon="6.91956">
        <ele>1840.5812988</ele>
        <time>2013-06-27T15:52:19Z</time>
      </trkpt>
      <trkpt lat="45.92582" lon="6.91952">
        <ele>1842.9846191</ele>
        <time>2013-06-27T15:52:38Z</time>
      </trkpt>
      <trkpt lat="45.92585" lon="6.91953">
        <ele>1844.4265137</ele>
        <time>2013-06-27T15:53:00Z</time>
      </trkpt>
      <trkpt lat="45.92588" lon="6.91946">
        <ele>1845.8686523</ele>
        <time>2013-06-27T15:53:22Z</time>
      </trkpt>
      <trkpt lat="45.92595" lon="6.91948">
        <ele>1847.7912598</ele>
        <time>2013-06-27T15:53:35Z</time>
      </trkpt>
      <trkpt lat="45.92609" lon="6.91946">
        <ele>1849.7138672</ele>
        <time>2013-06-27T15:53:58Z</time>
      </trkpt>
      <trkpt lat="45.92613" lon="6.91952">
        <ele>1849.7138672</ele>
        <time>2013-06-27T15:54:21Z</time>
      </trkpt>
      <trkpt lat="45.92617" lon="6.91957">
        <ele>1848.7524414</ele>
        <time>2013-06-27T15:54:33Z</time>
      </trkpt>
      <trkpt lat="45.92628" lon="6.91954">
        <ele>1848.2717285</ele>
        <time>2013-06-27T15:54:50Z</time>
      </trkpt>
      <trkpt lat="45.92639" lon="6.91962">
        <ele>1846.829834</ele>
        <time>2013-06-27T15:55:13Z</time>
      </trkpt>
      <trkpt lat="45.92656" lon="6.91957">
        <ele>1847.7912598</ele>
        <time>2013-06-27T15:55:36Z</time>
      </trkpt>
      <trkpt lat="45.92664" lon="6.91952">
        <ele>1846.3493652</ele>
        <time>2013-06-27T15:55:56Z</time>
      </trkpt>
      <trkpt lat="45.92662" lon="6.91948">
        <ele>1844.4265137</ele>
        <time>2013-06-27T15:56:12Z</time>
      </trkpt>
      <trkpt lat="45.92669" lon="6.91954">
        <ele>1843.465332</ele>
        <time>2013-06-27T15:56:34Z</time>
      </trkpt>
      <trkpt lat="45.92673" lon="6.91953">
        <ele>1843.465332</ele>
        <time>2013-06-27T15:56:39Z</time>
      </trkpt>
      <trkpt lat="45.92682" lon="6.91952">
        <ele>1841.5427246</ele>
        <time>2013-06-27T15:56:58Z</time>
      </trkpt>
      <trkpt lat="45.92695" lon="6.91952">
        <ele>1842.9846191</ele>
        <time>2013-06-27T15:57:17Z</time>
      </trkpt>
      <trkpt lat="45.92698" lon="6.91951">
        <ele>1842.9846191</ele>
        <time>2013-06-27T15:57:32Z</time>
      </trkpt>
      <trkpt lat="45.92701" lon="6.91953">
        <ele>1844.9072266</ele>
        <time>2013-06-27T15:57:50Z</time>
      </trkpt>
      <trkpt lat="45.92706" lon="6.9195">
        <ele>1848.2717285</ele>
        <time>2013-06-27T15:58:13Z</time>
      </trkpt>
      <trkpt lat="45.92709" lon="6.91943">
        <ele>1851.1557617</ele>
        <time>2013-06-27T15:58:35Z</time>
      </trkpt>
      <trkpt lat="45.92709" lon="6.91941">
        <ele>1854.5205078</ele>
        <time>2013-06-27T15:58:54Z</time>
      </trkpt>
      <trkpt lat="45.92707" lon="6.91939">
        <ele>1856.4431152</ele>
        <time>2013-06-27T15:59:12Z</time>
      </trkpt>
      <trkpt lat="45.92714" lon="6.91936">
        <ele>1857.8852539</ele>
        <time>2013-06-27T15:59:27Z</time>
      </trkpt>
      <trkpt lat="45.92723" lon="6.91937">
        <ele>1859.8076172</ele>
        <time>2013-06-27T15:59:49Z</time>
      </trkpt>
      <trkpt lat="45.92728" lon="6.91937">
        <ele>1860.769043</ele>
        <time>2013-06-27T16:00:03Z</time>
      </trkpt>
      <trkpt lat="45.92733" lon="6.91931">
        <ele>1864.1335449</ele>
        <time>2013-06-27T16:00:22Z</time>
      </trkpt>
      <trkpt lat="45.92739" lon="6.91932">
        <ele>1867.4980469</ele>
        <time>2013-06-27T16:00:39Z</time>
      </trkpt>
      <trkpt lat="45.9274" lon="6.9193">
        <ele>1870.3823242</ele>
        <time>2013-06-27T16:00:55Z</time>
      </trkpt>
      <trkpt lat="45.92745" lon="6.91926">
        <ele>1873.7468262</ele>
        <time>2013-06-27T16:01:13Z</time>
      </trkpt>
      <trkpt lat="45.92743" lon="6.91923">
        <ele>1876.6308594</ele>
        <time>2013-06-27T16:01:31Z</time>
      </trkpt>
      <trkpt lat="45.92746" lon="6.91918">
        <ele>1879.9953613</ele>
        <time>2013-06-27T16:01:50Z</time>
      </trkpt>
      <trkpt lat="45.92759" lon="6.91923">
        <ele>1880.4760742</ele>
        <time>2013-06-27T16:02:11Z</time>
      </trkpt>
      <trkpt lat="45.92773" lon="6.91924">
        <ele>1879.0339355</ele>
        <time>2013-06-27T16:02:33Z</time>
      </trkpt>
      <trkpt lat="45.92783" lon="6.91926">
        <ele>1876.6308594</ele>
        <time>2013-06-27T16:02:51Z</time>
      </trkpt>
      <trkpt lat="45.92795" lon="6.9193">
        <ele>1875.1887207</ele>
        <time>2013-06-27T16:03:07Z</time>
      </trkpt>
      <trkpt lat="45.92803" lon="6.91926">
        <ele>1876.6308594</ele>
        <time>2013-06-27T16:03:22Z</time>
      </trkpt>
      <trkpt lat="45.92812" lon="6.91924">
        <ele>1879.5146484</ele>
        <time>2013-06-27T16:03:42Z</time>
      </trkpt>
      <trkpt lat="45.92814" lon="6.91919">
        <ele>1880.9567871</ele>
        <time>2013-06-27T16:03:55Z</time>
      </trkpt>
      <trkpt lat="45.92826" lon="6.9192">
        <ele>1882.3986816</ele>
        <time>2013-06-27T16:04:13Z</time>
      </trkpt>
      <trkpt lat="45.92848" lon="6.91924">
        <ele>1880.9567871</ele>
        <time>2013-06-27T16:04:33Z</time>
      </trkpt>
      <trkpt lat="45.92862" lon="6.91931">
        <ele>1878.0727539</ele>
        <time>2013-06-27T16:04:53Z</time>
      </trkpt>
      <trkpt lat="45.9287" lon="6.91931">
        <ele>1877.592041</ele>
        <time>2013-06-27T16:04:59Z</time>
      </trkpt>
      <trkpt lat="45.92877" lon="6.91929">
        <ele>1878.0727539</ele>
        <time>2013-06-27T16:05:05Z</time>
      </trkpt>
      <trkpt lat="45.92884" lon="6.91925">
        <ele>1878.5534668</ele>
        <time>2013-06-27T16:05:17Z</time>
      </trkpt>
      <trkpt lat="45.92901" lon="6.91913">
        <ele>1879.5146484</ele>
        <time>2013-06-27T16:05:35Z</time>
      </trkpt>
      <trkpt lat="45.92905" lon="6.91908">
        <ele>1879.9953613</ele>
        <time>2013-06-27T16:05:41Z</time>
      </trkpt>
      <trkpt lat="45.92917" lon="6.919">
        <ele>1881.4372559</ele>
        <time>2013-06-27T16:05:55Z</time>
      </trkpt>
      <trkpt lat="45.92919" lon="6.91896">
        <ele>1882.3986816</ele>
        <time>2013-06-27T16:06:00Z</time>
      </trkpt>
      <trkpt lat="45.92924" lon="6.91892">
        <ele>1883.8405762</ele>
        <time>2013-06-27T16:06:13Z</time>
      </trkpt>
      <trkpt lat="45.92935" lon="6.91882">
        <ele>1886.2441406</ele>
        <time>2013-06-27T16:06:32Z</time>
      </trkpt>
      <trkpt lat="45.92952" lon="6.91869">
        <ele>1889.1279297</ele>
        <time>2013-06-27T16:06:55Z</time>
      </trkpt>
      <trkpt lat="45.92959" lon="6.91862">
        <ele>1891.0505371</ele>
        <time>2013-06-27T16:07:11Z</time>
      </trkpt>
      <trkpt lat="45.92953" lon="6.9186">
        <ele>1892.9731445</ele>
        <time>2013-06-27T16:07:29Z</time>
      </trkpt>
      <trkpt lat="45.92944" lon="6.9186">
        <ele>1893.9345703</ele>
        <time>2013-06-27T16:07:43Z</time>
      </trkpt>
      <trkpt lat="45.92943" lon="6.91858">
        <ele>1895.3764648</ele>
        <time>2013-06-27T16:07:58Z</time>
      </trkpt>
      <trkpt lat="45.9295" lon="6.91845">
        <ele>1897.7797852</ele>
        <time>2013-06-27T16:08:17Z</time>
      </trkpt>
      <trkpt lat="45.92956" lon="6.91837">
        <ele>1900.6638184</ele>
        <time>2013-06-27T16:08:40Z</time>
      </trkpt>
      <trkpt lat="45.92965" lon="6.9183">
        <ele>1903.0671387</ele>
        <time>2013-06-27T16:09:01Z</time>
      </trkpt>
      <trkpt lat="45.9298" lon="6.91823">
        <ele>1906.4316406</ele>
        <time>2013-06-27T16:09:30Z</time>
      </trkpt>
      <trkpt lat="45.92991" lon="6.91809">
        <ele>1909.3156738</ele>
        <time>2013-06-27T16:09:55Z</time>
      </trkpt>
      <trkpt lat="45.93" lon="6.9181">
        <ele>1911.7189941</ele>
        <time>2013-06-27T16:10:14Z</time>
      </trkpt>
      <trkpt lat="45.93015" lon="6.91799">
        <ele>1914.1220703</ele>
        <time>2013-06-27T16:10:34Z</time>
      </trkpt>
      <trkpt lat="45.93021" lon="6.91795">
        <ele>1916.0449219</ele>
        <time>2013-06-27T16:10:49Z</time>
      </trkpt>
      <trkpt lat="45.93031" lon="6.91791">
        <ele>1918.4482422</ele>
        <time>2013-06-27T16:11:10Z</time>
      </trkpt>
      <trkpt lat="45.93044" lon="6.91786">
        <ele>1920.3708496</ele>
        <time>2013-06-27T16:11:28Z</time>
      </trkpt>
      <trkpt lat="45.93058" lon="6.9178">
        <ele>1921.8127441</ele>
        <time>2013-06-27T16:11:45Z</time>
      </trkpt>
      <trkpt lat="45.93061" lon="6.91774">
        <ele>1923.7353516</ele>
        <time>2013-06-27T16:12:00Z</time>
      </trkpt>
      <trkpt lat="45.93068" lon="6.91772">
        <ele>1927.1000977</ele>
        <time>2013-06-27T16:12:22Z</time>
      </trkpt>
      <trkpt lat="45.93079" lon="6.9177">
        <ele>1929.5031738</ele>
        <time>2013-06-27T16:12:40Z</time>
      </trkpt>
      <trkpt lat="45.93087" lon="6.91768">
        <ele>1932.3874512</ele>
        <time>2013-06-27T16:12:56Z</time>
      </trkpt>
      <trkpt lat="45.93109" lon="6.91766">
        <ele>1933.3486328</ele>
        <time>2013-06-27T16:13:18Z</time>
      </trkpt>
      <trkpt lat="45.93128" lon="6.91767">
        <ele>1935.7519531</ele>
        <time>2013-06-27T16:13:41Z</time>
      </trkpt>
      <trkpt lat="45.93154" lon="6.91754">
        <ele>1937.6745605</ele>
        <time>2013-06-27T16:14:07Z</time>
      </trkpt>
      <trkpt lat="45.93187" lon="6.91758">
        <ele>1937.6745605</ele>
        <time>2013-06-27T16:14:41Z</time>
      </trkpt>
      <trkpt lat="45.93204" lon="6.91748">
        <ele>1937.6745605</ele>
        <time>2013-06-27T16:14:57Z</time>
      </trkpt>
      <trkpt lat="45.93217" lon="6.91733">
        <ele>1936.232666</ele>
        <time>2013-06-27T16:15:11Z</time>
      </trkpt>
      <trkpt lat="45.93236" lon="6.91732">
        <ele>1934.7907715</ele>
        <time>2013-06-27T16:15:28Z</time>
      </trkpt>
      <trkpt lat="45.93252" lon="6.91729">
        <ele>1933.8293457</ele>
        <time>2013-06-27T16:15:44Z</time>
      </trkpt>
      <trkpt lat="45.93255" lon="6.91727">
        <ele>1934.3100586</ele>
        <time>2013-06-27T16:15:55Z</time>
      </trkpt>
      <trkpt lat="45.93268" lon="6.91725">
        <ele>1935.2712402</ele>
        <time>2013-06-27T16:16:07Z</time>
      </trkpt>
      <trkpt lat="45.93277" lon="6.91726">
        <ele>1935.7519531</ele>
        <time>2013-06-27T16:16:14Z</time>
      </trkpt>
      <trkpt lat="45.93297" lon="6.9173">
        <ele>1934.7907715</ele>
        <time>2013-06-27T16:16:30Z</time>
      </trkpt>
      <trkpt lat="45.93316" lon="6.91731">
        <ele>1933.8293457</ele>
        <time>2013-06-27T16:16:45Z</time>
      </trkpt>
      <trkpt lat="45.93318" lon="6.91728">
        <ele>1934.3100586</ele>
        <time>2013-06-27T16:16:47Z</time>
      </trkpt>
      <trkpt lat="45.93322" lon="6.91717">
        <ele>1934.3100586</ele>
        <time>2013-06-27T16:16:55Z</time>
      </trkpt>
      <trkpt lat="45.93321" lon="6.91708">
        <ele>1933.8293457</ele>
        <time>2013-06-27T16:17:01Z</time>
      </trkpt>
      <trkpt lat="45.93328" lon="6.91674">
        <ele>1930.9453125</ele>
        <time>2013-06-27T16:17:24Z</time>
      </trkpt>
      <trkpt lat="45.93328" lon="6.9165">
        <ele>1930.4645996</ele>
        <time>2013-06-27T16:17:42Z</time>
      </trkpt>
      <trkpt lat="45.9333" lon="6.91646">
        <ele>1929.9838867</ele>
        <time>2013-06-27T16:17:45Z</time>
      </trkpt>
      <trkpt lat="45.93326" lon="6.91644">
        <ele>1927.5805664</ele>
        <time>2013-06-27T16:18:00Z</time>
      </trkpt>
      <trkpt lat="45.93335" lon="6.91656">
        <ele>1925.1772461</ele>
        <time>2013-06-27T16:18:17Z</time>
      </trkpt>
      <trkpt lat="45.93337" lon="6.91664">
        <ele>1923.2548828</ele>
        <time>2013-06-27T16:18:31Z</time>
      </trkpt>
      <trkpt lat="45.93342" lon="6.91671">
        <ele>1921.8127441</ele>
        <time>2013-06-27T16:18:49Z</time>
      </trkpt>
      <trkpt lat="45.93367" lon="6.91674">
        <ele>1918.4482422</ele>
        <time>2013-06-27T16:19:13Z</time>
      </trkpt>
      <trkpt lat="45.93386" lon="6.91675">
        <ele>1916.0449219</ele>
        <time>2013-06-27T16:19:35Z</time>
      </trkpt>
      <trkpt lat="45.9339" lon="6.91672">
        <ele>1914.1220703</ele>
        <time>2013-06-27T16:19:48Z</time>
      </trkpt>
      <trkpt lat="45.93398" lon="6.91673">
        <ele>1912.6801758</ele>
        <time>2013-06-27T16:19:55Z</time>
      </trkpt>
      <trkpt lat="45.93413" lon="6.91674">
        <ele>1909.7961426</ele>
        <time>2013-06-27T16:20:12Z</time>
      </trkpt>
      <trkpt lat="45.93425" lon="6.91678">
        <ele>1906.4316406</ele>
        <time>2013-06-27T16:20:31Z</time>
      </trkpt>
      <trkpt lat="45.93435" lon="6.91673">
        <ele>1903.5478516</ele>
        <time>2013-06-27T16:20:48Z</time>
      </trkpt>
      <trkpt lat="45.93433" lon="6.91668">
        <ele>1901.6252441</ele>
        <time>2013-06-27T16:21:01Z</time>
      </trkpt>
      <trkpt lat="45.93419" lon="6.91669">
        <ele>1898.2602539</ele>
        <time>2013-06-27T16:21:19Z</time>
      </trkpt>
      <trkpt lat="45.93408" lon="6.91651">
        <ele>1895.8571777</ele>
        <time>2013-06-27T16:21:38Z</time>
      </trkpt>
      <trkpt lat="45.93404" lon="6.91646">
        <ele>1895.3764648</ele>
        <time>2013-06-27T16:21:42Z</time>
      </trkpt>
      <trkpt lat="45.93393" lon="6.91629">
        <ele>1893.4538574</ele>
        <time>2013-06-27T16:21:59Z</time>
      </trkpt>
      <trkpt lat="45.93388" lon="6.91608">
        <ele>1891.0505371</ele>
        <time>2013-06-27T16:22:19Z</time>
      </trkpt>
      <trkpt lat="45.93387" lon="6.91592">
        <ele>1889.1279297</ele>
        <time>2013-06-27T16:22:32Z</time>
      </trkpt>
      <trkpt lat="45.93386" lon="6.91569">
        <ele>1886.7246094</ele>
        <time>2013-06-27T16:22:53Z</time>
      </trkpt>
      <trkpt lat="45.93383" lon="6.9155">
        <ele>1883.8405762</ele>
        <time>2013-06-27T16:23:11Z</time>
      </trkpt>
      <trkpt lat="45.93395" lon="6.9155">
        <ele>1880.9567871</ele>
        <time>2013-06-27T16:23:27Z</time>
      </trkpt>
      <trkpt lat="45.93405" lon="6.91551">
        <ele>1878.0727539</ele>
        <time>2013-06-27T16:23:43Z</time>
      </trkpt>
      <trkpt lat="45.9341" lon="6.91569">
        <ele>1877.1115723</ele>
        <time>2013-06-27T16:23:59Z</time>
      </trkpt>
      <trkpt lat="45.93423" lon="6.91584">
        <ele>1875.1887207</ele>
        <time>2013-06-27T16:24:16Z</time>
      </trkpt>
      <trkpt lat="45.93435" lon="6.91597">
        <ele>1874.2275391</ele>
        <time>2013-06-27T16:24:36Z</time>
      </trkpt>
      <trkpt lat="45.93434" lon="6.9159">
        <ele>1871.8242188</ele>
        <time>2013-06-27T16:24:51Z</time>
      </trkpt>
      <trkpt lat="45.93419" lon="6.91569">
        <ele>1871.3435059</ele>
        <time>2013-06-27T16:25:12Z</time>
      </trkpt>
      <trkpt lat="45.93412" lon="6.91547">
        <ele>1871.3435059</ele>
        <time>2013-06-27T16:25:30Z</time>
      </trkpt>
      <trkpt lat="45.93397" lon="6.91526">
        <ele>1871.8242188</ele>
        <time>2013-06-27T16:25:53Z</time>
      </trkpt>
      <trkpt lat="45.93398" lon="6.915">
        <ele>1869.4211426</ele>
        <time>2013-06-27T16:26:12Z</time>
      </trkpt>
      <trkpt lat="45.93413" lon="6.91504">
        <ele>1867.0175781</ele>
        <time>2013-06-27T16:26:27Z</time>
      </trkpt>
      <trkpt lat="45.93423" lon="6.91506">
        <ele>1864.6142578</ele>
        <time>2013-06-27T16:26:43Z</time>
      </trkpt>
      <trkpt lat="45.93424" lon="6.91489">
        <ele>1861.2497559</ele>
        <time>2013-06-27T16:27:01Z</time>
      </trkpt>
      <trkpt lat="45.93431" lon="6.91489">
        <ele>1858.3657227</ele>
        <time>2013-06-27T16:27:15Z</time>
      </trkpt>
      <trkpt lat="45.93429" lon="6.91476">
        <ele>1855.4819336</ele>
        <time>2013-06-27T16:27:30Z</time>
      </trkpt>
      <trkpt lat="45.93439" lon="6.91468">
        <ele>1853.0786133</ele>
        <time>2013-06-27T16:27:43Z</time>
      </trkpt>
      <trkpt lat="45.93452" lon="6.91462">
        <ele>1850.6750488</ele>
        <time>2013-06-27T16:27:57Z</time>
      </trkpt>
      <trkpt lat="45.93465" lon="6.91464">
        <ele>1847.3105469</ele>
        <time>2013-06-27T16:28:15Z</time>
      </trkpt>
      <trkpt lat="45.93473" lon="6.91482">
        <ele>1844.4265137</ele>
        <time>2013-06-27T16:28:32Z</time>
      </trkpt>
      <trkpt lat="45.93486" lon="6.91492">
        <ele>1841.0620117</ele>
        <time>2013-06-27T16:28:49Z</time>
      </trkpt>
      <trkpt lat="45.93492" lon="6.91504">
        <ele>1838.1782227</ele>
        <time>2013-06-27T16:29:06Z</time>
      </trkpt>
      <trkpt lat="45.93502" lon="6.9152">
        <ele>1835.2939453</ele>
        <time>2013-06-27T16:29:24Z</time>
      </trkpt>
      <trkpt lat="45.93508" lon="6.91527">
        <ele>1831.9294434</ele>
        <time>2013-06-27T16:29:39Z</time>
      </trkpt>
      <trkpt lat="45.93516" lon="6.91526">
        <ele>1828.5649414</ele>
        <time>2013-06-27T16:29:56Z</time>
      </trkpt>
      <trkpt lat="45.93516" lon="6.91499">
        <ele>1825.6809082</ele>
        <time>2013-06-27T16:30:11Z</time>
      </trkpt>
      <trkpt lat="45.93515" lon="6.91483">
        <ele>1824.7197266</ele>
        <time>2013-06-27T16:30:27Z</time>
      </trkpt>
      <trkpt lat="45.93519" lon="6.91469">
        <ele>1822.7971191</ele>
        <time>2013-06-27T16:30:41Z</time>
      </trkpt>
      <trkpt lat="45.93522" lon="6.91458">
        <ele>1819.9128418</ele>
        <time>2013-06-27T16:30:57Z</time>
      </trkpt>
      <trkpt lat="45.9353" lon="6.91472">
        <ele>1817.0290527</ele>
        <time>2013-06-27T16:31:12Z</time>
      </trkpt>
      <trkpt lat="45.93531" lon="6.91498">
        <ele>1814.6257324</ele>
        <time>2013-06-27T16:31:31Z</time>
      </trkpt>
      <trkpt lat="45.93546" lon="6.91522">
        <ele>1811.2612305</ele>
        <time>2013-06-27T16:31:52Z</time>
      </trkpt>
      <trkpt lat="45.93552" lon="6.91519">
        <ele>1807.8967285</ele>
        <time>2013-06-27T16:32:13Z</time>
      </trkpt>
      <trkpt lat="45.93557" lon="6.91487">
        <ele>1805.0126953</ele>
        <time>2013-06-27T16:32:34Z</time>
      </trkpt>
      <trkpt lat="45.93565" lon="6.9147">
        <ele>1802.6091309</ele>
        <time>2013-06-27T16:32:54Z</time>
      </trkpt>
      <trkpt lat="45.93571" lon="6.91477">
        <ele>1799.7253418</ele>
        <time>2013-06-27T16:33:09Z</time>
      </trkpt>
      <trkpt lat="45.93572" lon="6.91496">
        <ele>1796.3608398</ele>
        <time>2013-06-27T16:33:27Z</time>
      </trkpt>
      <trkpt lat="45.93579" lon="6.91517">
        <ele>1794.4379883</ele>
        <time>2013-06-27T16:33:43Z</time>
      </trkpt>
      <trkpt lat="45.9359" lon="6.91522">
        <ele>1791.0734863</ele>
        <time>2013-06-27T16:33:58Z</time>
      </trkpt>
      <trkpt lat="45.93596" lon="6.91527">
        <ele>1788.1896973</ele>
        <time>2013-06-27T16:34:14Z</time>
      </trkpt>
      <trkpt lat="45.93589" lon="6.91498">
        <ele>1784.8249512</ele>
        <time>2013-06-27T16:34:34Z</time>
      </trkpt>
      <trkpt lat="45.9359" lon="6.91507">
        <ele>1781.4602051</ele>
        <time>2013-06-27T16:34:50Z</time>
      </trkpt>
      <trkpt lat="45.9359" lon="6.91512">
        <ele>1779.5375977</ele>
        <time>2013-06-27T16:35:04Z</time>
      </trkpt>
      <trkpt lat="45.93611" lon="6.91502">
        <ele>1777.1345215</ele>
        <time>2013-06-27T16:35:20Z</time>
      </trkpt>
      <trkpt lat="45.93616" lon="6.91505">
        <ele>1773.7697754</ele>
        <time>2013-06-27T16:35:37Z</time>
      </trkpt>
      <trkpt lat="45.93613" lon="6.91497">
        <ele>1771.3662109</ele>
        <time>2013-06-27T16:35:57Z</time>
      </trkpt>
      <trkpt lat="45.93615" lon="6.91476">
        <ele>1768.9631348</ele>
        <time>2013-06-27T16:36:18Z</time>
      </trkpt>
      <trkpt lat="45.93618" lon="6.91458">
        <ele>1765.1179199</ele>
        <time>2013-06-27T16:36:36Z</time>
      </trkpt>
      <trkpt lat="45.93619" lon="6.91459">
        <ele>1762.2338867</ele>
        <time>2013-06-27T16:36:54Z</time>
      </trkpt>
      <trkpt lat="45.93629" lon="6.91486">
        <ele>1760.3112793</ele>
        <time>2013-06-27T16:37:08Z</time>
      </trkpt>
      <trkpt lat="45.93629" lon="6.91492">
        <ele>1758.8693848</ele>
        <time>2013-06-27T16:37:13Z</time>
      </trkpt>
      <trkpt lat="45.93637" lon="6.915">
        <ele>1755.5046387</ele>
        <time>2013-06-27T16:37:29Z</time>
      </trkpt>
      <trkpt lat="45.93637" lon="6.91499">
        <ele>1752.6206055</ele>
        <time>2013-06-27T16:37:47Z</time>
      </trkpt>
      <trkpt lat="45.93641" lon="6.91506">
        <ele>1749.2561035</ele>
        <time>2013-06-27T16:38:09Z</time>
      </trkpt>
      <trkpt lat="45.93647" lon="6.91514">
        <ele>1745.8916016</ele>
        <time>2013-06-27T16:38:26Z</time>
      </trkpt>
      <trkpt lat="45.9365" lon="6.91535">
        <ele>1744.4494629</ele>
        <time>2013-06-27T16:38:44Z</time>
      </trkpt>
      <trkpt lat="45.93654" lon="6.91549">
        <ele>1747.3334961</ele>
        <time>2013-06-27T16:39:03Z</time>
      </trkpt>
      <trkpt lat="45.93661" lon="6.91562">
        <ele>1748.7753906</ele>
        <time>2013-06-27T16:39:17Z</time>
      </trkpt>
      <trkpt lat="45.93666" lon="6.91578">
        <ele>1750.697998</ele>
        <time>2013-06-27T16:39:38Z</time>
      </trkpt>
      <trkpt lat="45.93678" lon="6.91593">
        <ele>1750.2175293</ele>
        <time>2013-06-27T16:40:02Z</time>
      </trkpt>
      <trkpt lat="45.93695" lon="6.91604">
        <ele>1746.8527832</ele>
        <time>2013-06-27T16:40:17Z</time>
      </trkpt>
      <trkpt lat="45.93696" lon="6.91575">
        <ele>1743.4882813</ele>
        <time>2013-06-27T16:40:40Z</time>
      </trkpt>
      <trkpt lat="45.93692" lon="6.91592">
        <ele>1740.604248</ele>
        <time>2013-06-27T16:40:53Z</time>
      </trkpt>
      <trkpt lat="45.93703" lon="6.91611">
        <ele>1738.6816406</ele>
        <time>2013-06-27T16:41:13Z</time>
      </trkpt>
      <trkpt lat="45.93715" lon="6.91631">
        <ele>1740.1237793</ele>
        <time>2013-06-27T16:41:35Z</time>
      </trkpt>
      <trkpt lat="45.93716" lon="6.91635">
        <ele>1736.7587891</ele>
        <time>2013-06-27T16:41:48Z</time>
      </trkpt>
      <trkpt lat="45.93712" lon="6.91649">
        <ele>1738.6816406</ele>
        <time>2013-06-27T16:42:08Z</time>
      </trkpt>
      <trkpt lat="45.93723" lon="6.91661">
        <ele>1737.239502</ele>
        <time>2013-06-27T16:42:24Z</time>
      </trkpt>
      <trkpt lat="45.93731" lon="6.91672">
        <ele>1734.8364258</ele>
        <time>2013-06-27T16:42:40Z</time>
      </trkpt>
      <trkpt lat="45.93715" lon="6.91652">
        <ele>1732.4331055</ele>
        <time>2013-06-27T16:42:59Z</time>
      </trkpt>
      <trkpt lat="45.93706" lon="6.91663">
        <ele>1730.0297852</ele>
        <time>2013-06-27T16:43:16Z</time>
      </trkpt>
      <trkpt lat="45.93713" lon="6.91672">
        <ele>1728.5878906</ele>
        <time>2013-06-27T16:43:29Z</time>
      </trkpt>
      <trkpt lat="45.93716" lon="6.91675">
        <ele>1725.7038574</ele>
        <time>2013-06-27T16:43:45Z</time>
      </trkpt>
      <trkpt lat="45.93723" lon="6.91671">
        <ele>1723.3005371</ele>
        <time>2013-06-27T16:43:58Z</time>
      </trkpt>
      <trkpt lat="45.93721" lon="6.91667">
        <ele>1719.935791</ele>
        <time>2013-06-27T16:44:14Z</time>
      </trkpt>
      <trkpt lat="45.93723" lon="6.91671">
        <ele>1717.5324707</ele>
        <time>2013-06-27T16:44:28Z</time>
      </trkpt>
      <trkpt lat="45.93724" lon="6.91677">
        <ele>1714.1679688</ele>
        <time>2013-06-27T16:44:43Z</time>
      </trkpt>
      <trkpt lat="45.93726" lon="6.91678">
        <ele>1711.2841797</ele>
        <time>2013-06-27T16:45:00Z</time>
      </trkpt>
      <trkpt lat="45.93735" lon="6.91675">
        <ele>1708.4001465</ele>
        <time>2013-06-27T16:45:14Z</time>
      </trkpt>
      <trkpt lat="45.93738" lon="6.91675">
        <ele>1705.5161133</ele>
        <time>2013-06-27T16:45:29Z</time>
      </trkpt>
      <trkpt lat="45.93743" lon="6.91668">
        <ele>1702.6320801</ele>
        <time>2013-06-27T16:45:46Z</time>
      </trkpt>
      <trkpt lat="45.93746" lon="6.9167">
        <ele>1701.6708984</ele>
        <time>2013-06-27T16:45:52Z</time>
      </trkpt>
      <trkpt lat="45.9375" lon="6.91677">
        <ele>1702.1513672</ele>
        <time>2013-06-27T16:46:06Z</time>
      </trkpt>
      <trkpt lat="45.93755" lon="6.91677">
        <ele>1698.7868652</ele>
        <time>2013-06-27T16:46:20Z</time>
      </trkpt>
      <trkpt lat="45.93759" lon="6.91678">
        <ele>1695.9030762</ele>
        <time>2013-06-27T16:46:39Z</time>
      </trkpt>
      <trkpt lat="45.93761" lon="6.91686">
        <ele>1693.4997559</ele>
        <time>2013-06-27T16:46:55Z</time>
      </trkpt>
      <trkpt lat="45.93769" lon="6.91688">
        <ele>1692.0578613</ele>
        <time>2013-06-27T16:47:07Z</time>
      </trkpt>
      <trkpt lat="45.93776" lon="6.91686">
        <ele>1689.6542969</ele>
        <time>2013-06-27T16:47:21Z</time>
      </trkpt>
      <trkpt lat="45.93783" lon="6.91688">
        <ele>1686.2897949</ele>
        <time>2013-06-27T16:47:35Z</time>
      </trkpt>
      <trkpt lat="45.93787" lon="6.91691">
        <ele>1683.8864746</ele>
        <time>2013-06-27T16:47:52Z</time>
      </trkpt>
      <trkpt lat="45.93789" lon="6.91688">
        <ele>1681.0026855</ele>
        <time>2013-06-27T16:48:06Z</time>
      </trkpt>
      <trkpt lat="45.93799" lon="6.91688">
        <ele>1678.1186523</ele>
        <time>2013-06-27T16:48:24Z</time>
      </trkpt>
      <trkpt lat="45.93799" lon="6.91687">
        <ele>1674.7539063</ele>
        <time>2013-06-27T16:48:47Z</time>
      </trkpt>
      <trkpt lat="45.93806" lon="6.91692">
        <ele>1672.8312988</ele>
        <time>2013-06-27T16:49:05Z</time>
      </trkpt>
      <trkpt lat="45.93811" lon="6.91688">
        <ele>1669.4667969</ele>
        <time>2013-06-27T16:49:21Z</time>
      </trkpt>
      <trkpt lat="45.93817" lon="6.91692">
        <ele>1669.4667969</ele>
        <time>2013-06-27T16:49:28Z</time>
      </trkpt>
      <trkpt lat="45.93829" lon="6.91688">
        <ele>1668.986084</ele>
        <time>2013-06-27T16:49:45Z</time>
      </trkpt>
      <trkpt lat="45.93835" lon="6.917">
        <ele>1668.0246582</ele>
        <time>2013-06-27T16:49:59Z</time>
      </trkpt>
      <trkpt lat="45.9384" lon="6.91697">
        <ele>1666.1020508</ele>
        <time>2013-06-27T16:50:13Z</time>
      </trkpt>
      <trkpt lat="45.93848" lon="6.91696">
        <ele>1664.1794434</ele>
        <time>2013-06-27T16:50:27Z</time>
      </trkpt>
      <trkpt lat="45.93845" lon="6.91689">
        <ele>1661.7763672</ele>
        <time>2013-06-27T16:50:40Z</time>
      </trkpt>
      <trkpt lat="45.93853" lon="6.91708">
        <ele>1659.3728027</ele>
        <time>2013-06-27T16:50:58Z</time>
      </trkpt>
      <trkpt lat="45.93858" lon="6.91706">
        <ele>1658.411377</ele>
        <time>2013-06-27T16:51:02Z</time>
      </trkpt>
      <trkpt lat="45.93871" lon="6.91706">
        <ele>1658.411377</ele>
        <time>2013-06-27T16:51:18Z</time>
      </trkpt>
      <trkpt lat="45.93892" lon="6.91713">
        <ele>1657.9309082</ele>
        <time>2013-06-27T16:51:35Z</time>
      </trkpt>
      <trkpt lat="45.93899" lon="6.91714">
        <ele>1656.9694824</ele>
        <time>2013-06-27T16:51:43Z</time>
      </trkpt>
      <trkpt lat="45.93911" lon="6.91715">
        <ele>1655.5275879</ele>
        <time>2013-06-27T16:51:51Z</time>
      </trkpt>
      <trkpt lat="45.93917" lon="6.91717">
        <ele>1655.046875</ele>
        <time>2013-06-27T16:51:56Z</time>
      </trkpt>
      <trkpt lat="45.93928" lon="6.91719">
        <ele>1654.0856934</ele>
        <time>2013-06-27T16:52:05Z</time>
      </trkpt>
      <trkpt lat="45.93944" lon="6.91727">
        <ele>1652.1628418</ele>
        <time>2013-06-27T16:52:22Z</time>
      </trkpt>
      <trkpt lat="45.9396" lon="6.91723">
        <ele>1648.7983398</ele>
        <time>2013-06-27T16:52:39Z</time>
      </trkpt>
      <trkpt lat="45.93959" lon="6.9172">
        <ele>1648.7983398</ele>
        <time>2013-06-27T16:52:41Z</time>
      </trkpt>
      <trkpt lat="45.93969" lon="6.91714">
        <ele>1647.8371582</ele>
        <time>2013-06-27T16:52:53Z</time>
      </trkpt>
      <trkpt lat="45.93974" lon="6.91699">
        <ele>1645.4338379</ele>
        <time>2013-06-27T16:53:08Z</time>
      </trkpt>
      <trkpt lat="45.93973" lon="6.91689">
        <ele>1643.5109863</ele>
        <time>2013-06-27T16:53:21Z</time>
      </trkpt>
      <trkpt lat="45.93974" lon="6.9168">
        <ele>1640.6269531</ele>
        <time>2013-06-27T16:53:34Z</time>
      </trkpt>
      <trkpt lat="45.93974" lon="6.91667">
        <ele>1638.223877</ele>
        <time>2013-06-27T16:53:50Z</time>
      </trkpt>
      <trkpt lat="45.93975" lon="6.91648">
        <ele>1636.3012695</ele>
        <time>2013-06-27T16:54:07Z</time>
      </trkpt>
      <trkpt lat="45.93969" lon="6.91648">
        <ele>1634.3786621</ele>
        <time>2013-06-27T16:54:20Z</time>
      </trkpt>
      <trkpt lat="45.93963" lon="6.91649">
        <ele>1633.4172363</ele>
        <time>2013-06-27T16:54:26Z</time>
      </trkpt>
      <trkpt lat="45.9396" lon="6.91643">
        <ele>1632.4560547</ele>
        <time>2013-06-27T16:54:31Z</time>
      </trkpt>
      <trkpt lat="45.93954" lon="6.91633">
        <ele>1629.5720215</ele>
        <time>2013-06-27T16:54:47Z</time>
      </trkpt>
      <trkpt lat="45.93947" lon="6.91626">
        <ele>1626.6879883</ele>
        <time>2013-06-27T16:55:00Z</time>
      </trkpt>
      <trkpt lat="45.93946" lon="6.91626">
        <ele>1626.6879883</ele>
        <time>2013-06-27T16:55:01Z</time>
      </trkpt>
      <trkpt lat="45.93945" lon="6.91624">
        <ele>1626.6879883</ele>
        <time>2013-06-27T16:55:03Z</time>
      </trkpt>
      <trkpt lat="45.93942" lon="6.91621">
        <ele>1626.2072754</ele>
        <time>2013-06-27T16:55:06Z</time>
      </trkpt>
      <trkpt lat="45.93943" lon="6.91617">
        <ele>1625.7265625</ele>
        <time>2013-06-27T16:55:09Z</time>
      </trkpt>
      <trkpt lat="45.9394" lon="6.91612">
        <ele>1625.2458496</ele>
        <time>2013-06-27T16:55:13Z</time>
      </trkpt>
      <trkpt lat="45.9394" lon="6.91608">
        <ele>1624.7653809</ele>
        <time>2013-06-27T16:55:15Z</time>
      </trkpt>
      <trkpt lat="45.93937" lon="6.91605">
        <ele>1624.7653809</ele>
        <time>2013-06-27T16:55:18Z</time>
      </trkpt>
      <trkpt lat="45.93934" lon="6.91584">
        <ele>1623.3234863</ele>
        <time>2013-06-27T16:55:36Z</time>
      </trkpt>
      <trkpt lat="45.93931" lon="6.91576">
        <ele>1620.920166</ele>
        <time>2013-06-27T16:55:50Z</time>
      </trkpt>
      <trkpt lat="45.93927" lon="6.91571">
        <ele>1619.9587402</ele>
        <time>2013-06-27T16:55:56Z</time>
      </trkpt>
      <trkpt lat="45.93917" lon="6.9156">
        <ele>1617.5554199</ele>
        <time>2013-06-27T16:56:10Z</time>
      </trkpt>
      <trkpt lat="45.93911" lon="6.91556">
        <ele>1614.6716309</ele>
        <time>2013-06-27T16:56:25Z</time>
      </trkpt>
      <trkpt lat="45.93903" lon="6.91554">
        <ele>1611.3068848</ele>
        <time>2013-06-27T16:56:44Z</time>
      </trkpt>
      <trkpt lat="45.93895" lon="6.91544">
        <ele>1608.9035645</ele>
        <time>2013-06-27T16:57:00Z</time>
      </trkpt>
      <trkpt lat="45.93884" lon="6.9154">
        <ele>1607.4616699</ele>
        <time>2013-06-27T16:57:12Z</time>
      </trkpt>
      <trkpt lat="45.93874" lon="6.91538">
        <ele>1606.5002441</ele>
        <time>2013-06-27T16:57:20Z</time>
      </trkpt>
      <trkpt lat="45.93861" lon="6.91532">
        <ele>1604.097168</ele>
        <time>2013-06-27T16:57:33Z</time>
      </trkpt>
      <trkpt lat="45.93855" lon="6.91528">
        <ele>1603.6164551</ele>
        <time>2013-06-27T16:57:42Z</time>
      </trkpt>
      <trkpt lat="45.93849" lon="6.91519">
        <ele>1602.1743164</ele>
        <time>2013-06-27T16:57:57Z</time>
      </trkpt>
      <trkpt lat="45.93836" lon="6.91501">
        <ele>1598.8098145</ele>
        <time>2013-06-27T16:58:17Z</time>
      </trkpt>
      <trkpt lat="45.93839" lon="6.91486">
        <ele>1595.4450684</ele>
        <time>2013-06-27T16:58:28Z</time>
      </trkpt>
      <trkpt lat="45.93836" lon="6.91477">
        <ele>1594.0031738</ele>
        <time>2013-06-27T16:58:34Z</time>
      </trkpt>
      <trkpt lat="45.93847" lon="6.91471">
        <ele>1590.157959</ele>
        <time>2013-06-27T16:58:47Z</time>
      </trkpt>
      <trkpt lat="45.93857" lon="6.91467">
        <ele>1587.2739258</ele>
        <time>2013-06-27T16:59:01Z</time>
      </trkpt>
      <trkpt lat="45.93866" lon="6.91465">
        <ele>1583.9094238</ele>
        <time>2013-06-27T16:59:13Z</time>
      </trkpt>
      <trkpt lat="45.93878" lon="6.91464">
        <ele>1580.5449219</ele>
        <time>2013-06-27T16:59:28Z</time>
      </trkpt>
      <trkpt lat="45.93883" lon="6.91464">
        <ele>1579.1025391</ele>
        <time>2013-06-27T16:59:36Z</time>
      </trkpt>
      <trkpt lat="45.93902" lon="6.91472">
        <ele>1578.6220703</ele>
        <time>2013-06-27T16:59:57Z</time>
      </trkpt>
      <trkpt lat="45.93912" lon="6.91475">
        <ele>1575.2573242</ele>
        <time>2013-06-27T17:00:11Z</time>
      </trkpt>
      <trkpt lat="45.93928" lon="6.9148">
        <ele>1572.3735352</ele>
        <time>2013-06-27T17:00:29Z</time>
      </trkpt>
      <trkpt lat="45.93937" lon="6.91487">
        <ele>1570.4509277</ele>
        <time>2013-06-27T17:00:44Z</time>
      </trkpt>
      <trkpt lat="45.93944" lon="6.91491">
        <ele>1567.5668945</ele>
        <time>2013-06-27T17:00:56Z</time>
      </trkpt>
      <trkpt lat="45.9396" lon="6.9149">
        <ele>1564.2023926</ele>
        <time>2013-06-27T17:01:16Z</time>
      </trkpt>
      <trkpt lat="45.93962" lon="6.91489">
        <ele>1562.7602539</ele>
        <time>2013-06-27T17:01:21Z</time>
      </trkpt>
      <trkpt lat="45.93962" lon="6.91487">
        <ele>1562.279541</ele>
        <time>2013-06-27T17:01:23Z</time>
      </trkpt>
      <trkpt lat="45.93959" lon="6.91484">
        <ele>1562.279541</ele>
        <time>2013-06-27T17:01:27Z</time>
      </trkpt>
      <trkpt lat="45.93957" lon="6.91483">
        <ele>1562.279541</ele>
        <time>2013-06-27T17:01:29Z</time>
      </trkpt>
      <trkpt lat="45.93951" lon="6.91482">
        <ele>1561.3183594</ele>
        <time>2013-06-27T17:01:35Z</time>
      </trkpt>
      <trkpt lat="45.93945" lon="6.91483">
        <ele>1560.3569336</ele>
        <time>2013-06-27T17:01:39Z</time>
      </trkpt>
      <trkpt lat="45.93939" lon="6.91473">
        <ele>1558.4343262</ele>
        <time>2013-06-27T17:01:50Z</time>
      </trkpt>
      <trkpt lat="45.93932" lon="6.91464">
        <ele>1555.5505371</ele>
        <time>2013-06-27T17:02:04Z</time>
      </trkpt>
      <trkpt lat="45.93932" lon="6.91463">
        <ele>1555.5505371</ele>
        <time>2013-06-27T17:02:05Z</time>
      </trkpt>
      <trkpt lat="45.93929" lon="6.91461">
        <ele>1555.0698242</ele>
        <time>2013-06-27T17:02:07Z</time>
      </trkpt>
      <trkpt lat="45.93922" lon="6.91452">
        <ele>1553.6279297</ele>
        <time>2013-06-27T17:02:17Z</time>
      </trkpt>
      <trkpt lat="45.9391" lon="6.91425">
        <ele>1551.7053223</ele>
        <time>2013-06-27T17:02:38Z</time>
      </trkpt>
      <trkpt lat="45.93896" lon="6.91414">
        <ele>1549.302002</ele>
        <time>2013-06-27T17:02:57Z</time>
      </trkpt>
      <trkpt lat="45.9389" lon="6.91401">
        <ele>1547.8598633</ele>
        <time>2013-06-27T17:03:11Z</time>
      </trkpt>
      <trkpt lat="45.93879" lon="6.91395">
        <ele>1544.4951172</ele>
        <time>2013-06-27T17:03:22Z</time>
      </trkpt>
      <trkpt lat="45.93875" lon="6.91395">
        <ele>1543.5339355</ele>
        <time>2013-06-27T17:03:26Z</time>
      </trkpt>
      <trkpt lat="45.93861" lon="6.91389">
        <ele>1542.092041</ele>
        <time>2013-06-27T17:03:43Z</time>
      </trkpt>
      <trkpt lat="45.93849" lon="6.91384">
        <ele>1539.2080078</ele>
        <time>2013-06-27T17:04:00Z</time>
      </trkpt>
      <trkpt lat="45.93839" lon="6.91366">
        <ele>1535.8435059</ele>
        <time>2013-06-27T17:04:21Z</time>
      </trkpt>
      <trkpt lat="45.93836" lon="6.91357">
        <ele>1532.9594727</ele>
        <time>2013-06-27T17:04:37Z</time>
      </trkpt>
      <trkpt lat="45.93827" lon="6.91337">
        <ele>1529.5947266</ele>
        <time>2013-06-27T17:04:50Z</time>
      </trkpt>
      <trkpt lat="45.93828" lon="6.91334">
        <ele>1528.6335449</ele>
        <time>2013-06-27T17:04:52Z</time>
      </trkpt>
      <trkpt lat="45.93827" lon="6.91323">
        <ele>1526.2302246</ele>
        <time>2013-06-27T17:05:01Z</time>
      </trkpt>
      <trkpt lat="45.93817" lon="6.91283">
        <ele>1523.8269043</ele>
        <time>2013-06-27T17:05:23Z</time>
      </trkpt>
      <trkpt lat="45.93809" lon="6.91252">
        <ele>1524.3076172</ele>
        <time>2013-06-27T17:05:45Z</time>
      </trkpt>
      <trkpt lat="45.938" lon="6.91235">
        <ele>1521.423584</ele>
        <time>2013-06-27T17:06:01Z</time>
      </trkpt>
      <trkpt lat="45.93789" lon="6.91219">
        <ele>1519.0205078</ele>
        <time>2013-06-27T17:06:14Z</time>
      </trkpt>
      <trkpt lat="45.93785" lon="6.912">
        <ele>1517.0979004</ele>
        <time>2013-06-27T17:06:27Z</time>
      </trkpt>
      <trkpt lat="45.93786" lon="6.91193">
        <ele>1517.0979004</ele>
        <time>2013-06-27T17:06:31Z</time>
      </trkpt>
      <trkpt lat="45.93784" lon="6.9119">
        <ele>1516.1364746</ele>
        <time>2013-06-27T17:06:34Z</time>
      </trkpt>
      <trkpt lat="45.93781" lon="6.91175">
        <ele>1514.213623</ele>
        <time>2013-06-27T17:06:44Z</time>
      </trkpt>
      <trkpt lat="45.9378" lon="6.91167">
        <ele>1513.7329102</ele>
        <time>2013-06-27T17:06:48Z</time>
      </trkpt>
      <trkpt lat="45.9377" lon="6.91152">
        <ele>1512.2910156</ele>
        <time>2013-06-27T17:06:58Z</time>
      </trkpt>
      <trkpt lat="45.93767" lon="6.91129">
        <ele>1510.3684082</ele>
        <time>2013-06-27T17:07:13Z</time>
      </trkpt>
      <trkpt lat="45.9377" lon="6.91116">
        <ele>1509.4072266</ele>
        <time>2013-06-27T17:07:20Z</time>
      </trkpt>
      <trkpt lat="45.93772" lon="6.91101">
        <ele>1508.9265137</ele>
        <time>2013-06-27T17:07:29Z</time>
      </trkpt>
      <trkpt lat="45.93774" lon="6.91095">
        <ele>1508.9265137</ele>
        <time>2013-06-27T17:07:32Z</time>
      </trkpt>
      <trkpt lat="45.93777" lon="6.91079">
        <ele>1507.965332</ele>
        <time>2013-06-27T17:07:42Z</time>
      </trkpt>
      <trkpt lat="45.93778" lon="6.91069">
        <ele>1506.5231934</ele>
        <time>2013-06-27T17:07:51Z</time>
      </trkpt>
      <trkpt lat="45.93768" lon="6.91048">
        <ele>1505.0812988</ele>
        <time>2013-06-27T17:08:06Z</time>
      </trkpt>
      <trkpt lat="45.93757" lon="6.91029">
        <ele>1503.6394043</ele>
        <time>2013-06-27T17:08:20Z</time>
      </trkpt>
      <trkpt lat="45.93756" lon="6.91025">
        <ele>1503.1586914</ele>
        <time>2013-06-27T17:08:24Z</time>
      </trkpt>
      <trkpt lat="45.93752" lon="6.91005">
        <ele>1502.1972656</ele>
        <time>2013-06-27T17:08:35Z</time>
      </trkpt>
      <trkpt lat="45.9375" lon="6.91002">
        <ele>1502.1972656</ele>
        <time>2013-06-27T17:08:37Z</time>
      </trkpt>
      <trkpt lat="45.93748" lon="6.90996">
        <ele>1502.1972656</ele>
        <time>2013-06-27T17:08:42Z</time>
      </trkpt>
      <trkpt lat="45.93748" lon="6.90988">
        <ele>1501.7167969</ele>
        <time>2013-06-27T17:08:47Z</time>
      </trkpt>
      <trkpt lat="45.9375" lon="6.90971">
        <ele>1500.7553711</ele>
        <time>2013-06-27T17:08:58Z</time>
      </trkpt>
      <trkpt lat="45.93752" lon="6.90967">
        <ele>1500.7553711</ele>
        <time>2013-06-27T17:09:01Z</time>
      </trkpt>
      <trkpt lat="45.93748" lon="6.90945">
        <ele>1499.7939453</ele>
        <time>2013-06-27T17:09:14Z</time>
      </trkpt>
      <trkpt lat="45.9374" lon="6.90929">
        <ele>1498.8325195</ele>
        <time>2013-06-27T17:09:28Z</time>
      </trkpt>
      <trkpt lat="45.93732" lon="6.90896">
        <ele>1497.390625</ele>
        <time>2013-06-27T17:09:48Z</time>
      </trkpt>
      <trkpt lat="45.93728" lon="6.90883">
        <ele>1496.9099121</ele>
        <time>2013-06-27T17:09:56Z</time>
      </trkpt>
      <trkpt lat="45.93729" lon="6.90877">
        <ele>1496.9099121</ele>
        <time>2013-06-27T17:09:59Z</time>
      </trkpt>
      <trkpt lat="45.93728" lon="6.9086">
        <ele>1496.9099121</ele>
        <time>2013-06-27T17:10:13Z</time>
      </trkpt>
      <trkpt lat="45.93718" lon="6.90831">
        <ele>1496.4294434</ele>
        <time>2013-06-27T17:10:32Z</time>
      </trkpt>
      <trkpt lat="45.93719" lon="6.90822">
        <ele>1495.9487305</ele>
        <time>2013-06-27T17:10:38Z</time>
      </trkpt>
      <trkpt lat="45.93709" lon="6.9079">
        <ele>1494.5065918</ele>
        <time>2013-06-27T17:10:57Z</time>
      </trkpt>
      <trkpt lat="45.93706" lon="6.90783">
        <ele>1494.026123</ele>
        <time>2013-06-27T17:11:02Z</time>
      </trkpt>
      <trkpt lat="45.93708" lon="6.90777">
        <ele>1494.026123</ele>
        <time>2013-06-27T17:11:05Z</time>
      </trkpt>
      <trkpt lat="45.93698" lon="6.90757">
        <ele>1493.0646973</ele>
        <time>2013-06-27T17:11:20Z</time>
      </trkpt>
      <trkpt lat="45.93697" lon="6.90755">
        <ele>1493.0646973</ele>
        <time>2013-06-27T17:11:23Z</time>
      </trkpt>
      <trkpt lat="45.93694" lon="6.90738">
        <ele>1491.1420898</ele>
        <time>2013-06-27T17:11:44Z</time>
      </trkpt>
      <trkpt lat="45.93705" lon="6.9074">
        <ele>1487.7775879</ele>
        <time>2013-06-27T17:11:58Z</time>
      </trkpt>
      <trkpt lat="45.93714" lon="6.9075">
        <ele>1484.4130859</ele>
        <time>2013-06-27T17:12:14Z</time>
      </trkpt>
      <trkpt lat="45.93724" lon="6.90763">
        <ele>1481.5288086</ele>
        <time>2013-06-27T17:12:33Z</time>
      </trkpt>
      <trkpt lat="45.93739" lon="6.90776">
        <ele>1478.1643066</ele>
        <time>2013-06-27T17:12:52Z</time>
      </trkpt>
      <trkpt lat="45.93749" lon="6.90796">
        <ele>1474.7998047</ele>
        <time>2013-06-27T17:13:11Z</time>
      </trkpt>
      <trkpt lat="45.93754" lon="6.90814">
        <ele>1471.4350586</ele>
        <time>2013-06-27T17:13:30Z</time>
      </trkpt>
      <trkpt lat="45.93766" lon="6.90837">
        <ele>1468.0705566</ele>
        <time>2013-06-27T17:13:48Z</time>
      </trkpt>
      <trkpt lat="45.93777" lon="6.90848">
        <ele>1465.1865234</ele>
        <time>2013-06-27T17:14:06Z</time>
      </trkpt>
      <trkpt lat="45.93789" lon="6.90856">
        <ele>1462.3024902</ele>
        <time>2013-06-27T17:14:23Z</time>
      </trkpt>
      <trkpt lat="45.938" lon="6.90873">
        <ele>1458.9379883</ele>
        <time>2013-06-27T17:14:44Z</time>
      </trkpt>
      <trkpt lat="45.93806" lon="6.90867">
        <ele>1455.5734863</ele>
        <time>2013-06-27T17:15:00Z</time>
      </trkpt>
      <trkpt lat="45.938" lon="6.90856">
        <ele>1452.6894531</ele>
        <time>2013-06-27T17:15:18Z</time>
      </trkpt>
      <trkpt lat="45.93798" lon="6.90835">
        <ele>1449.324707</ele>
        <time>2013-06-27T17:15:37Z</time>
      </trkpt>
      <trkpt lat="45.93787" lon="6.90815">
        <ele>1446.440918</ele>
        <time>2013-06-27T17:15:53Z</time>
      </trkpt>
      <trkpt lat="45.93792" lon="6.90804">
        <ele>1445.4794922</ele>
        <time>2013-06-27T17:15:57Z</time>
      </trkpt>
      <trkpt lat="45.93789" lon="6.90797">
        <ele>1444.9987793</ele>
        <time>2013-06-27T17:16:01Z</time>
      </trkpt>
      <trkpt lat="45.93786" lon="6.9079">
        <ele>1443.5568848</ele>
        <time>2013-06-27T17:16:06Z</time>
      </trkpt>
      <trkpt lat="45.93786" lon="6.90773">
        <ele>1440.6728516</ele>
        <time>2013-06-27T17:16:19Z</time>
      </trkpt>
      <trkpt lat="45.93786" lon="6.90762">
        <ele>1439.230957</ele>
        <time>2013-06-27T17:16:26Z</time>
      </trkpt>
      <trkpt lat="45.93786" lon="6.90758">
        <ele>1438.7504883</ele>
        <time>2013-06-27T17:16:28Z</time>
      </trkpt>
      <trkpt lat="45.93782" lon="6.90744">
        <ele>1435.385498</ele>
        <time>2013-06-27T17:16:42Z</time>
      </trkpt>
      <trkpt lat="45.93782" lon="6.90736">
        <ele>1432.9821777</ele>
        <time>2013-06-27T17:16:55Z</time>
      </trkpt>
      <trkpt lat="45.93781" lon="6.90736">
        <ele>1432.9821777</ele>
        <time>2013-06-27T17:16:56Z</time>
      </trkpt>
      <trkpt lat="45.93778" lon="6.90721">
        <ele>1430.0983887</ele>
        <time>2013-06-27T17:17:11Z</time>
      </trkpt>
      <trkpt lat="45.93775" lon="6.90712">
        <ele>1428.6564941</ele>
        <time>2013-06-27T17:17:18Z</time>
      </trkpt>
      <trkpt lat="45.93773" lon="6.9071">
        <ele>1428.1757813</ele>
        <time>2013-06-27T17:17:20Z</time>
      </trkpt>
      <trkpt lat="45.93771" lon="6.90694">
        <ele>1425.291748</ele>
        <time>2013-06-27T17:17:35Z</time>
      </trkpt>
      <trkpt lat="45.93762" lon="6.90674">
        <ele>1421.9272461</ele>
        <time>2013-06-27T17:17:50Z</time>
      </trkpt>
      <trkpt lat="45.93757" lon="6.90654">
        <ele>1419.5239258</ele>
        <time>2013-06-27T17:18:03Z</time>
      </trkpt>
      <trkpt lat="45.93755" lon="6.90637">
        <ele>1416.1591797</ele>
        <time>2013-06-27T17:18:18Z</time>
      </trkpt>
      <trkpt lat="45.93756" lon="6.90623">
        <ele>1413.2753906</ele>
        <time>2013-06-27T17:18:33Z</time>
      </trkpt>
      <trkpt lat="45.93746" lon="6.906">
        <ele>1409.9106445</ele>
        <time>2013-06-27T17:18:50Z</time>
      </trkpt>
      <trkpt lat="45.93742" lon="6.90582">
        <ele>1407.0268555</ele>
        <time>2013-06-27T17:19:03Z</time>
      </trkpt>
      <trkpt lat="45.9374" lon="6.90567">
        <ele>1404.1430664</ele>
        <time>2013-06-27T17:19:21Z</time>
      </trkpt>
      <trkpt lat="45.93747" lon="6.90555">
        <ele>1400.7780762</ele>
        <time>2013-06-27T17:19:39Z</time>
      </trkpt>
      <trkpt lat="45.93747" lon="6.90537">
        <ele>1397.4135742</ele>
        <time>2013-06-27T17:19:54Z</time>
      </trkpt>
      <trkpt lat="45.93748" lon="6.90518">
        <ele>1395.0102539</ele>
        <time>2013-06-27T17:20:07Z</time>
      </trkpt>
      <trkpt lat="45.93751" lon="6.90495">
        <ele>1391.645752</ele>
        <time>2013-06-27T17:20:29Z</time>
      </trkpt>
      <trkpt lat="45.93756" lon="6.90487">
        <ele>1390.2038574</ele>
        <time>2013-06-27T17:20:36Z</time>
      </trkpt>
      <trkpt lat="45.93747" lon="6.90466">
        <ele>1386.8388672</ele>
        <time>2013-06-27T17:20:53Z</time>
      </trkpt>
      <trkpt lat="45.93748" lon="6.90461">
        <ele>1385.8776855</ele>
        <time>2013-06-27T17:20:57Z</time>
      </trkpt>
      <trkpt lat="45.93745" lon="6.90451">
        <ele>1383.9550781</ele>
        <time>2013-06-27T17:21:10Z</time>
      </trkpt>
      <trkpt lat="45.93742" lon="6.90439">
        <ele>1381.5517578</ele>
        <time>2013-06-27T17:21:22Z</time>
      </trkpt>
      <trkpt lat="45.93729" lon="6.90425">
        <ele>1379.1484375</ele>
        <time>2013-06-27T17:21:34Z</time>
      </trkpt>
      <trkpt lat="45.93723" lon="6.90403">
        <ele>1375.7839355</ele>
        <time>2013-06-27T17:21:53Z</time>
      </trkpt>
      <trkpt lat="45.93708" lon="6.90381">
        <ele>1372.9001465</ele>
        <time>2013-06-27T17:22:11Z</time>
      </trkpt>
      <trkpt lat="45.93706" lon="6.90372">
        <ele>1371.9384766</ele>
        <time>2013-06-27T17:22:15Z</time>
      </trkpt>
      <trkpt lat="45.93704" lon="6.9036">
        <ele>1370.9772949</ele>
        <time>2013-06-27T17:22:21Z</time>
      </trkpt>
      <trkpt lat="45.93706" lon="6.90355">
        <ele>1370.496582</ele>
        <time>2013-06-27T17:22:24Z</time>
      </trkpt>
      <trkpt lat="45.93712" lon="6.90347">
        <ele>1368.5739746</ele>
        <time>2013-06-27T17:22:33Z</time>
      </trkpt>
      <trkpt lat="45.93712" lon="6.90339">
        <ele>1365.6901855</ele>
        <time>2013-06-27T17:22:49Z</time>
      </trkpt>
      <trkpt lat="45.93709" lon="6.90326">
        <ele>1362.8061523</ele>
        <time>2013-06-27T17:23:02Z</time>
      </trkpt>
      <trkpt lat="45.93711" lon="6.90321">
        <ele>1361.3642578</ele>
        <time>2013-06-27T17:23:08Z</time>
      </trkpt>
      <trkpt lat="45.93703" lon="6.90311">
        <ele>1359.4416504</ele>
        <time>2013-06-27T17:23:20Z</time>
      </trkpt>
      <trkpt lat="45.93704" lon="6.90298">
        <ele>1357.0383301</ele>
        <time>2013-06-27T17:23:31Z</time>
      </trkpt>
      <trkpt lat="45.93705" lon="6.90277">
        <ele>1354.1542969</ele>
        <time>2013-06-27T17:23:48Z</time>
      </trkpt>
      <trkpt lat="45.93698" lon="6.90266">
        <ele>1352.7121582</ele>
        <time>2013-06-27T17:23:56Z</time>
      </trkpt>
      <trkpt lat="45.93706" lon="6.90253">
        <ele>1350.309082</ele>
        <time>2013-06-27T17:24:10Z</time>
      </trkpt>
      <trkpt lat="45.93715" lon="6.9024">
        <ele>1347.9057617</ele>
        <time>2013-06-27T17:24:26Z</time>
      </trkpt>
      <trkpt lat="45.93715" lon="6.90226">
        <ele>1345.0217285</ele>
        <time>2013-06-27T17:24:42Z</time>
      </trkpt>
      <trkpt lat="45.9371" lon="6.90204">
        <ele>1341.6572266</ele>
        <time>2013-06-27T17:24:59Z</time>
      </trkpt>
      <trkpt lat="45.93708" lon="6.90189">
        <ele>1338.7731934</ele>
        <time>2013-06-27T17:25:19Z</time>
      </trkpt>
      <trkpt lat="45.93706" lon="6.9017">
        <ele>1335.8891602</ele>
        <time>2013-06-27T17:25:38Z</time>
      </trkpt>
      <trkpt lat="45.93699" lon="6.90153">
        <ele>1332.5246582</ele>
        <time>2013-06-27T17:25:55Z</time>
      </trkpt>
      <trkpt lat="45.93701" lon="6.90137">
        <ele>1329.640625</ele>
        <time>2013-06-27T17:26:11Z</time>
      </trkpt>
      <trkpt lat="45.93698" lon="6.90123">
        <ele>1326.276123</ele>
        <time>2013-06-27T17:26:25Z</time>
      </trkpt>
      <trkpt lat="45.93685" lon="6.90095">
        <ele>1323.3920898</ele>
        <time>2013-06-27T17:26:41Z</time>
      </trkpt>
      <trkpt lat="45.93686" lon="6.90078">
        <ele>1320.0273438</ele>
        <time>2013-06-27T17:26:56Z</time>
      </trkpt>
      <trkpt lat="45.93681" lon="6.90073">
        <ele>1317.1435547</ele>
        <time>2013-06-27T17:27:11Z</time>
      </trkpt>
      <trkpt lat="45.93672" lon="6.90059">
        <ele>1314.2595215</ele>
        <time>2013-06-27T17:27:25Z</time>
      </trkpt>
      <trkpt lat="45.93672" lon="6.90037">
        <ele>1310.8950195</ele>
        <time>2013-06-27T17:27:43Z</time>
      </trkpt>
      <trkpt lat="45.93671" lon="6.90019">
        <ele>1307.5302734</ele>
        <time>2013-06-27T17:28:02Z</time>
      </trkpt>
      <trkpt lat="45.93664" lon="6.90006">
        <ele>1304.6462402</ele>
        <time>2013-06-27T17:28:16Z</time>
      </trkpt>
      <trkpt lat="45.93659" lon="6.89988">
        <ele>1301.2817383</ele>
        <time>2013-06-27T17:28:34Z</time>
      </trkpt>
      <trkpt lat="45.93648" lon="6.8997">
        <ele>1298.3977051</ele>
        <time>2013-06-27T17:28:54Z</time>
      </trkpt>
      <trkpt lat="45.9364" lon="6.89958">
        <ele>1295.513916</ele>
        <time>2013-06-27T17:29:13Z</time>
      </trkpt>
      <trkpt lat="45.93633" lon="6.89945">
        <ele>1292.1494141</ele>
        <time>2013-06-27T17:29:30Z</time>
      </trkpt>
      <trkpt lat="45.93627" lon="6.89923">
        <ele>1288.784668</ele>
        <time>2013-06-27T17:29:50Z</time>
      </trkpt>
      <trkpt lat="45.93614" lon="6.89906">
        <ele>1285.9006348</ele>
        <time>2013-06-27T17:30:08Z</time>
      </trkpt>
      <trkpt lat="45.93612" lon="6.89895">
        <ele>1283.0166016</ele>
        <time>2013-06-27T17:30:25Z</time>
      </trkpt>
      <trkpt lat="45.93595" lon="6.89879">
        <ele>1279.6520996</ele>
        <time>2013-06-27T17:30:44Z</time>
      </trkpt>
      <trkpt lat="45.93582" lon="6.89864">
        <ele>1276.2875977</ele>
        <time>2013-06-27T17:31:01Z</time>
      </trkpt>
      <trkpt lat="45.93576" lon="6.89855">
        <ele>1273.4035645</ele>
        <time>2013-06-27T17:31:17Z</time>
      </trkpt>
      <trkpt lat="45.93561" lon="6.89834">
        <ele>1270.0388184</ele>
        <time>2013-06-27T17:31:38Z</time>
      </trkpt>
      <trkpt lat="45.93554" lon="6.89824">
        <ele>1267.1550293</ele>
        <time>2013-06-27T17:31:54Z</time>
      </trkpt>
      <trkpt lat="45.93544" lon="6.89817">
        <ele>1263.7902832</ele>
        <time>2013-06-27T17:32:11Z</time>
      </trkpt>
      <trkpt lat="45.93536" lon="6.89799">
        <ele>1260.9064941</ele>
        <time>2013-06-27T17:32:29Z</time>
      </trkpt>
      <trkpt lat="45.93545" lon="6.89797">
        <ele>1258.5029297</ele>
        <time>2013-06-27T17:32:39Z</time>
      </trkpt>
      <trkpt lat="45.93561" lon="6.89791">
        <ele>1255.1384277</ele>
        <time>2013-06-27T17:32:56Z</time>
      </trkpt>
      <trkpt lat="45.93571" lon="6.89797">
        <ele>1252.7351074</ele>
        <time>2013-06-27T17:33:09Z</time>
      </trkpt>
      <trkpt lat="45.93573" lon="6.89797">
        <ele>1252.2543945</ele>
        <time>2013-06-27T17:33:11Z</time>
      </trkpt>
      <trkpt lat="45.93578" lon="6.89799">
        <ele>1251.2932129</ele>
        <time>2013-06-27T17:33:16Z</time>
      </trkpt>
      <trkpt lat="45.9359" lon="6.89803">
        <ele>1248.4091797</ele>
        <time>2013-06-27T17:33:28Z</time>
      </trkpt>
      <trkpt lat="45.93591" lon="6.89804">
        <ele>1248.4091797</ele>
        <time>2013-06-27T17:33:29Z</time>
      </trkpt>
      <trkpt lat="45.93609" lon="6.89799">
        <ele>1245.0446777</ele>
        <time>2013-06-27T17:33:45Z</time>
      </trkpt>
      <trkpt lat="45.93621" lon="6.89795">
        <ele>1242.1606445</ele>
        <time>2013-06-27T17:33:58Z</time>
      </trkpt>
      <trkpt lat="45.93633" lon="6.89798">
        <ele>1238.7961426</ele>
        <time>2013-06-27T17:34:14Z</time>
      </trkpt>
      <trkpt lat="45.93636" lon="6.89806">
        <ele>1235.9121094</ele>
        <time>2013-06-27T17:34:32Z</time>
      </trkpt>
      <trkpt lat="45.93654" lon="6.89802">
        <ele>1233.5087891</ele>
        <time>2013-06-27T17:34:46Z</time>
      </trkpt>
      <trkpt lat="45.93656" lon="6.89806">
        <ele>1232.5476074</ele>
        <time>2013-06-27T17:34:55Z</time>
      </trkpt>
      <trkpt lat="45.9368" lon="6.89811">
        <ele>1229.1828613</ele>
        <time>2013-06-27T17:35:10Z</time>
      </trkpt>
      <trkpt lat="45.93682" lon="6.89828">
        <ele>1226.779541</ele>
        <time>2013-06-27T17:35:24Z</time>
      </trkpt>
      <trkpt lat="45.93693" lon="6.89828">
        <ele>1224.8569336</ele>
        <time>2013-06-27T17:35:33Z</time>
      </trkpt>
      <trkpt lat="45.93705" lon="6.89832">
        <ele>1221.9729004</ele>
        <time>2013-06-27T17:35:48Z</time>
      </trkpt>
      <trkpt lat="45.93718" lon="6.89869">
        <ele>1219.5698242</ele>
        <time>2013-06-27T17:36:00Z</time>
      </trkpt>
      <trkpt lat="45.93729" lon="6.89877">
        <ele>1218.6083984</ele>
        <time>2013-06-27T17:36:07Z</time>
      </trkpt>
      <trkpt lat="45.93735" lon="6.89882">
        <ele>1215.7246094</ele>
        <time>2013-06-27T17:36:21Z</time>
      </trkpt>
      <trkpt lat="45.93735" lon="6.89882">
        <ele>1215.7246094</ele>
        <time>2013-06-27T17:36:22Z</time>
      </trkpt>
      <trkpt lat="45.93735" lon="6.89882">
        <ele>1213.8017578</ele>
        <time>2013-06-27T17:36:34Z</time>
      </trkpt>
      <trkpt lat="45.93761" lon="6.89904">
        <ele>1211.3984375</ele>
        <time>2013-06-27T17:36:46Z</time>
      </trkpt>
      <trkpt lat="45.93761" lon="6.89904">
        <ele>1209.9562988</ele>
        <time>2013-06-27T17:36:56Z</time>
      </trkpt>
      <trkpt lat="45.93761" lon="6.89904">
        <ele>1209.4758301</ele>
        <time>2013-06-27T17:36:57Z</time>
      </trkpt>
      <trkpt lat="45.93761" lon="6.89904">
        <ele>1208.0339355</ele>
        <time>2013-06-27T17:37:07Z</time>
      </trkpt>
      <trkpt lat="45.93771" lon="6.89898">
        <ele>1205.6306152</ele>
        <time>2013-06-27T17:37:21Z</time>
      </trkpt>
      <trkpt lat="45.93783" lon="6.89907">
        <ele>1202.2658691</ele>
        <time>2013-06-27T17:37:36Z</time>
      </trkpt>
      <trkpt lat="45.93786" lon="6.89916">
        <ele>1199.3820801</ele>
        <time>2013-06-27T17:37:52Z</time>
      </trkpt>
      <trkpt lat="45.938" lon="6.89922">
        <ele>1196.498291</ele>
        <time>2013-06-27T17:38:11Z</time>
      </trkpt>
      <trkpt lat="45.93808" lon="6.89927">
        <ele>1195.0559082</ele>
        <time>2013-06-27T17:38:18Z</time>
      </trkpt>
      <trkpt lat="45.93812" lon="6.89944">
        <ele>1191.6914063</ele>
        <time>2013-06-27T17:38:36Z</time>
      </trkpt>
      <trkpt lat="45.93821" lon="6.89949">
        <ele>1188.8076172</ele>
        <time>2013-06-27T17:38:52Z</time>
      </trkpt>
      <trkpt lat="45.93833" lon="6.89958">
        <ele>1185.4428711</ele>
        <time>2013-06-27T17:39:07Z</time>
      </trkpt>
      <trkpt lat="45.93852" lon="6.89965">
        <ele>1182.559082</ele>
        <time>2013-06-27T17:39:25Z</time>
      </trkpt>
      <trkpt lat="45.93853" lon="6.89969">
        <ele>1180.6364746</ele>
        <time>2013-06-27T17:39:38Z</time>
      </trkpt>
      <trkpt lat="45.93858" lon="6.8997">
        <ele>1178.2329102</ele>
        <time>2013-06-27T17:39:49Z</time>
      </trkpt>
      <trkpt lat="45.93869" lon="6.89969">
        <ele>1176.3103027</ele>
        <time>2013-06-27T17:39:59Z</time>
      </trkpt>
      <trkpt lat="45.93877" lon="6.89979">
        <ele>1173.4265137</ele>
        <time>2013-06-27T17:40:16Z</time>
      </trkpt>
      <trkpt lat="45.93878" lon="6.89992">
        <ele>1170.0617676</ele>
        <time>2013-06-27T17:40:30Z</time>
      </trkpt>
      <trkpt lat="45.93875" lon="6.90007">
        <ele>1166.6972656</ele>
        <time>2013-06-27T17:40:45Z</time>
      </trkpt>
      <trkpt lat="45.93896" lon="6.90012">
        <ele>1164.7746582</ele>
        <time>2013-06-27T17:40:55Z</time>
      </trkpt>
      <trkpt lat="45.93898" lon="6.90016">
        <ele>1164.2939453</ele>
        <time>2013-06-27T17:40:58Z</time>
      </trkpt>
      <trkpt lat="45.93894" lon="6.90034">
        <ele>1161.890625</ele>
        <time>2013-06-27T17:41:13Z</time>
      </trkpt>
      <trkpt lat="45.93904" lon="6.90055">
        <ele>1158.5258789</ele>
        <time>2013-06-27T17:41:29Z</time>
      </trkpt>
      <trkpt lat="45.93917" lon="6.90052">
        <ele>1155.6420898</ele>
        <time>2013-06-27T17:41:45Z</time>
      </trkpt>
      <trkpt lat="45.93929" lon="6.9006">
        <ele>1152.2773438</ele>
        <time>2013-06-27T17:42:01Z</time>
      </trkpt>
      <trkpt lat="45.9393" lon="6.90079">
        <ele>1149.3935547</ele>
        <time>2013-06-27T17:42:17Z</time>
      </trkpt>
      <trkpt lat="45.93949" lon="6.90087">
        <ele>1146.9899902</ele>
        <time>2013-06-27T17:42:30Z</time>
      </trkpt>
      <trkpt lat="45.93968" lon="6.90081">
        <ele>1144.5866699</ele>
        <time>2013-06-27T17:42:41Z</time>
      </trkpt>
      <trkpt lat="45.9397" lon="6.90094">
        <ele>1142.1835938</ele>
        <time>2013-06-27T17:42:54Z</time>
      </trkpt>
      <trkpt lat="45.93958" lon="6.90104">
        <ele>1141.7028809</ele>
        <time>2013-06-27T17:43:04Z</time>
      </trkpt>
      <trkpt lat="45.9398" lon="6.90115">
        <ele>1138.3383789</ele>
        <time>2013-06-27T17:43:18Z</time>
      </trkpt>
      <trkpt lat="45.93989" lon="6.90116">
        <ele>1137.857666</ele>
        <time>2013-06-27T17:43:21Z</time>
      </trkpt>
      <trkpt lat="45.94004" lon="6.90107">
        <ele>1134.4931641</ele>
        <time>2013-06-27T17:43:35Z</time>
      </trkpt>
      <trkpt lat="45.94019" lon="6.901">
        <ele>1133.0510254</ele>
        <time>2013-06-27T17:43:44Z</time>
      </trkpt>
      <trkpt lat="45.94038" lon="6.9009">
        <ele>1130.6477051</ele>
        <time>2013-06-27T17:43:56Z</time>
      </trkpt>
      <trkpt lat="45.9406" lon="6.90085">
        <ele>1129.2055664</ele>
        <time>2013-06-27T17:44:04Z</time>
      </trkpt>
      <trkpt lat="45.94067" lon="6.90085">
        <ele>1128.7250977</ele>
        <time>2013-06-27T17:44:06Z</time>
      </trkpt>
      <trkpt lat="45.94071" lon="6.90087">
        <ele>1127.2832031</ele>
        <time>2013-06-27T17:44:14Z</time>
      </trkpt>
      <trkpt lat="45.94076" lon="6.90092">
        <ele>1126.8024902</ele>
        <time>2013-06-27T17:44:18Z</time>
      </trkpt>
      <trkpt lat="45.94084" lon="6.90094">
        <ele>1125.3603516</ele>
        <time>2013-06-27T17:44:23Z</time>
      </trkpt>
      <trkpt lat="45.94086" lon="6.90115">
        <ele>1123.4379883</ele>
        <time>2013-06-27T17:44:33Z</time>
      </trkpt>
      <trkpt lat="45.94096" lon="6.9011">
        <ele>1121.9958496</ele>
        <time>2013-06-27T17:44:43Z</time>
      </trkpt>
      <trkpt lat="45.94085" lon="6.90115">
        <ele>1121.9958496</ele>
        <time>2013-06-27T17:45:02Z</time>
      </trkpt>
      <trkpt lat="45.9407" lon="6.90108">
        <ele>1121.034668</ele>
        <time>2013-06-27T17:45:11Z</time>
      </trkpt>
      <trkpt lat="45.94076" lon="6.90108">
        <ele>1120.5539551</ele>
        <time>2013-06-27T17:45:24Z</time>
      </trkpt>
      <trkpt lat="45.94071" lon="6.90107">
        <ele>1120.5539551</ele>
        <time>2013-06-27T17:45:26Z</time>
      </trkpt>
      <trkpt lat="45.93984" lon="6.90086">
        <ele>1119.1120605</ele>
        <time>2013-06-27T17:45:42Z</time>
      </trkpt>
      <trkpt lat="45.9397" lon="6.90081">
        <ele>1118.1506348</ele>
        <time>2013-06-27T17:45:55Z</time>
      </trkpt>
      <trkpt lat="45.93962" lon="6.9006">
        <ele>1117.1894531</ele>
        <time>2013-06-27T17:46:08Z</time>
      </trkpt>
      <trkpt lat="45.93967" lon="6.90052">
        <ele>1116.7087402</ele>
        <time>2013-06-27T17:46:15Z</time>
      </trkpt>
      <trkpt lat="45.9394" lon="6.90039">
        <ele>1116.2280273</ele>
        <time>2013-06-27T17:46:19Z</time>
      </trkpt>
      <trkpt lat="45.9394" lon="6.90026">
        <ele>1115.7473145</ele>
        <time>2013-06-27T17:46:29Z</time>
      </trkpt>
      <trkpt lat="45.93935" lon="6.90018">
        <ele>1115.2666016</ele>
        <time>2013-06-27T17:46:38Z</time>
      </trkpt>
      <trkpt lat="45.93909" lon="6.90002">
        <ele>1114.7858887</ele>
        <time>2013-06-27T17:46:49Z</time>
      </trkpt>
      <trkpt lat="45.93907" lon="6.89994">
        <ele>1114.7858887</ele>
        <time>2013-06-27T17:46:54Z</time>
      </trkpt>
      <trkpt lat="45.93903" lon="6.89974">
        <ele>1114.3051758</ele>
        <time>2013-06-27T17:47:06Z</time>
      </trkpt>
      <trkpt lat="45.9389" lon="6.89958">
        <ele>1114.3051758</ele>
        <time>2013-06-27T17:47:16Z</time>
      </trkpt>
      <trkpt lat="45.93913" lon="6.89951">
        <ele>1114.3051758</ele>
        <time>2013-06-27T17:47:29Z</time>
      </trkpt>
      <trkpt lat="45.93902" lon="6.89932">
        <ele>1114.3051758</ele>
        <time>2013-06-27T17:47:43Z</time>
      </trkpt>
      <trkpt lat="45.93903" lon="6.89926">
        <ele>1114.7858887</ele>
        <time>2013-06-27T17:47:46Z</time>
      </trkpt>
      <trkpt lat="45.93901" lon="6.89911">
        <ele>1114.7858887</ele>
        <time>2013-06-27T17:47:56Z</time>
      </trkpt>
      <trkpt lat="45.93918" lon="6.89903">
        <ele>1115.2666016</ele>
        <time>2013-06-27T17:48:06Z</time>
      </trkpt>
      <trkpt lat="45.93918" lon="6.89898">
        <ele>1115.2666016</ele>
        <time>2013-06-27T17:48:09Z</time>
      </trkpt>
      <trkpt lat="45.93917" lon="6.89894">
        <ele>1115.7473145</ele>
        <time>2013-06-27T17:48:12Z</time>
      </trkpt>
      <trkpt lat="45.93915" lon="6.89882">
        <ele>1115.2666016</ele>
        <time>2013-06-27T17:48:17Z</time>
      </trkpt>
      <trkpt lat="45.9391" lon="6.8987">
        <ele>1114.7858887</ele>
        <time>2013-06-27T17:48:29Z</time>
      </trkpt>
      <trkpt lat="45.93908" lon="6.89868">
        <ele>1114.7858887</ele>
        <time>2013-06-27T17:48:30Z</time>
      </trkpt>
      <trkpt lat="45.93911" lon="6.89865">
        <ele>1114.7858887</ele>
        <time>2013-06-27T17:48:33Z</time>
      </trkpt>
      <trkpt lat="45.93896" lon="6.89849">
        <ele>1114.7858887</ele>
        <time>2013-06-27T17:48:41Z</time>
      </trkpt>
      <trkpt lat="45.93896" lon="6.89843">
        <ele>1114.7858887</ele>
        <time>2013-06-27T17:48:44Z</time>
      </trkpt>
      <trkpt lat="45.93904" lon="6.89839">
        <ele>1114.7858887</ele>
        <time>2013-06-27T17:48:49Z</time>
      </trkpt>
      <trkpt lat="45.93908" lon="6.89836">
        <ele>1114.7858887</ele>
        <time>2013-06-27T17:48:52Z</time>
      </trkpt>
      <trkpt lat="45.93918" lon="6.89828">
        <ele>1114.7858887</ele>
        <time>2013-06-27T17:49:04Z</time>
      </trkpt>
      <trkpt lat="45.93917" lon="6.89818">
        <ele>1113.8244629</ele>
        <time>2013-06-27T17:49:19Z</time>
      </trkpt>
      <trkpt lat="45.93917" lon="6.89812">
        <ele>1112.3825684</ele>
        <time>2013-06-27T17:49:30Z</time>
      </trkpt>
      <trkpt lat="45.93909" lon="6.89807">
        <ele>1111.9020996</ele>
        <time>2013-06-27T17:49:34Z</time>
      </trkpt>
      <trkpt lat="45.93864" lon="6.89795">
        <ele>1110.9406738</ele>
        <time>2013-06-27T17:49:44Z</time>
      </trkpt>
      <trkpt lat="45.93874" lon="6.89791">
        <ele>1110.4599609</ele>
        <time>2013-06-27T17:49:50Z</time>
      </trkpt>
      <trkpt lat="45.93912" lon="6.89796">
        <ele>1109.4987793</ele>
        <time>2013-06-27T17:49:57Z</time>
      </trkpt>
      <trkpt lat="45.93893" lon="6.8979">
        <ele>1109.4987793</ele>
        <time>2013-06-27T17:49:59Z</time>
      </trkpt>
      <trkpt lat="45.93893" lon="6.8978">
        <ele>1108.5373535</ele>
        <time>2013-06-27T17:50:11Z</time>
      </trkpt>
      <trkpt lat="45.93852" lon="6.89759">
        <ele>1107.5761719</ele>
        <time>2013-06-27T17:50:26Z</time>
      </trkpt>
      <trkpt lat="45.93851" lon="6.89754">
        <ele>1107.095459</ele>
        <time>2013-06-27T17:50:31Z</time>
      </trkpt>
      <trkpt lat="45.93845" lon="6.89752">
        <ele>1107.095459</ele>
        <time>2013-06-27T17:50:35Z</time>
      </trkpt>
      <trkpt lat="45.93838" lon="6.89737">
        <ele>1106.6147461</ele>
        <time>2013-06-27T17:50:48Z</time>
      </trkpt>
      <trkpt lat="45.9383" lon="6.89725">
        <ele>1106.1340332</ele>
        <time>2013-06-27T17:51:00Z</time>
      </trkpt>
      <trkpt lat="45.9382" lon="6.89716">
        <ele>1106.1340332</ele>
        <time>2013-06-27T17:51:08Z</time>
      </trkpt>
      <trkpt lat="45.93823" lon="6.89705">
        <ele>1105.6535645</ele>
        <time>2013-06-27T17:51:19Z</time>
      </trkpt>
      <trkpt lat="45.93825" lon="6.89705">
        <ele>1105.6535645</ele>
        <time>2013-06-27T17:51:27Z</time>
      </trkpt>
      <trkpt lat="45.93795" lon="6.89689">
        <ele>1105.6535645</ele>
        <time>2013-06-27T17:51:38Z</time>
      </trkpt>
      <trkpt lat="45.93792" lon="6.89687">
        <ele>1105.6535645</ele>
        <time>2013-06-27T17:51:42Z</time>
      </trkpt>
      <trkpt lat="45.93825" lon="6.89683">
        <ele>1106.1340332</ele>
        <time>2013-06-27T17:51:50Z</time>
      </trkpt>
      <trkpt lat="45.93803" lon="6.89678">
        <ele>1106.1340332</ele>
        <time>2013-06-27T17:51:54Z</time>
      </trkpt>
      <trkpt lat="45.93745" lon="6.89657">
        <ele>1106.1340332</ele>
        <time>2013-06-27T17:52:06Z</time>
      </trkpt>
      <trkpt lat="45.937" lon="6.89642">
        <ele>1106.1340332</ele>
        <time>2013-06-27T17:52:15Z</time>
      </trkpt>
      <trkpt lat="45.93691" lon="6.89624">
        <ele>1106.1340332</ele>
        <time>2013-06-27T17:52:26Z</time>
      </trkpt>
      <trkpt lat="45.93747" lon="6.89616">
        <ele>1106.6147461</ele>
        <time>2013-06-27T17:52:40Z</time>
      </trkpt>
      <trkpt lat="45.93745" lon="6.89614">
        <ele>1106.6147461</ele>
        <time>2013-06-27T17:52:41Z</time>
      </trkpt>
      <trkpt lat="45.93759" lon="6.89602">
        <ele>1107.095459</ele>
        <time>2013-06-27T17:52:50Z</time>
      </trkpt>
      <trkpt lat="45.93784" lon="6.89595">
        <ele>1107.5761719</ele>
        <time>2013-06-27T17:53:05Z</time>
      </trkpt>
      <trkpt lat="45.93793" lon="6.89586">
        <ele>1107.095459</ele>
        <time>2013-06-27T17:53:15Z</time>
      </trkpt>
      <trkpt lat="45.938" lon="6.89582">
        <ele>1106.6147461</ele>
        <time>2013-06-27T17:53:21Z</time>
      </trkpt>
      <trkpt lat="45.93806" lon="6.89581">
        <ele>1106.6147461</ele>
        <time>2013-06-27T17:53:24Z</time>
      </trkpt>
      <trkpt lat="45.93808" lon="6.89576">
        <ele>1106.6147461</ele>
        <time>2013-06-27T17:53:30Z</time>
      </trkpt>
      <trkpt lat="45.93812" lon="6.89572">
        <ele>1106.6147461</ele>
        <time>2013-06-27T17:53:37Z</time>
      </trkpt>
      <trkpt lat="45.9383" lon="6.89566">
        <ele>1105.6535645</ele>
        <time>2013-06-27T17:53:51Z</time>
      </trkpt>
      <trkpt lat="45.93831" lon="6.89565">
        <ele>1105.6535645</ele>
        <time>2013-06-27T17:53:53Z</time>
      </trkpt>
      <trkpt lat="45.93844" lon="6.89558">
        <ele>1104.6921387</ele>
        <time>2013-06-27T17:54:07Z</time>
      </trkpt>
      <trkpt lat="45.93849" lon="6.89555">
        <ele>1104.6921387</ele>
        <time>2013-06-27T17:54:10Z</time>
      </trkpt>
      <trkpt lat="45.93859" lon="6.89549">
        <ele>1104.6921387</ele>
        <time>2013-06-27T17:54:15Z</time>
      </trkpt>
      <trkpt lat="45.9386" lon="6.89548">
        <ele>1104.2116699</ele>
        <time>2013-06-27T17:54:17Z</time>
      </trkpt>
      <trkpt lat="45.93869" lon="6.89545">
        <ele>1104.2116699</ele>
        <time>2013-06-27T17:54:21Z</time>
      </trkpt>
      <trkpt lat="45.93876" lon="6.89542">
        <ele>1104.2116699</ele>
        <time>2013-06-27T17:54:24Z</time>
      </trkpt>
      <trkpt lat="45.93882" lon="6.89539">
        <ele>1104.2116699</ele>
        <time>2013-06-27T17:54:28Z</time>
      </trkpt>
      <trkpt lat="45.93888" lon="6.89533">
        <ele>1104.2116699</ele>
        <time>2013-06-27T17:54:34Z</time>
      </trkpt>
      <trkpt lat="45.93905" lon="6.8952">
        <ele>1104.2116699</ele>
        <time>2013-06-27T17:54:45Z</time>
      </trkpt>
      <trkpt lat="45.93903" lon="6.89513">
        <ele>1103.730957</ele>
        <time>2013-06-27T17:54:49Z</time>
      </trkpt>
      <trkpt lat="45.93933" lon="6.89503">
        <ele>1103.730957</ele>
        <time>2013-06-27T17:55:03Z</time>
      </trkpt>
      <trkpt lat="45.93918" lon="6.8949">
        <ele>1103.730957</ele>
        <time>2013-06-27T17:55:16Z</time>
      </trkpt>
      <trkpt lat="45.93917" lon="6.89488">
        <ele>1103.730957</ele>
        <time>2013-06-27T17:55:17Z</time>
      </trkpt>
      <trkpt lat="45.93907" lon="6.89477">
        <ele>1103.730957</ele>
        <time>2013-06-27T17:55:19Z</time>
      </trkpt>
      <trkpt lat="45.93923" lon="6.89462">
        <ele>1103.730957</ele>
        <time>2013-06-27T17:55:32Z</time>
      </trkpt>
      <trkpt lat="45.93929" lon="6.8945">
        <ele>1104.2116699</ele>
        <time>2013-06-27T17:55:45Z</time>
      </trkpt>
      <trkpt lat="45.9394" lon="6.89447">
        <ele>1105.1728516</ele>
        <time>2013-06-27T17:55:55Z</time>
      </trkpt>
      <trkpt lat="45.93961" lon="6.89452">
        <ele>1104.2116699</ele>
        <time>2013-06-27T17:56:07Z</time>
      </trkpt>
      <trkpt lat="45.93943" lon="6.89434">
        <ele>1103.730957</ele>
        <time>2013-06-27T17:56:12Z</time>
      </trkpt>
      <trkpt lat="45.93956" lon="6.89428">
        <ele>1103.730957</ele>
        <time>2013-06-27T17:56:18Z</time>
      </trkpt>
      <trkpt lat="45.93949" lon="6.89426">
        <ele>1103.730957</ele>
        <time>2013-06-27T17:56:22Z</time>
      </trkpt>
      <trkpt lat="45.94014" lon="6.89451">
        <ele>1103.730957</ele>
        <time>2013-06-27T17:56:45Z</time>
      </trkpt>
      <trkpt lat="45.93929" lon="6.89433">
        <ele>1103.2502441</ele>
        <time>2013-06-27T17:56:58Z</time>
      </trkpt>
      <trkpt lat="45.93955" lon="6.89399">
        <ele>1103.730957</ele>
        <time>2013-06-27T17:57:27Z</time>
      </trkpt>
    </trkseg>
  </trk>
</gpx>